[[{"header":{"parameterUnit":"m.s-1","parameterCategory":1,"la1":30.6,"la2":28.766,"lo1":-90.7593,"lo2":-88.6598,"dy":0.0162,"dx":0.0183,"nx":116,"ny":114,"refTime":"2023-06-24T12:00:00:Z","depth":0,"parameterNumber":2,"parameterNumberName":"U-component_of_WINDS"},"data":[0.0,0.0,0.0,0.0,0.0,0.0,0.0,0.0,0.0,0.0,0.0,0.0,0.0,0.0,0.0,0.0,0.0,0.0,0.0,0.0,0.0,0.0,0.0,0.0,0.0,0.0,0.0,0.0,0.0,0.0,0.0,0.0,0.0,0.0,0.0,0.0,0.0,0.0,0.0,0.0,0.0,0.0,0.0,0.0,0.0,0.0,0.0,0.0,0.0,0.0,0.0,0.0,0.0,0.0,0.0,0.0,0.0,0.0,0.0,0.0,0.0,0.0,0.0,0.0,0.0,0.0,0.0,0.0,0.0,0.0,0.0,0.0,0.0,0.0,0.0,0.0,0.0,0.0,0.0,0.0,0.0,0.0,0.0,0.0,0.0,0.0,0.0,0.0,0.0,0.0,0.0,0.0,0.0,0.0,0.0,0.0,0.0,0.0,0.0,0.0,0.0,0.0,0.0,0.0,0.0,0.0,0.0,0.0,0.0,0.0,0.0,0.0,0.0,0.0,0.0,0.0,0.0,0.0,0.0,0.0,0.0,0.0,0.0,0.0,0.0,0.0,0.0,0.0,0.0,0.0,0.0,0.0,0.0,0.0,0.0,0.0,0.0,0.0,0.0,0.0,0.0,0.0,0.0,0.0,0.0,0.0,0.0,0.0,0.0,0.0,0.0,0.0,0.0,0.0,0.0,0.0,0.0,0.0,0.0,0.0,0.0,0.0,0.0,0.0,0.0,0.0,0.0,0.0,0.0,0.0,0.0,0.0,0.0,0.0,0.0,0.0,0.0,0.0,0.0,0.0,0.0,0.0,0.0,0.0,0.0,0.0,0.0,0.0,0.0,0.0,0.0,0.0,0.0,0.0,0.0,0.0,0.0,0.0,0.0,0.0,0.0,0.0,0.0,0.0,0.0,0.0,0.0,0.0,0.0,0.0,0.0,0.0,0.0,0.0,0.0,0.0,0.0,0.0,0.0,0.0,0.0,0.0,0.0,0.0,0.0,0.0,0.0,0.0,0.0,0.0,0.0,0.0,0.0,0.0,0.0,0.0,0.0,0.0,0.0,0.0,0.0,0.0,0.0,0.0,0.0,0.0,0.0,0.0,0.0,0.0,0.0,0.0,0.0,0.0,0.0,0.0,0.0,0.0,0.0,0.0,0.0,0.0,0.0,0.0,0.0,0.0,0.0,0.0,0.0,0.0,0.0,0.0,0.0,0.0,0.0,0.0,0.0,0.0,0.0,0.0,0.0,0.0,0.0,0.0,0.0,0.0,0.0,0.0,0.0,0.0,0.0,0.0,0.0,0.0,0.0,0.0,0.0,0.0,0.0,0.0,0.0,0.0,0.0,0.0,0.0,0.0,0.0,0.0,0.0,0.0,0.0,0.0,0.0,0.0,0.0,0.0,0.0,0.0,0.0,0.0,0.0,0.0,0.0,0.0,0.0,0.0,0.0,0.0,0.0,0.0,0.0,0.0,0.0,0.0,0.0,0.0,0.0,0.0,0.0,0.0,0.0,0.0,0.0,0.0,0.0,0.0,0.0,0.0,0.0,0.0,0.0,0.0,0.0,0.0,0.0,0.0,0.0,0.0,0.0,0.0,0.0,0.0,0.0,0.0,0.0,0.0,0.0,0.0,0.0,0.0,0.0,0.0,0.0,0.0,0.0,0.0,0.0,0.0,0.0,0.0,0.0,0.0,0.0,0.0,0.0,0.0,0.0,0.0,0.0,0.0,0.0,0.0,0.0,0.0,0.0,0.0,0.0,0.0,0.0,0.0,0.0,0.0,0.0,0.0,0.0,0.0,0.0,0.0,0.0,0.0,0.0,0.0,0.0,0.0,0.0,0.0,0.0,0.0,0.0,0.0,0.0,0.0,0.0,0.0,0.0,0.0,0.0,0.0,0.0,0.0,0.0,0.0,0.0,0.0,0.0,0.0,0.0,0.0,0.0,0.0,0.0,0.0,0.0,0.0,0.0,0.0,0.0,0.0,0.0,0.0,0.0,0.0,0.0,0.0,0.0,0.0,0.0,0.0,0.0,0.0,0.0,0.0,0.0,0.0,0.0,0.0,0.0,0.0,0.0,0.0,0.0,0.0,0.0,0.0,0.0,0.0,0.0,0.0,0.0,0.0,0.0,0.0,0.0,0.0,0.0,0.0,0.0,0.0,0.0,0.0,0.0,0.0,0.0,0.0,0.0,0.0,0.0,0.0,0.0,0.0,0.0,0.0,0.0,0.0,0.0,0.0,0.0,0.0,0.0,0.0,0.0,0.0,0.0,0.0,0.0,0.0,0.0,0.0,0.0,0.0,0.0,0.0,0.0,0.0,0.0,0.0,0.0,0.0,0.0,0.0,0.0,0.0,0.0,0.0,0.0,0.0,0.0,0.0,0.0,0.0,0.0,0.0,0.0,0.0,0.0,0.0,0.0,0.0,0.0,0.0,0.0,0.0,0.0,0.0,0.0,0.0,0.0,0.0,0.0,0.0,0.0,0.0,0.0,0.0,0.0,0.0,0.0,0.0,0.0,0.0,0.0,0.0,0.0,0.0,0.0,0.0,0.0,0.0,0.0,0.0,0.0,0.0,0.0,0.0,0.0,0.0,0.0,0.0,0.0,0.0,0.0,0.0,0.0,0.0,0.0,0.0,0.0,0.0,0.0,0.0,0.0,0.0,0.0,0.0,0.0,0.0,0.0,0.0,0.0,0.0,0.0,0.0,0.0,0.0,0.0,0.0,0.0,0.0,0.0,0.0,0.0,0.0,0.0,0.0,0.0,0.0,0.0,0.0,0.0,0.0,0.0,0.0,0.0,0.0,0.0,0.0,0.0,0.0,0.0,0.0,0.0,0.0,0.0,0.0,0.0,0.0,0.0,0.0,0.0,0.0,0.0,0.0,0.0,0.0,0.0,0.0,0.0,0.0,0.0,0.0,0.0,0.0,0.0,0.0,0.0,0.0,0.0,0.0,0.0,0.0,0.0,0.0,0.0,0.0,0.0,0.0,0.0,0.0,0.0,0.0,0.0,0.0,0.0,0.0,0.0,0.0,0.0,0.0,0.0,0.0,0.0,0.0,0.0,0.0,0.0,0.0,0.0,0.0,0.0,0.0,0.0,0.0,0.0,0.0,0.0,0.0,0.0,0.0,0.0,0.0,0.0,0.0,0.0,0.0,0.0,0.0,0.0,0.0,0.0,0.0,0.0,0.0,0.0,0.0,0.0,0.0,0.0,0.0,0.0,0.0,0.0,0.0,0.0,0.0,0.0,0.0,0.0,0.0,0.0,0.0,0.0,0.0,0.0,0.0,0.0,0.0,0.0,0.0,0.0,0.0,0.0,0.0,0.0,0.0,0.0,0.0,0.0,0.0,0.0,0.0,0.0,0.0,0.0,0.0,0.0,0.0,0.0,0.0,0.0,0.0,0.0,0.0,0.0,0.0,0.0,0.0,0.0,0.0,0.0,0.0,0.0,0.0,0.0,0.0,0.0,0.0,0.0,0.0,0.0,0.0,0.0,0.0,0.0,0.0,0.0,0.0,0.0,0.0,0.0,0.0,0.0,0.0,0.0,0.0,0.0,0.0,0.0,0.0,0.0,0.0,0.0,0.0,0.0,0.0,0.0,0.0,0.0,0.0,0.0,0.0,0.0,0.0,0.0,0.0,0.0,0.0,0.0,0.0,0.0,0.0,0.0,0.0,0.0,0.0,0.0,0.0,0.0,0.0,0.0,0.0,0.0,0.0,0.0,0.0,0.0,0.0,0.0,0.0,0.0,0.0,0.0,0.0,0.0,0.0,0.0,0.0,0.0,0.0,0.0,0.0,0.0,0.0,0.0,0.0,0.0,0.0,0.0,0.0,0.0,0.0,0.0,0.0,0.0,0.0,0.0,0.0,0.0,0.0,0.0,0.0,0.0,0.0,0.0,0.0,0.0,0.0,0.0,0.0,0.0,0.0,0.0,0.0,0.0,0.0,0.0,0.0,0.0,0.0,0.0,0.0,0.0,0.0,0.0,0.0,0.0,0.0,0.0,0.0,0.0,0.0,0.0,0.0,0.0,0.0,0.0,0.0,0.0,0.0,0.0,0.0,0.0,0.0,0.0,0.0,0.0,0.0,0.0,0.0,0.0,0.0,0.0,0.0,0.0,0.0,0.0,0.0,0.0,0.0,0.0,0.0,0.0,0.0,0.0,0.0,0.0,0.0,0.0,0.0,0.0,0.0,0.0,0.0,0.0,0.0,0.0,0.0,0.0,0.0,0.0,0.0,0.0,0.0,0.0,0.0,0.0,0.0,0.0,0.0,0.0,0.0,0.0,0.0,0.0,0.0,0.0,0.0,0.0,0.0,0.0,0.0,0.0,0.0,0.0,0.0,0.0,0.0,0.0,0.0,0.0,0.0,0.0,0.0,0.0,0.0,0.0,0.0,0.0,0.0,0.0,0.0,0.0,0.0,0.0,0.0,0.0,0.0,0.0,0.0,0.0,0.0,0.0,0.0,0.0,0.0,0.0,0.0,0.0,0.0,0.0,0.0,0.0,0.0,0.0,0.0,0.0,0.0,0.0,0.0,0.0,0.0,0.0,0.0,0.0,0.0,0.0,0.0,0.0,0.0,0.0,0.0,0.0,0.0,0.0,0.0,0.0,0.0,0.0,0.0,0.0,0.0,0.0,0.0,0.0,0.0,0.0,0.0,0.0,0.0,0.0,0.0,0.0,0.0,0.0,0.0,0.0,0.0,0.0,0.0,0.0,0.0,0.0,0.0,0.0,0.0,0.0,0.0,0.0,0.0,0.0,0.0,0.0,0.0,0.0,0.0,0.0,0.0,0.0,0.0,0.0,0.0,0.0,0.0,0.0,0.0,0.0,0.0,0.0,0.0,0.0,0.0,0.0,0.0,0.0,0.0,0.0,0.0,0.0,0.0,0.0,0.0,0.0,0.0,0.0,0.0,0.0,0.0,0.0,0.0,0.0,0.0,0.0,0.0,0.0,0.0,0.0,0.0,0.0,0.0,0.0,0.0,0.0,0.0,0.0,0.0,0.0,0.0,0.0,0.0,0.0,0.0,0.0,0.0,0.0,0.0,0.0,0.0,0.0,0.0,0.0,0.0,0.0,0.0,0.0,0.0,0.0,0.0,0.0,0.0,0.0,0.0,0.0,0.0,0.0,0.0,0.0,0.0,0.0,0.0,0.0,0.0,0.0,0.0,0.0,0.0,0.0,0.0,0.0,0.0,0.0,0.0,0.0,0.0,0.0,0.0,0.0,0.0,0.0,0.0,0.0,0.0,0.0,0.0,0.0,0.0,0.0,0.0,0.0,0.0,0.0,0.0,0.0,0.0,0.0,0.0,0.0,0.0,0.0,0.0,0.0,0.0,0.0,0.0,0.0,0.0,0.0,0.0,0.0,0.0,0.0,0.0,0.0,0.0,0.0,0.0,0.0,0.0,0.0,0.0,0.0,0.0,0.0,0.0,0.0,0.0,0.0,0.0,0.0,0.0,0.0,0.0,0.0,0.0,0.0,0.0,0.0,0.0,0.0,0.0,0.0,0.0,0.0,0.0,0.0,0.0,0.0,0.0,0.0,0.0,0.0,0.0,0.0,0.0,0.0,0.0,0.0,0.0,0.0,0.0,0.0,0.0,0.0,0.0,0.0,0.0,0.0,0.0,0.0,0.0,0.0,0.0,0.0,0.0,0.0,0.0,0.0,0.0,0.0,0.0,0.0,0.0,0.0,0.0,0.0,0.0,0.0,0.0,0.0,0.0,0.0,0.0,0.0,0.0,0.0,0.0,0.0,0.0,0.0,0.0,0.0,0.0,0.0,0.0,0.0,0.0,0.0,0.0,0.0,0.0,0.0,0.0,0.0,0.0,0.0,0.0,0.0,0.0,0.0,0.0,0.0,0.0,0.0,0.0,0.0,0.0,0.0,0.0,0.0,0.0,0.0,0.0,0.0,0.0,0.0,0.0,0.0,0.0,0.0,0.0,0.0,0.0,0.0,0.0,0.0,0.0,0.0,0.0,0.0,0.0,0.0,0.0,0.0,0.0,0.0,0.0,0.0,0.0,0.0,0.0,0.0,0.0,0.0,0.0,0.0,0.0,0.0,0.0,0.0,0.0,0.0,0.0,-1.8018,0.0,0.0,0.0,0.0,0.0,0.0,0.0,0.0,0.0,0.0,0.0,0.0,0.0,0.0,0.0,0.0,0.0,0.0,0.0,0.0,0.0,0.0,0.0,0.0,0.0,0.0,0.0,0.0,0.0,0.0,0.0,0.0,0.0,0.0,0.0,0.0,0.0,0.0,0.0,0.0,0.0,0.0,0.0,0.0,0.0,0.0,0.0,0.0,0.0,0.0,0.0,0.0,0.0,0.0,0.0,0.0,0.0,0.0,0.0,0.0,0.0,0.0,0.0,0.0,0.0,0.0,0.0,0.0,0.0,0.0,0.0,0.0,0.0,0.0,0.0,0.0,0.0,0.0,0.0,0.0,0.0,0.0,0.0,0.0,0.0,0.0,0.0,0.0,0.0,0.0,0.0,0.0,0.0,0.0,0.0,0.0,0.0,0.0,0.0,0.0,0.0,0.0,0.0,0.0,0.0,0.0,0.0,0.0,0.0,0.0,0.0,0.0,0.0,0.0,0.0,0.0,-1.8334,0.0,0.0,0.0,0.0,0.0,0.0,0.0,0.0,0.0,0.0,0.0,0.0,0.0,0.0,0.0,0.0,0.0,0.0,0.0,0.0,0.0,0.0,0.0,0.0,0.0,0.0,0.0,0.0,0.0,0.0,0.0,0.0,0.0,0.0,0.0,0.0,0.0,0.0,0.0,0.0,0.0,0.0,0.0,0.0,0.0,0.0,0.0,0.0,0.0,0.0,0.0,0.0,0.0,0.0,0.0,0.0,0.0,0.0,0.0,0.0,0.0,0.0,0.0,0.0,0.0,0.0,0.0,0.0,0.0,0.0,0.0,0.0,0.0,0.0,0.0,0.0,0.0,0.0,0.0,0.0,0.0,0.0,0.0,0.0,0.0,0.0,0.0,0.0,0.0,0.0,0.0,0.0,0.0,0.0,0.0,0.0,0.0,0.0,0.0,0.0,0.0,0.0,0.0,0.0,0.0,0.0,0.0,0.0,-1.803,-1.8061,-1.8121,-1.8121,-1.8027,-1.7799,-1.8027,-1.81,-1.804,-1.8288,0.0,0.0,0.0,0.0,0.0,0.0,0.0,0.0,0.0,0.0,0.0,0.0,0.0,0.0,0.0,0.0,0.0,0.0,0.0,0.0,0.0,0.0,0.0,0.0,0.0,0.0,0.0,0.0,0.0,0.0,0.0,0.0,0.0,0.0,0.0,0.0,0.0,0.0,0.0,0.0,0.0,0.0,0.0,0.0,0.0,0.0,0.0,0.0,0.0,0.0,0.0,0.0,0.0,0.0,0.0,0.0,0.0,0.0,0.0,0.0,0.0,0.0,0.0,0.0,0.0,0.0,0.0,0.0,0.0,0.0,0.0,0.0,0.0,0.0,0.0,0.0,0.0,0.0,0.0,0.0,0.0,0.0,0.0,0.0,0.0,0.0,-1.905,-1.8149,0.0,0.0,0.0,0.0,0.0,0.0,0.0,0.0,0.0,0.0,0.0,0.0,0.0,-1.7621,-1.7426,-1.7426,-1.7566,-1.7846,-1.7846,-1.8,-1.8272,-1.8272,-1.8272,-1.8223,-1.8272,0.0,-1.7768,-1.7768,0.0,0.0,0.0,0.0,0.0,0.0,0.0,0.0,0.0,0.0,0.0,0.0,0.0,0.0,0.0,0.0,0.0,0.0,0.0,0.0,0.0,0.0,0.0,0.0,0.0,0.0,0.0,0.0,0.0,0.0,0.0,0.0,0.0,0.0,0.0,0.0,0.0,0.0,0.0,0.0,0.0,0.0,0.0,0.0,0.0,0.0,0.0,0.0,0.0,0.0,0.0,0.0,0.0,0.0,0.0,0.0,0.0,0.0,0.0,0.0,0.0,0.0,0.0,0.0,0.0,0.0,0.0,0.0,0.0,0.0,0.0,0.0,0.0,0.0,0.0,0.0,0.0,0.0,0.0,0.0,0.0,0.0,0.0,0.0,0.0,-1.8611,-1.811,-1.7707,-1.7761,-1.7761,0.0,0.0,0.0,0.0,0.0,0.0,0.0,0.0,0.0,-1.7746,-1.7753,-1.7794,-1.7874,-1.7874,-1.7947,-1.8094,-1.8277,-1.8438,-1.8584,-1.8767,-1.8847,-1.884,-1.8657,-1.8465,-1.8341,-1.826,-1.8369,-1.8565,0.0,0.0,0.0,0.0,-1.8743,-1.8781,0.0,0.0,0.0,0.0,0.0,0.0,0.0,0.0,0.0,0.0,0.0,0.0,0.0,0.0,0.0,0.0,0.0,0.0,0.0,0.0,0.0,0.0,0.0,0.0,0.0,0.0,0.0,0.0,0.0,0.0,0.0,0.0,0.0,0.0,0.0,0.0,0.0,0.0,0.0,0.0,0.0,0.0,0.0,0.0,0.0,0.0,0.0,0.0,0.0,0.0,0.0,0.0,0.0,0.0,0.0,0.0,0.0,0.0,0.0,0.0,0.0,0.0,0.0,0.0,0.0,0.0,0.0,0.0,0.0,0.0,0.0,0.0,0.0,0.0,0.0,0.0,0.0,-1.7426,-1.7279,-1.7279,-1.7481,-1.7527,0.0,0.0,0.0,0.0,0.0,0.0,-1.7574,-1.7574,-1.7728,-1.8057,-1.8064,-1.8218,-1.8547,-1.8547,-1.8591,-1.8679,-1.8921,-1.9081,-1.9169,-1.9411,-1.952,-1.9506,-1.9264,-1.9162,-1.9118,-1.8748,-1.8615,-1.8631,-1.8808,-1.8758,-1.8644,-1.873,-1.8816,-1.8863,0.0,0.0,0.0,0.0,0.0,0.0,0.0,0.0,0.0,0.0,0.0,0.0,0.0,0.0,0.0,0.0,0.0,0.0,0.0,0.0,0.0,0.0,0.0,0.0,0.0,0.0,0.0,0.0,0.0,0.0,0.0,0.0,0.0,0.0,0.0,0.0,0.0,0.0,0.0,0.0,0.0,0.0,0.0,0.0,0.0,0.0,0.0,0.0,0.0,0.0,0.0,0.0,0.0,0.0,0.0,0.0,0.0,0.0,0.0,0.0,0.0,0.0,0.0,0.0,0.0,0.0,0.0,0.0,0.0,0.0,0.0,0.0,0.0,0.0,0.0,0.0,0.0,0.0,0.0,-1.7279,-1.7333,0.0,0.0,0.0,0.0,-1.7765,-1.7786,-1.7925,-1.824,-1.8255,-1.8401,-1.873,-1.8738,-1.8899,-1.9272,-1.9228,-1.9434,-1.9742,-1.9757,-1.9872,-2.011,-2.0124,-2.0132,-2.0132,-2.0117,-2.011,-2.0015,-1.8818,-1.8447,-1.8693,-1.8693,-1.8875,-1.9056,-1.8811,-1.886,-1.9048,0.0,0.0,0.0,0.0,0.0,0.0,0.0,0.0,0.0,0.0,0.0,0.0,0.0,0.0,0.0,0.0,0.0,0.0,0.0,0.0,0.0,0.0,0.0,0.0,0.0,0.0,0.0,0.0,0.0,0.0,0.0,0.0,0.0,0.0,0.0,0.0,0.0,0.0,0.0,0.0,0.0,0.0,0.0,0.0,0.0,0.0,0.0,0.0,0.0,0.0,0.0,0.0,0.0,0.0,0.0,0.0,0.0,0.0,0.0,0.0,0.0,0.0,0.0,0.0,0.0,0.0,0.0,0.0,0.0,0.0,0.0,0.0,0.0,0.0,0.0,0.0,0.0,0.0,0.0,-1.7279,-1.7468,0.0,-1.764,-1.783,-1.7999,-1.8116,-1.8321,-1.8496,-1.8613,-1.8811,-1.9074,-1.9403,-1.9463,-1.9572,-1.9894,-2.0106,-2.0267,-2.0384,-2.0808,-2.1064,-2.1181,-2.1393,-2.1379,-2.1167,-2.0955,-2.0742,-2.0494,-1.9828,-1.9583,-1.9657,-1.9857,-1.9985,-2.0062,-2.0105,-2.0198,-2.0249,0.0,0.0,0.0,0.0,0.0,0.0,0.0,0.0,0.0,0.0,0.0,0.0,0.0,0.0,0.0,0.0,0.0,0.0,0.0,0.0,0.0,0.0,0.0,0.0,0.0,0.0,0.0,0.0,0.0,0.0,0.0,0.0,0.0,0.0,0.0,0.0,0.0,0.0,0.0,0.0,0.0,0.0,-2.3373,0.0,0.0,0.0,0.0,0.0,0.0,0.0,0.0,0.0,0.0,0.0,0.0,0.0,0.0,0.0,0.0,0.0,0.0,0.0,0.0,0.0,0.0,0.0,0.0,0.0,0.0,0.0,0.0,0.0,0.0,0.0,0.0,0.0,0.0,0.0,-1.749,-1.76,-1.7947,-1.8145,-1.8145,-1.8438,-1.8672,-1.8789,-1.8994,-1.9213,-1.9433,-1.9645,-2.0011,-2.0615,-2.0472,-2.0618,-2.1035,-2.1159,-2.1218,-2.1218,-2.1657,-2.1862,-2.1869,-2.2089,-2.2067,-2.1854,-2.1635,-2.1415,-2.1196,-2.0984,-2.0932,-2.0965,-2.0617,-2.0476,-2.0505,-2.0594,-2.0647,-2.0647,0.0,0.0,0.0,0.0,0.0,0.0,0.0,0.0,0.0,0.0,0.0,0.0,0.0,0.0,0.0,0.0,0.0,0.0,0.0,0.0,0.0,0.0,0.0,0.0,0.0,0.0,0.0,0.0,0.0,0.0,0.0,0.0,0.0,0.0,0.0,0.0,0.0,0.0,0.0,0.0,0.0,0.0,-2.312,0.0,0.0,0.0,0.0,0.0,0.0,0.0,0.0,0.0,0.0,0.0,0.0,0.0,0.0,0.0,0.0,0.0,0.0,0.0,0.0,0.0,0.0,0.0,0.0,0.0,0.0,0.0,0.0,0.0,0.0,0.0,0.0,0.0,-1.7816,-1.783,-1.7962,-1.8277,-1.8613,-1.8818,-1.8818,-1.9133,-1.9469,-1.9837,-1.9889,-2.012,-2.0735,-2.0772,-2.1211,-2.2154,-2.1876,-2.2001,-2.2601,-2.2337,-2.2198,-2.2198,-2.2206,-2.2213,-2.2213,-2.2213,-2.2206,-2.2198,-2.2198,-2.2191,-2.2184,-2.2184,-2.2356,-2.2401,-2.0891,-2.0281,-2.0281,-2.0267,-2.0267,-2.0267,0.0,0.0,0.0,0.0,0.0,0.0,0.0,0.0,0.0,0.0,0.0,0.0,0.0,0.0,0.0,0.0,0.0,0.0,0.0,0.0,0.0,0.0,0.0,0.0,0.0,0.0,0.0,0.0,0.0,0.0,0.0,0.0,0.0,0.0,0.0,0.0,0.0,0.0,0.0,0.0,0.0,0.0,-2.3787,0.0,0.0,0.0,0.0,0.0,0.0,0.0,0.0,0.0,0.0,0.0,0.0,0.0,0.0,0.0,0.0,0.0,0.0,0.0,0.0,0.0,0.0,0.0,0.0,0.0,0.0,0.0,0.0,0.0,0.0,0.0,0.0,-1.8357,-1.7882,-1.8218,-1.8555,-1.8642,-1.9155,-1.9551,-1.9551,-2.0208,-2.0713,-2.0801,-2.1452,-2.1818,-2.1789,-2.1986,-2.2125,-2.2184,-2.2096,-2.2132,-2.2301,-2.2432,-2.2506,-2.2506,-2.274,-2.2857,-2.2857,-2.2857,-2.2725,-2.2506,-2.2506,-2.2381,-2.2184,-2.2184,-2.2244,-2.2297,-2.2047,-2.2086,-2.2219,-2.2199,-2.2226,-2.217,0.0,0.0,0.0,0.0,0.0,0.0,0.0,0.0,0.0,0.0,0.0,0.0,0.0,0.0,0.0,0.0,0.0,0.0,0.0,0.0,0.0,0.0,0.0,0.0,0.0,0.0,0.0,0.0,0.0,0.0,0.0,0.0,0.0,0.0,0.0,0.0,0.0,0.0,0.0,0.0,0.0,0.0,-2.4321,-2.3663,-2.3497,-2.3609,-2.3247,-2.3178,-2.3232,-2.3144,0.0,0.0,0.0,0.0,0.0,0.0,0.0,0.0,0.0,0.0,0.0,0.0,0.0,0.0,0.0,0.0,0.0,0.0,0.0,0.0,0.0,0.0,0.0,0.0,-1.8994,-1.9462,-1.9089,-1.9242,-1.9499,-1.9769,-2.0377,-2.0823,-2.0947,-2.1591,-2.195,-2.1811,-2.2308,-2.255,-2.2374,-2.2528,-2.2667,-2.2769,-2.2645,-2.2637,-2.2776,-2.2813,-2.2828,-2.2828,-2.3018,-2.3106,-2.3106,-2.3106,-2.3003,-2.2828,-2.2828,-2.2732,-2.2571,-2.2571,-2.2632,-2.2771,0.0,0.0,0.0,0.0,-2.2567,-2.2379,0.0,0.0,0.0,0.0,0.0,0.0,0.0,0.0,0.0,0.0,0.0,0.0,0.0,0.0,0.0,0.0,0.0,0.0,0.0,0.0,0.0,0.0,0.0,0.0,0.0,0.0,0.0,0.0,0.0,0.0,0.0,0.0,0.0,0.0,0.0,0.0,0.0,0.0,0.0,0.0,0.0,0.0,-2.4845,-2.4134,-2.4137,-2.4436,-2.3545,-2.3398,-2.3573,-2.3285,0.0,0.0,0.0,0.0,0.0,0.0,0.0,0.0,0.0,0.0,0.0,0.0,0.0,0.0,0.0,0.0,0.0,0.0,0.0,0.0,0.0,0.0,0.0,0.0,-2.0033,-2.0859,-2.0925,-2.0694,-2.0801,-2.1313,-2.1913,-2.2374,-2.2601,-2.2952,-2.3025,-2.2703,-2.2747,-2.2769,-2.2732,0.0,0.0,0.0,0.0,-2.3245,-2.3537,-2.3252,-2.3106,-2.3106,-2.3106,-2.3106,-2.3106,-2.3106,-2.3106,-2.3106,-2.3106,-2.3106,-2.3106,-2.3106,-2.33,-2.3482,-2.2704,-2.2393,-2.2416,-2.2416,-2.2231,-2.1987,0.0,0.0,0.0,0.0,0.0,0.0,0.0,0.0,0.0,0.0,0.0,0.0,0.0,0.0,0.0,0.0,0.0,0.0,0.0,0.0,0.0,0.0,0.0,0.0,0.0,0.0,0.0,0.0,0.0,0.0,0.0,0.0,0.0,0.0,0.0,0.0,0.0,0.0,0.0,0.0,0.0,0.0,-2.5448,-2.46,-2.448,-2.4659,-2.4123,-2.4063,-2.4235,-2.3831,-2.3537,-2.3416,-2.3416,0.0,0.0,0.0,0.0,0.0,0.0,0.0,0.0,0.0,0.0,0.0,0.0,0.0,0.0,0.0,0.0,0.0,0.0,0.0,0.0,-2.0274,-2.0998,-2.1686,-2.2184,-2.2652,-2.2798,-2.2396,-2.2689,-2.2849,-2.2645,-2.3157,-2.3362,-2.304,-2.3501,-2.3684,-2.342,-2.3413,-2.3347,-2.3208,-2.3142,-2.3135,-2.3201,-2.3142,-2.3106,-2.3106,-2.3106,0.0,-2.3106,-2.3106,-2.3106,-2.3106,-2.3106,-2.3106,-2.3106,-2.3106,-2.3168,-2.3256,-2.3604,-2.3704,-2.376,-2.376,-2.3661,-2.3599,0.0,0.0,0.0,0.0,0.0,0.0,0.0,0.0,0.0,0.0,0.0,0.0,0.0,0.0,0.0,0.0,0.0,0.0,0.0,0.0,0.0,0.0,0.0,0.0,0.0,0.0,0.0,0.0,0.0,0.0,0.0,0.0,0.0,0.0,0.0,0.0,0.0,0.0,0.0,0.0,0.0,0.0,-2.6743,-2.5282,-2.5073,-2.5374,-2.4421,-2.4272,-2.4444,-2.3948,-2.3711,-2.3667,-2.3667,-2.3493,-2.3319,0.0,0.0,0.0,0.0,0.0,0.0,0.0,0.0,0.0,0.0,0.0,0.0,0.0,0.0,-1.9133,0.0,0.0,-2.1079,-2.1401,-2.2264,-2.2996,-2.331,-2.3632,-2.3654,-2.3164,-2.3398,-2.353,-2.3369,-2.3647,-2.3706,-2.3376,-2.3654,-2.3698,-2.3369,-2.3354,-2.3281,-2.3113,-2.3106,-2.3106,-2.3106,-2.3106,-2.3106,-2.3106,-2.3106,-2.3106,-2.3106,-2.3106,-2.3106,-2.3106,-2.3106,-2.3106,-2.3106,-2.33,-2.3362,-2.3402,-2.3917,-2.3871,-2.3665,-2.3968,-2.3799,-2.3345,0.0,0.0,0.0,0.0,0.0,0.0,0.0,0.0,0.0,0.0,0.0,0.0,0.0,0.0,0.0,0.0,0.0,0.0,0.0,0.0,0.0,0.0,0.0,0.0,0.0,0.0,0.0,0.0,0.0,0.0,0.0,0.0,0.0,0.0,0.0,0.0,0.0,0.0,0.0,0.0,0.0,0.0,-2.7978,-2.6112,-2.5717,-2.6087,-2.4811,-2.4536,-2.4688,-2.4109,-2.3927,-2.3884,-2.3884,-2.3711,-2.3557,-2.3602,-2.3447,0.0,0.0,0.0,0.0,0.0,0.0,0.0,0.0,0.0,-1.8657,-1.8921,-1.9389,-1.9901,-2.042,-2.1533,-2.2403,-2.2535,-2.3413,-2.4101,-2.4166,-2.4174,-2.4035,-2.364,-2.3881,-2.4057,-2.3991,-2.3991,-2.3852,-2.353,-2.3501,-2.3384,-2.312,-2.3106,-2.3106,-2.3106,-2.3106,-2.3106,-2.3106,-2.3106,-2.3106,-2.3106,-2.3106,-2.3106,-2.3106,-2.3106,-2.3106,-2.3106,-2.3106,-2.3106,-2.3106,-2.3417,-2.3487,-2.3549,-2.386,-2.3611,-2.3175,-2.386,-2.3563,-2.2963,0.0,0.0,0.0,0.0,0.0,0.0,0.0,0.0,0.0,0.0,0.0,0.0,0.0,0.0,0.0,0.0,0.0,0.0,0.0,0.0,0.0,0.0,0.0,0.0,0.0,0.0,0.0,0.0,0.0,0.0,0.0,0.0,0.0,0.0,0.0,0.0,0.0,0.0,0.0,0.0,0.0,0.0,-2.8276,-2.69,-2.6368,-2.6353,-2.5604,-2.5497,-2.5633,-2.4732,-2.4282,-2.4163,-2.4163,-2.398,-2.3781,-2.3994,0.0,-2.4013,-2.4216,-2.2852,-2.0957,-1.8859,-1.8587,-1.883,0.0,0.0,-1.9661,-1.9698,-2.0603,-2.1445,-2.1518,-2.2337,-2.3193,-2.3779,-2.3991,-2.4181,-2.4474,-2.4518,-2.4284,-2.3669,-2.3881,-2.3969,-2.3676,-2.3647,-2.3515,-2.3186,-2.3164,-2.3142,-2.3106,-2.3106,-2.3106,-2.3106,-2.3106,-2.3106,-2.3106,-2.3106,-2.3106,-2.3106,-2.3106,-2.3106,-2.3106,-2.3106,-2.3106,-2.3106,-2.3106,-2.3106,-2.3106,-2.3168,-2.3175,-2.3168,-2.3549,-2.3425,-2.3175,-2.386,-2.4023,-2.3931,0.0,0.0,0.0,0.0,0.0,0.0,0.0,0.0,0.0,0.0,0.0,0.0,0.0,0.0,0.0,0.0,0.0,0.0,0.0,0.0,0.0,0.0,0.0,0.0,0.0,0.0,0.0,0.0,0.0,0.0,0.0,0.0,0.0,0.0,0.0,0.0,0.0,0.0,0.0,0.0,0.0,0.0,-2.8188,-2.6992,-2.6445,-2.6263,-2.5831,-2.5666,0.0,0.0,-2.4715,-2.4728,-2.4461,-2.4283,-2.4219,-2.4321,-2.4326,0.0,-2.2935,-2.2205,0.0,0.0,-1.8979,-1.9403,-1.9586,-1.9989,-2.0486,-2.1057,-2.1606,-2.2147,-2.2703,-2.3281,-2.383,0.0,-2.4525,-2.4627,-2.4576,-2.4408,-2.4115,-2.3654,-2.3545,-2.3464,-2.3325,-2.331,-2.3252,-2.312,-2.3106,-2.3193,-2.3384,-2.3391,-2.3479,-2.3669,-2.3676,-2.3676,-2.3676,-2.3676,-2.3676,-2.3676,-2.3676,-2.3574,-2.3391,-2.3391,-2.3288,-2.3106,-2.3106,-2.3106,-2.3106,-2.3106,-2.3106,-2.3106,-2.323,-2.323,-2.3168,-2.4046,-2.417,-2.386,0.0,0.0,0.0,0.0,0.0,0.0,0.0,0.0,0.0,0.0,0.0,0.0,0.0,0.0,0.0,0.0,0.0,0.0,0.0,0.0,0.0,0.0,0.0,0.0,0.0,0.0,0.0,0.0,0.0,0.0,0.0,0.0,0.0,0.0,0.0,0.0,0.0,0.0,0.0,0.0,0.0,0.0,-2.7746,-2.6754,-2.6244,-2.5987,-2.5791,-2.5671,0.0,0.0,-2.5177,-2.5303,-2.4885,-2.4788,-2.4761,-2.4746,-2.4855,-2.4497,-2.25,0.0,0.0,-1.9971,-1.9813,-2.0245,-2.0567,-2.0896,-2.135,-2.214,-2.2447,-2.2806,-2.3588,-2.4071,-2.443,-2.4664,-2.4973,-2.498,-2.4496,-2.4232,-2.3925,-2.3508,-2.3252,-2.3106,-2.3106,-2.3106,-2.3142,-2.3237,-2.3245,-2.3384,-2.3713,-2.3727,-2.3837,-2.4071,-2.4086,-2.4086,-2.4086,-2.4086,-2.4086,-2.4086,-2.4086,-2.3954,-2.3727,-2.364,-2.342,-2.3106,-2.3106,-2.3106,-2.3106,-2.3106,-2.3106,-2.3106,-2.3106,-2.3106,-2.3168,-2.4046,-2.3984,-2.3549,0.0,0.0,0.0,0.0,0.0,0.0,0.0,0.0,0.0,0.0,0.0,0.0,0.0,0.0,0.0,0.0,0.0,0.0,0.0,0.0,0.0,0.0,0.0,0.0,0.0,0.0,0.0,0.0,0.0,0.0,0.0,0.0,0.0,0.0,0.0,0.0,0.0,0.0,0.0,0.0,0.0,0.0,-2.6839,-2.6166,-2.577,-2.5508,-2.5518,0.0,0.0,0.0,-2.5638,-2.5809,-2.5548,-2.5467,0.0,-2.5371,-2.5838,0.0,0.0,0.0,-2.3148,-2.1527,-2.1152,-2.1247,-2.1576,-2.1906,-2.2228,-2.2542,-2.3113,-2.3654,-2.4005,-2.4591,-2.5097,-2.5105,-2.5119,-2.4899,-2.4188,-2.4093,-2.3845,-2.3201,-2.3113,-2.3106,0.0,-2.3106,-2.3237,-2.3552,-2.3581,-2.372,-2.4049,-2.4064,-2.4071,-2.4086,-2.4086,-2.4086,-2.4086,-2.4086,-2.4086,-2.4086,-2.4086,-2.4079,-2.4057,-2.3742,-2.342,-2.3106,-2.3106,-2.3106,-2.3106,-2.3106,-2.3106,-2.3106,-2.3106,-2.3106,-2.3168,-2.3487,-2.3425,-2.3106,0.0,0.0,0.0,0.0,0.0,0.0,0.0,0.0,0.0,0.0,0.0,0.0,0.0,0.0,0.0,0.0,0.0,0.0,0.0,0.0,0.0,0.0,0.0,0.0,0.0,0.0,0.0,0.0,0.0,0.0,0.0,0.0,0.0,0.0,0.0,0.0,0.0,0.0,0.0,0.0,0.0,0.0,-2.6197,-2.5633,-2.5362,-2.5314,0.0,0.0,0.0,0.0,0.0,0.0,-2.567,0.0,0.0,-2.5975,-2.5829,-2.5245,0.0,0.0,-2.303,-2.1596,-2.1679,-2.2176,-2.2286,-2.2564,-2.2886,-2.3201,-2.3442,-2.3764,-2.4305,-2.465,-2.487,-2.509,-2.5127,-2.4899,-2.4174,-2.4086,-2.3837,-2.3186,-2.3106,0.0,0.0,0.0,0.0,-2.3588,-2.3793,-2.4064,-2.4386,-2.4408,-2.4503,-2.4789,-2.473,-2.473,-2.473,-2.473,-2.473,-2.473,-2.451,-2.4408,-2.4393,-2.4064,-2.3742,-2.3435,-2.3435,-2.331,-2.3106,-2.3106,-2.3106,-2.3106,-2.3106,-2.3106,-2.3106,-2.3238,-2.3355,-2.3425,0.0,0.0,0.0,0.0,0.0,0.0,0.0,0.0,0.0,0.0,0.0,0.0,0.0,0.0,0.0,0.0,0.0,0.0,0.0,0.0,0.0,0.0,0.0,0.0,0.0,0.0,0.0,0.0,0.0,0.0,0.0,0.0,0.0,0.0,0.0,0.0,0.0,0.0,0.0,0.0,0.0,0.0,-2.5595,-2.5106,-2.5044,0.0,0.0,0.0,0.0,0.0,0.0,0.0,0.0,-2.5936,-2.5996,-2.6457,-2.5903,-2.4999,-2.4481,-2.3948,-2.3263,-2.232,-2.2432,-2.2828,-2.2945,-2.2952,-2.3025,-2.3354,-2.364,-2.4036,-2.4585,-2.469,-2.484,-2.5291,-2.5041,-2.4562,-2.4145,-2.4086,-2.3837,-2.3186,-2.3208,-2.3362,0.0,0.0,0.0,-2.3947,-2.4137,-2.4401,-2.473,-2.4811,-2.4907,-2.5119,-2.5127,-2.5127,-2.5127,-2.5127,-2.5127,-2.5119,-2.4914,-2.4753,-2.4562,-2.4349,-2.4079,-2.3771,-2.3771,-2.3654,-2.3457,-2.3457,-2.3457,-2.3457,-2.3583,-2.3647,-2.3647,-2.378,-2.397,-2.4129,0.0,0.0,0.0,0.0,0.0,0.0,0.0,0.0,0.0,0.0,0.0,0.0,0.0,0.0,0.0,0.0,0.0,0.0,0.0,0.0,0.0,0.0,0.0,0.0,0.0,0.0,0.0,0.0,0.0,0.0,0.0,0.0,0.0,0.0,0.0,0.0,0.0,0.0,0.0,0.0,0.0,0.0,-2.5106,-2.4662,0.0,0.0,0.0,0.0,0.0,0.0,0.0,0.0,0.0,0.0,-2.628,-2.6818,-2.6191,-2.535,-2.5634,-2.4852,-2.3899,-2.3669,-2.3362,-2.3208,-2.3501,-2.3084,-2.2703,-2.3058,-2.378,-2.4506,0.0,0.0,-2.5092,-2.5651,-2.4826,-2.4071,-2.4035,-2.4064,-2.3837,0.0,0.0,0.0,0.0,0.0,0.0,-2.4591,0.0,-2.473,-2.5105,-2.5127,-2.5127,-2.5127,-2.5127,-2.5127,-2.5127,-2.5127,-2.5127,-2.5127,-2.5127,-2.4958,-2.4665,-2.4665,-2.4415,-2.4108,-2.4108,-2.4101,-2.4086,-2.4086,-2.4086,-2.4151,-2.4476,-2.454,-2.4605,-2.5009,-2.5138,-2.4982,0.0,0.0,0.0,0.0,0.0,0.0,0.0,0.0,0.0,0.0,0.0,0.0,0.0,0.0,0.0,0.0,0.0,0.0,0.0,0.0,0.0,0.0,0.0,0.0,0.0,0.0,0.0,0.0,0.0,0.0,0.0,0.0,0.0,0.0,0.0,0.0,0.0,0.0,0.0,0.0,0.0,0.0,-2.4662,0.0,0.0,0.0,0.0,0.0,0.0,0.0,0.0,0.0,0.0,0.0,-2.6779,-2.6943,-2.6773,-2.6425,-2.5849,-2.5163,-2.4508,-2.3788,-2.3537,-2.3427,-2.3274,-2.2915,-2.2815,-2.3548,-2.3857,-2.4142,0.0,0.0,0.0,-2.3908,-2.3956,0.0,-2.3427,-2.3779,0.0,-2.3186,0.0,-2.3691,-2.394,-2.4327,0.0,0.0,-2.4995,-2.5031,-2.5119,-2.5127,-2.5127,-2.5127,-2.5127,-2.5127,-2.5127,-2.5127,-2.5127,-2.5127,-2.5127,-2.5083,-2.4995,-2.4995,-2.4826,-2.4444,-2.4444,-2.4305,-2.4086,-2.4086,-2.4086,-2.4086,-2.4209,-2.4216,-2.4209,-2.4346,-2.454,-2.4648,0.0,0.0,0.0,0.0,0.0,0.0,0.0,0.0,0.0,0.0,0.0,0.0,0.0,0.0,0.0,0.0,0.0,0.0,0.0,0.0,0.0,0.0,0.0,0.0,0.0,0.0,0.0,0.0,0.0,0.0,0.0,0.0,0.0,0.0,0.0,0.0,0.0,0.0,0.0,0.0,0.0,0.0,0.0,0.0,0.0,0.0,0.0,0.0,0.0,0.0,0.0,-2.63,-2.6052,-2.6497,-2.7194,-2.7288,0.0,-2.7178,-2.6384,-2.583,-2.5329,-2.4764,-2.452,-2.4442,-2.4641,-2.4238,-2.385,-2.4137,-2.4512,0.0,0.0,0.0,0.0,0.0,0.0,0.0,-2.3142,-2.3545,-2.3735,0.0,-2.361,0.0,-2.4269,-2.4591,-2.4929,0.0,-2.5127,-2.5127,-2.5127,-2.5127,-2.5127,-2.5127,-2.5127,-2.5127,-2.5127,-2.5127,-2.5127,-2.5127,-2.5127,-2.5127,-2.5127,-2.5127,-2.5024,-2.4848,-2.4848,-2.4679,-2.451,-2.451,-2.451,-2.4576,-2.4709,-2.4841,-2.4973,-2.4973,-2.5302,-2.5674,0.0,0.0,0.0,0.0,0.0,0.0,0.0,0.0,0.0,0.0,0.0,0.0,0.0,0.0,0.0,0.0,0.0,0.0,0.0,0.0,0.0,0.0,0.0,0.0,0.0,0.0,0.0,0.0,0.0,0.0,0.0,0.0,0.0,0.0,0.0,0.0,0.0,0.0,0.0,0.0,0.0,0.0,0.0,0.0,0.0,0.0,0.0,0.0,0.0,0.0,-2.5411,-2.617,-2.5832,-2.6574,-2.7576,-2.7604,-2.7841,-2.7967,-2.7277,-2.6665,-2.6303,-2.6272,-2.5786,-2.549,-2.6436,-2.5835,-2.4996,-2.4791,0.0,-2.5467,-2.4425,0.0,-2.423,-2.3773,0.0,-2.2843,-2.2945,-2.3303,-2.353,-2.353,-2.3859,-2.4188,-2.4474,-2.4907,-2.5127,-2.5127,-2.5127,-2.5127,-2.5127,-2.5127,-2.5127,-2.5127,-2.5127,-2.5127,-2.5127,-2.5127,-2.5127,-2.5127,-2.5127,-2.5127,-2.5127,-2.5127,-2.5127,-2.5127,-2.5127,-2.5127,-2.5127,-2.5127,-2.5127,-2.5127,-2.5397,-2.5734,-2.5936,-2.6003,-2.6473,-2.6894,0.0,0.0,0.0,0.0,0.0,0.0,0.0,0.0,0.0,0.0,0.0,0.0,0.0,0.0,0.0,0.0,0.0,0.0,0.0,0.0,0.0,0.0,0.0,0.0,0.0,0.0,0.0,0.0,0.0,0.0,0.0,0.0,0.0,0.0,0.0,0.0,0.0,0.0,0.0,0.0,0.0,0.0,0.0,0.0,0.0,0.0,0.0,0.0,0.0,0.0,-2.53,-2.6123,-2.5635,-2.6844,-2.8328,-2.7366,-2.8373,-2.9613,-2.8683,-2.7574,-2.684,-2.7516,-2.6088,-2.4807,-2.5671,-2.5068,0.0,0.0,0.0,-2.5243,-2.5025,-2.5314,0.0,-2.291,0.0,0.0,0.0,0.0,-2.3193,0.0,0.0,0.0,0.0,0.0,0.0,0.0,0.0,-2.5127,-2.5127,-2.5127,-2.5127,-2.5127,-2.5127,-2.5127,-2.5127,-2.5127,-2.5127,-2.5127,-2.5127,-2.5127,-2.5127,-2.5127,-2.5127,-2.5127,-2.5127,-2.5127,-2.5127,-2.5127,-2.5127,-2.5127,-2.5187,-2.5194,-2.5329,-2.5599,-2.5801,-2.5861,0.0,0.0,0.0,0.0,0.0,0.0,0.0,0.0,0.0,0.0,0.0,0.0,0.0,0.0,0.0,0.0,0.0,0.0,0.0,0.0,0.0,0.0,0.0,0.0,0.0,0.0,0.0,0.0,0.0,0.0,0.0,0.0,0.0,0.0,0.0,0.0,0.0,0.0,0.0,0.0,0.0,0.0,0.0,0.0,0.0,0.0,0.0,0.0,0.0,0.0,-2.5197,-2.5987,-2.5573,-2.6923,-2.8506,-2.7513,-2.88,-3.0258,-2.8803,-2.8113,-2.7926,-2.8306,-2.7201,-2.6177,-2.6888,0.0,0.0,0.0,0.0,-2.5618,-2.4986,0.0,0.0,0.0,0.0,0.0,0.0,0.0,0.0,0.0,0.0,0.0,0.0,0.0,0.0,0.0,0.0,-2.5127,-2.5127,-2.5127,-2.5127,-2.5127,-2.5127,-2.5127,-2.5127,-2.5127,-2.5127,-2.5127,-2.5127,-2.5127,-2.5127,-2.5127,-2.5127,-2.5127,-2.5127,-2.5127,-2.5127,-2.5127,-2.5127,-2.5127,-2.5127,-2.5194,-2.5397,-2.5532,-2.5861,-2.613,0.0,0.0,0.0,0.0,0.0,0.0,0.0,0.0,0.0,0.0,0.0,0.0,0.0,0.0,0.0,0.0,0.0,0.0,0.0,0.0,0.0,0.0,0.0,0.0,0.0,0.0,0.0,0.0,0.0,0.0,0.0,0.0,0.0,0.0,0.0,0.0,0.0,0.0,0.0,0.0,0.0,0.0,0.0,0.0,0.0,0.0,0.0,0.0,0.0,0.0,-2.5078,-2.5716,-2.5638,-2.6976,-2.8436,-2.7716,-2.8992,-3.0257,-2.896,-2.8566,-2.8623,-2.8975,-2.8134,-2.7409,-2.8008,-2.7764,0.0,0.0,-2.6309,-2.5982,-2.4995,0.0,0.0,0.0,0.0,0.0,0.0,0.0,0.0,0.0,0.0,0.0,0.0,0.0,0.0,0.0,0.0,-2.5127,-2.5127,-2.5127,-2.5127,-2.5127,-2.5127,-2.5127,-2.5127,-2.5127,-2.5127,-2.5127,-2.5127,-2.5127,-2.5127,-2.5127,-2.5127,-2.5127,-2.5127,-2.5127,-2.5127,-2.5127,-2.5127,-2.5127,-2.5127,-2.5262,-2.5532,-2.5667,-2.5996,-2.6391,0.0,0.0,0.0,0.0,0.0,0.0,0.0,0.0,0.0,0.0,0.0,0.0,0.0,0.0,0.0,0.0,0.0,0.0,0.0,0.0,0.0,0.0,0.0,0.0,0.0,0.0,0.0,0.0,0.0,0.0,0.0,0.0,0.0,0.0,0.0,0.0,0.0,0.0,0.0,0.0,0.0,0.0,0.0,0.0,0.0,0.0,0.0,0.0,0.0,0.0,0.0,-2.5313,-2.5761,-2.6972,-2.8218,-2.8018,0.0,0.0,-3.018,-2.907,-2.8066,-2.9509,-2.8206,-2.6699,-2.7559,0.0,0.0,0.0,-2.6074,-2.5752,-2.5596,-2.5965,0.0,0.0,0.0,0.0,0.0,0.0,0.0,0.0,0.0,0.0,0.0,0.0,0.0,0.0,0.0,-2.5127,-2.5127,-2.5127,-2.5127,-2.5127,-2.5127,-2.5127,-2.5127,-2.5127,-2.5127,-2.5127,-2.5127,-2.5127,-2.5127,-2.5127,-2.5127,-2.5127,-2.5127,-2.5127,-2.5127,-2.5127,-2.5127,-2.5127,-2.5127,-2.5127,-2.5194,-2.5801,-2.5869,-2.5794,0.0,0.0,0.0,0.0,0.0,0.0,0.0,0.0,0.0,0.0,0.0,0.0,0.0,0.0,0.0,0.0,0.0,0.0,0.0,0.0,0.0,0.0,0.0,0.0,0.0,0.0,0.0,0.0,0.0,0.0,0.0,0.0,0.0,0.0,0.0,0.0,0.0,0.0,0.0,0.0,0.0,0.0,0.0,0.0,0.0,0.0,0.0,0.0,0.0,0.0,0.0,0.0,-2.574,-2.6532,0.0,0.0,-2.8111,-2.8664,-2.9485,-2.8633,-2.7752,-2.8942,-2.8207,-2.7237,-2.7176,0.0,0.0,-2.6281,-2.6084,-2.5868,-2.5732,-2.5967,-2.6163,0.0,0.0,0.0,0.0,0.0,0.0,0.0,0.0,0.0,0.0,0.0,0.0,0.0,0.0,-2.5127,-2.5127,-2.5127,-2.5127,-2.5127,-2.5127,-2.5127,-2.5127,-2.5127,-2.5127,-2.5127,-2.5127,-2.5127,-2.5127,-2.5127,-2.5127,-2.5127,-2.5127,-2.5127,-2.5127,-2.5127,-2.5127,-2.5127,-2.5127,-2.5127,-2.5194,-2.5869,-2.574,-2.5367,0.0,0.0,0.0,0.0,0.0,0.0,0.0,0.0,0.0,0.0,0.0,0.0,0.0,0.0,0.0,0.0,0.0,0.0,0.0,0.0,0.0,0.0,0.0,0.0,0.0,0.0,0.0,0.0,0.0,0.0,0.0,0.0,0.0,0.0,0.0,0.0,0.0,0.0,0.0,0.0,0.0,0.0,0.0,0.0,0.0,0.0,0.0,0.0,0.0,0.0,0.0,0.0,0.0,0.0,0.0,0.0,-2.7703,-2.7908,-2.879,-2.8223,-2.7548,-2.8234,-2.793,-2.7332,0.0,0.0,0.0,-2.616,-2.6052,-2.5917,-2.5732,-2.5868,-2.6064,0.0,0.0,0.0,0.0,0.0,0.0,0.0,0.0,0.0,0.0,0.0,0.0,0.0,0.0,-2.5127,-2.5127,-2.5127,-2.5127,-2.5127,-2.5127,-2.5127,-2.5127,-2.5127,-2.5127,-2.5127,-2.5517,-2.545,-2.5119,-2.5517,-2.545,-2.5127,-2.5127,-2.5127,-2.5127,-2.5127,-2.5068,-2.498,-2.498,-2.4921,-2.49,-2.5441,-2.5291,-2.4825,0.0,0.0,0.0,0.0,0.0,0.0,0.0,0.0,0.0,0.0,0.0,0.0,0.0,0.0,0.0,0.0,0.0,0.0,0.0,0.0,0.0,0.0,0.0,0.0,0.0,0.0,0.0,0.0,0.0,0.0,0.0,0.0,0.0,0.0,0.0,0.0,0.0,0.0,0.0,0.0,0.0,0.0,0.0,0.0,0.0,0.0,0.0,0.0,0.0,0.0,0.0,0.0,0.0,0.0,0.0,0.0,-2.7662,-2.7351,-2.8492,-2.8095,-2.745,-2.7723,-2.7282,-2.6685,0.0,0.0,0.0,-2.6052,-2.5868,-2.5693,-2.5693,-2.5693,-2.5879,-2.6318,0.0,0.0,0.0,0.0,0.0,0.0,0.0,0.0,0.0,0.0,0.0,0.0,0.0,0.0,-2.5127,-2.5127,-2.5127,-2.5127,-2.5127,-2.5127,-2.5127,-2.5127,-2.5127,-2.5127,-2.6435,-2.6368,-2.5119,-2.6494,-2.6368,-2.5127,-2.5127,-2.5127,-2.5127,-2.5127,-2.4936,-2.4643,-2.4643,-2.4379,-2.4158,-2.4483,-2.4418,-2.4151,0.0,0.0,0.0,0.0,0.0,0.0,0.0,0.0,0.0,0.0,0.0,0.0,0.0,0.0,0.0,0.0,0.0,0.0,0.0,0.0,0.0,0.0,0.0,0.0,0.0,0.0,0.0,0.0,0.0,0.0,0.0,0.0,0.0,0.0,0.0,0.0,0.0,0.0,0.0,0.0,0.0,0.0,0.0,0.0,0.0,0.0,0.0,0.0,0.0,0.0,0.0,0.0,0.0,0.0,0.0,0.0,0.0,0.0,-2.7957,-2.7645,-2.7136,-2.7577,-2.7225,-2.6853,-2.6853,0.0,0.0,0.0,0.0,-2.5917,-2.5732,-2.5868,-2.5966,-2.5918,0.0,0.0,0.0,0.0,0.0,0.0,0.0,0.0,0.0,0.0,0.0,0.0,-2.5127,-2.5127,-2.5127,-2.5127,-2.5127,-2.5127,-2.5127,-2.5127,-2.5127,-2.604,-2.6501,-2.6494,-2.7874,-2.8337,-2.7949,-2.8328,-2.8122,-2.7434,-2.654,-2.6021,-2.5739,-2.5739,-2.5294,-2.4755,-2.6335,-2.6464,-2.5743,-2.588,-2.5595,-2.513,0.0,0.0,0.0,0.0,0.0,0.0,0.0,0.0,0.0,0.0,0.0,0.0,0.0,0.0,0.0,0.0,0.0,0.0,0.0,0.0,0.0,0.0,0.0,0.0,0.0,0.0,0.0,0.0,0.0,0.0,0.0,0.0,0.0,0.0,0.0,0.0,0.0,0.0,0.0,0.0,0.0,0.0,-2.4497,0.0,0.0,0.0,0.0,0.0,0.0,0.0,0.0,0.0,0.0,0.0,0.0,0.0,0.0,0.0,0.0,-2.7287,-2.6962,-2.7275,-2.7105,0.0,0.0,0.0,0.0,0.0,0.0,0.0,0.0,0.0,0.0,0.0,0.0,0.0,0.0,0.0,0.0,0.0,0.0,0.0,0.0,0.0,0.0,0.0,-2.539,-2.5517,-2.6568,-2.5985,-2.585,-2.6433,-2.5584,-2.5127,-2.5127,-2.6435,-2.7086,-2.7145,-2.8907,-2.9487,-2.896,-2.9339,-2.9139,-2.846,-2.7574,-2.7074,0.0,-2.6925,-2.647,-2.5969,-2.752,-2.7685,-2.7014,-2.7085,-2.6802,-2.6417,0.0,0.0,0.0,0.0,0.0,0.0,0.0,0.0,0.0,0.0,0.0,0.0,0.0,0.0,0.0,0.0,0.0,0.0,0.0,0.0,0.0,0.0,0.0,0.0,0.0,0.0,0.0,-2.9792,-2.9,-2.8542,-2.8462,0.0,0.0,0.0,0.0,0.0,0.0,0.0,0.0,0.0,0.0,0.0,0.0,0.0,0.0,0.0,0.0,0.0,0.0,0.0,0.0,0.0,0.0,0.0,0.0,0.0,0.0,0.0,0.0,0.0,0.0,0.0,0.0,0.0,0.0,0.0,0.0,0.0,0.0,0.0,0.0,0.0,0.0,0.0,0.0,0.0,0.0,0.0,0.0,0.0,0.0,0.0,0.0,0.0,0.0,-2.702,-2.6017,-2.6463,-2.9017,-2.7564,-2.7239,-2.8494,-2.6452,-2.5315,-2.5315,-2.6616,-2.733,-2.733,-2.971,-3.0104,-2.887,-2.986,-2.9679,-2.8638,-2.8325,-2.8308,-2.8532,-2.8532,-2.8261,-2.7992,-2.8472,-2.8423,-2.8101,-2.8042,-2.8042,-2.7982,0.0,0.0,0.0,0.0,0.0,0.0,0.0,0.0,0.0,0.0,0.0,0.0,0.0,0.0,0.0,0.0,0.0,0.0,0.0,0.0,0.0,0.0,0.0,0.0,0.0,0.0,0.0,-2.9792,-2.9585,-2.917,-2.8462,-2.7354,0.0,0.0,0.0,0.0,0.0,0.0,0.0,0.0,0.0,0.0,0.0,0.0,0.0,0.0,-2.4497,-2.4497,0.0,0.0,0.0,0.0,0.0,0.0,0.0,0.0,-2.7309,-2.7262,-2.7034,0.0,-2.7177,-2.6948,0.0,0.0,0.0,0.0,0.0,0.0,0.0,0.0,0.0,0.0,0.0,0.0,0.0,0.0,0.0,0.0,0.0,0.0,0.0,0.0,0.0,0.0,0.0,-2.7086,-2.754,-2.8092,-2.8738,-2.8069,-2.7811,-2.8119,-2.7641,-2.7299,-2.7299,-2.8708,-2.9403,-2.9403,-3.1086,-3.1673,-3.1356,-3.1803,-3.1702,-3.1082,-3.027,-2.9791,-2.9563,-2.9563,-2.908,-2.8442,-3.0311,-3.0489,-2.9797,-2.9502,-2.9453,-2.9394,0.0,0.0,0.0,0.0,0.0,0.0,0.0,0.0,0.0,0.0,0.0,0.0,0.0,0.0,0.0,0.0,0.0,0.0,0.0,0.0,0.0,0.0,0.0,0.0,0.0,0.0,0.0,0.0,0.0,-2.8752,0.0,0.0,0.0,0.0,0.0,0.0,0.0,0.0,0.0,0.0,-2.4497,0.0,0.0,0.0,0.0,0.0,-2.4497,-2.4497,0.0,-2.5034,-2.5523,-2.5958,0.0,0.0,0.0,0.0,-2.7214,-2.7081,-2.6794,-2.6976,-2.7214,-2.6948,-2.69,-2.6853,0.0,0.0,0.0,0.0,0.0,0.0,0.0,0.0,0.0,0.0,0.0,0.0,0.0,0.0,0.0,0.0,0.0,0.0,0.0,0.0,-2.7272,-2.7761,-2.8269,-2.9099,-3.021,-2.9252,-2.8924,-2.961,-2.9437,-2.8888,-2.7983,-2.9386,-3.0078,-3.014,-3.1338,-3.1875,-3.1865,-3.1839,-3.1791,-3.1623,-3.0955,-3.0643,-3.0548,-3.0548,-3.0295,-3.01,-3.1478,-3.1777,-3.1421,-3.1247,-3.1131,-3.1005,0.0,0.0,0.0,0.0,0.0,0.0,0.0,0.0,0.0,0.0,0.0,0.0,0.0,0.0,0.0,0.0,0.0,0.0,0.0,0.0,0.0,0.0,0.0,0.0,0.0,0.0,0.0,0.0,0.0,0.0,0.0,0.0,-2.611,0.0,0.0,0.0,0.0,0.0,0.0,0.0,-2.4497,0.0,0.0,0.0,0.0,0.0,0.0,0.0,0.0,-2.5137,-2.5616,-2.6107,-2.6573,0.0,0.0,0.0,0.0,0.0,-2.6496,-2.6784,-2.7119,-2.69,-2.6853,-2.6805,0.0,0.0,0.0,0.0,0.0,0.0,0.0,0.0,0.0,0.0,0.0,0.0,0.0,0.0,0.0,0.0,0.0,0.0,0.0,-2.745,-2.7982,-2.8883,-2.9009,-2.995,-3.1959,-3.053,-3.0184,-3.1357,-3.1074,-3.0134,-2.8445,-2.9639,-3.0211,-3.0202,-3.1034,-3.1426,-3.1406,-3.1103,-3.1112,-3.1267,-3.1112,-3.117,-3.1383,-3.1383,-3.1556,-3.1845,-3.2133,-3.2373,-3.2555,-3.2555,-3.243,-3.219,0.0,0.0,0.0,0.0,0.0,0.0,0.0,0.0,0.0,0.0,0.0,0.0,0.0,0.0,0.0,0.0,0.0,0.0,0.0,0.0,0.0,0.0,0.0,0.0,0.0,0.0,0.0,0.0,0.0,0.0,-2.8673,-2.673,-2.5463,0.0,0.0,0.0,-2.4497,-2.4497,-2.4497,-2.4497,-2.4497,0.0,0.0,0.0,0.0,0.0,0.0,0.0,0.0,-2.5627,-2.6082,-2.6594,-2.705,0.0,0.0,0.0,0.0,0.0,-2.6294,-2.64,-2.6592,-2.6544,-2.6544,-2.6544,0.0,0.0,0.0,0.0,0.0,0.0,0.0,0.0,0.0,0.0,0.0,0.0,0.0,0.0,0.0,0.0,0.0,0.0,0.0,-2.9951,-3.0212,-3.0348,-3.0789,-3.125,-3.1561,-3.1034,-3.0742,-3.0986,-3.0928,-3.0772,-3.0476,-3.0653,-3.078,-3.078,-3.0898,-3.0986,-3.0986,-3.1141,-3.1276,-3.1325,-3.1556,-3.1672,-3.173,-3.173,-3.173,-3.1787,-3.1845,-3.1903,-3.196,-3.196,-3.1903,-3.1845,0.0,0.0,0.0,0.0,0.0,0.0,0.0,0.0,0.0,0.0,0.0,0.0,0.0,0.0,0.0,0.0,0.0,0.0,0.0,0.0,0.0,0.0,0.0,0.0,0.0,0.0,0.0,0.0,0.0,-2.8502,-2.8462,-2.6648,-2.5579,-2.5179,0.0,0.0,-2.4497,-2.4497,-2.4497,-2.4497,0.0,0.0,0.0,0.0,0.0,0.0,0.0,0.0,0.0,0.0,-2.6231,-2.6698,-2.7164,0.0,0.0,0.0,0.0,0.0,-2.6197,-2.61,-2.611,-2.6255,-2.6294,-2.6294,0.0,0.0,0.0,0.0,0.0,0.0,0.0,0.0,0.0,0.0,0.0,0.0,0.0,0.0,0.0,0.0,0.0,0.0,-3.005,-3.0242,-3.0252,-3.0032,-3.0927,-3.1426,-3.1191,-3.0996,-3.0889,-3.0889,-3.0889,-3.0889,-3.0889,-3.0889,-3.0889,-3.0889,-3.0889,-3.0889,-3.0889,-3.1054,-3.1112,-3.1112,-3.1228,-3.1334,-3.1334,-3.1334,-3.1392,-3.1556,-3.1556,-3.1614,-3.1787,-3.1614,-3.1556,-3.1498,0.0,0.0,0.0,0.0,0.0,0.0,0.0,0.0,0.0,0.0,0.0,0.0,0.0,0.0,0.0,0.0,0.0,0.0,0.0,0.0,0.0,0.0,0.0,0.0,0.0,0.0,-2.9792,-2.9792,-2.8922,-2.8291,-2.7839,-2.6442,-2.5704,0.0,0.0,0.0,-2.4497,-2.4497,-2.4497,-2.4497,0.0,0.0,0.0,0.0,0.0,0.0,0.0,0.0,0.0,0.0,0.0,0.0,0.0,0.0,0.0,-2.689,-2.6602,-2.6352,-2.61,-2.5868,-2.5762,0.0,0.0,0.0,0.0,0.0,0.0,0.0,0.0,0.0,0.0,0.0,0.0,0.0,0.0,0.0,0.0,0.0,0.0,0.0,0.0,-3.0027,-3.0404,-3.0441,-3.0302,-2.9925,-3.0801,-3.123,-3.0908,-3.0889,-3.0889,-3.0889,-3.0889,-3.0889,-3.0889,-3.0889,-3.0889,-3.0889,-3.0889,-3.0889,-3.0889,-3.0889,-3.0889,-3.0889,-3.0889,-3.0889,-3.0889,-3.0889,-3.0995,-3.1218,-3.1218,-3.1334,-3.1566,-3.1276,-3.1218,-3.116,0.0,0.0,0.0,0.0,0.0,0.0,0.0,0.0,0.0,0.0,0.0,0.0,0.0,0.0,0.0,0.0,0.0,0.0,0.0,0.0,0.0,0.0,0.0,0.0,0.0,-2.9792,-2.9792,-2.9792,-2.8922,-2.7637,-2.5986,-2.5861,-2.5379,-2.4583,0.0,0.0,-2.4497,-2.4497,-2.4497,-2.4497,-2.4497,0.0,0.0,0.0,0.0,0.0,0.0,0.0,0.0,0.0,0.0,0.0,0.0,0.0,-2.69,-2.6592,-2.6352,-2.6052,-2.5781,-2.5684,-2.583,-2.624,0.0,0.0,0.0,0.0,0.0,0.0,0.0,0.0,0.0,0.0,0.0,0.0,0.0,0.0,0.0,0.0,0.0,0.0,-3.1161,-3.1345,-3.1374,-3.1374,-3.1364,-3.1335,-3.1093,-3.0928,-3.0889,-3.0889,-3.0889,-3.0889,-3.0889,-3.0889,-3.0889,-3.0889,-3.0889,-3.0889,-3.0889,-3.0889,-3.0889,-3.0889,-3.0889,-3.0889,-3.0889,-3.0889,-3.0889,-3.0889,-3.0889,-3.0947,-3.0947,-3.0947,-3.0947,-3.0947,-3.0947,-3.0947,0.0,0.0,0.0,0.0,0.0,0.0,0.0,0.0,0.0,0.0,0.0,0.0,0.0,0.0,0.0,0.0,0.0,0.0,0.0,0.0,0.0,0.0,0.0,-2.9792,-2.9792,-2.9792,-2.9534,-2.9,-2.8091,-2.7597,-2.7476,-2.6894,0.0,0.0,0.0,0.0,-2.4497,-2.4497,-2.4497,-2.4497,-2.4497,-2.4497,0.0,0.0,0.0,0.0,0.0,0.0,0.0,0.0,-2.6926,0.0,0.0,0.0,-2.6853,-2.6602,-2.6294,-2.6052,-2.5781,-2.5693,-2.5791,0.0,0.0,0.0,0.0,0.0,0.0,0.0,0.0,0.0,0.0,0.0,0.0,0.0,0.0,0.0,0.0,0.0,0.0,-3.0889,-3.1035,-3.1133,-3.1133,-3.1133,-3.1133,-3.1133,-3.0986,-3.0889,-3.0889,-3.0889,-3.0889,-3.0889,-3.0889,-3.0889,-3.0889,-3.0889,-3.0889,-3.0889,-3.0889,-3.0889,-3.0889,-3.0889,-3.0889,-3.0889,-3.0889,-3.0889,-3.0889,-3.0889,-3.0889,-3.0889,-3.0889,-3.0889,-3.0889,-3.0889,-3.0889,-3.0889,0.0,0.0,0.0,0.0,0.0,0.0,0.0,0.0,0.0,0.0,0.0,0.0,0.0,0.0,0.0,0.0,0.0,0.0,0.0,0.0,0.0,0.0,0.0,-2.9792,-2.9792,-2.9792,-2.9495,-2.8922,-2.7971,-2.7718,-2.8051,0.0,0.0,0.0,0.0,0.0,0.0,-2.4497,-2.4497,-2.4497,-2.4497,-2.4497,0.0,0.0,0.0,0.0,0.0,0.0,0.0,0.0,0.0,0.0,0.0,0.0,0.0,0.0,-2.6255,-2.5907,-2.5732,-2.5791,-2.6016,0.0,0.0,0.0,0.0,0.0,0.0,0.0,0.0,0.0,0.0,0.0,0.0,0.0,0.0,0.0,0.0,0.0,-3.0889,-3.0889,-3.0889,-3.0889,-3.0889,-3.0889,-3.0889,-3.0889,-3.0889,-3.0889,-3.0889,-3.0889,-3.0889,-3.0889,-3.0889,-3.0889,-3.0889,-3.0889,-3.0889,-3.0889,-3.0889,-3.0889,-3.0889,-3.0889,-3.0889,-3.0889,-3.0889,-3.0889,-3.0889,-3.0889,-3.0889,-3.0889,-3.0889,-3.0889,-3.0889,-3.0889,-3.0889,-3.0889,0.0,0.0,0.0,0.0,0.0,0.0,0.0,0.0,0.0,0.0,0.0,0.0,0.0,0.0,0.0,0.0,0.0,0.0,0.0,0.0,0.0,0.0,0.0,-2.9792,-2.9792,-2.9792,-2.9792,-2.9792,-2.8922,-2.8011,-2.7098,-2.6235,0.0,0.0,0.0,0.0,0.0,0.0,-2.4497,-2.4497,-2.4507,-2.4507,-2.4559,0.0,0.0,0.0,0.0,0.0,0.0,0.0,0.0,0.0,0.0,0.0,0.0,0.0,-2.612,-2.5693,-2.5693,-2.6055,0.0,0.0,0.0,0.0,0.0,0.0,0.0,0.0,0.0,0.0,0.0,0.0,0.0,0.0,0.0,0.0,0.0,0.0,-3.0898,-3.0889,-3.0889,-3.0889,-3.0889,-3.0889,-3.0889,-3.0889,-3.0889,-3.0889,-3.0889,-3.0889,-3.0889,-3.0889,-3.0889,-3.0889,-3.0889,-3.0889,-3.0889,-3.0889,-3.0889,-3.0889,-3.0889,-3.0889,-3.0889,-3.0889,-3.0889,-3.0889,-3.0898,-3.0898,-3.0898,-3.0889,-3.0889,-3.0889,-3.0889,-3.0889,-3.0889,-3.0889,0.0,0.0,0.0,0.0,0.0,0.0,0.0,0.0,0.0,0.0,0.0,0.0,0.0,0.0,0.0,0.0,0.0,0.0,0.0,0.0,0.0,0.0,0.0,0.0,0.0,0.0,-2.9792,-2.9792,-2.8263,-2.7718,0.0,0.0,0.0,-2.5421,0.0,0.0,0.0,0.0,-2.4497,-2.4528,-2.4848,-2.4983,-2.5034,0.0,0.0,0.0,0.0,0.0,0.0,0.0,0.0,0.0,0.0,0.0,0.0,0.0,-2.5965,-2.5693,-2.5693,0.0,0.0,0.0,0.0,0.0,0.0,0.0,0.0,0.0,0.0,0.0,0.0,0.0,0.0,0.0,-3.1533,-3.1484,0.0,-3.1601,-3.1221,-3.0928,-3.0889,-3.0889,-3.0889,-3.0889,-3.0889,-3.0889,-3.0889,-3.0889,-3.0889,-3.0889,-3.0889,-3.0889,-3.0889,-3.0889,-3.0889,-3.0889,-3.0995,-3.116,-3.116,-3.1112,-3.0889,-3.0889,-3.0889,-3.0889,-3.0889,-3.1055,-3.1328,-3.1328,-3.1162,-3.0889,-3.0889,-3.0889,-3.0889,-3.0889,-3.0889,-3.0889,0.0,0.0,0.0,0.0,0.0,0.0,0.0,0.0,0.0,0.0,0.0,0.0,0.0,0.0,0.0,0.0,0.0,0.0,0.0,0.0,0.0,0.0,0.0,0.0,0.0,-2.9792,-2.9792,0.0,0.0,0.0,0.0,0.0,0.0,-2.5263,0.0,-2.4978,0.0,0.0,-2.4611,-2.4797,-2.5075,-2.5292,-2.5533,0.0,0.0,0.0,0.0,0.0,0.0,0.0,0.0,0.0,0.0,0.0,0.0,0.0,-2.5917,-2.5693,0.0,0.0,0.0,0.0,0.0,0.0,0.0,0.0,0.0,0.0,0.0,0.0,0.0,0.0,0.0,0.0,-3.1689,-3.167,-3.2109,-3.1797,-3.1426,-3.1172,-3.0996,-3.0889,-3.0889,-3.0889,-3.0889,-3.0889,-3.0889,-3.0889,-3.0889,-3.0889,-3.0889,-3.0889,-3.0889,-3.0889,-3.0889,-3.0889,-3.1005,-3.116,-3.116,-3.1054,-3.0889,-3.117,-3.117,-3.1054,-3.0947,-3.1035,-3.1269,-3.1269,-3.1123,-3.0889,-3.0889,-3.0889,-3.0889,-3.0889,-3.0889,-3.0889,0.0,0.0,0.0,0.0,0.0,0.0,0.0,0.0,0.0,0.0,0.0,0.0,0.0,0.0,0.0,0.0,0.0,0.0,0.0,0.0,0.0,0.0,0.0,0.0,0.0,0.0,0.0,0.0,0.0,0.0,0.0,0.0,-2.6008,-2.4497,0.0,-2.4518,0.0,-2.4559,-2.4828,-2.5251,-2.5292,-2.5595,-2.5989,-2.6501,0.0,0.0,0.0,0.0,0.0,0.0,0.0,0.0,0.0,0.0,0.0,-2.6052,-2.5868,0.0,0.0,0.0,0.0,0.0,0.0,0.0,0.0,0.0,0.0,0.0,0.0,0.0,0.0,0.0,0.0,0.0,-3.1514,-3.165,-3.206,-3.1768,-3.1504,-3.1465,-3.1123,-3.0889,-3.0889,-3.0889,-3.0889,-3.0889,-3.0889,-3.0889,-3.0889,-3.0889,-3.0889,-3.0889,-3.0889,-3.0889,-3.0889,-3.0889,-3.0869,-3.0888,-3.0888,-3.0869,-3.0888,-3.1469,-3.1556,-3.1276,-3.1035,-3.0928,-3.0898,-3.0928,-3.0928,-3.0889,-3.0889,-3.0889,-3.0889,-3.0889,-3.0889,-3.0889,0.0,0.0,0.0,0.0,0.0,0.0,0.0,0.0,0.0,0.0,0.0,0.0,0.0,0.0,0.0,0.0,0.0,0.0,0.0,0.0,0.0,0.0,0.0,0.0,0.0,0.0,0.0,0.0,0.0,0.0,0.0,0.0,0.0,-2.4497,0.0,-2.4693,-2.5034,-2.5034,-2.5337,-2.5771,-2.6134,-2.6376,-2.6511,-2.6978,-2.7154,0.0,0.0,0.0,0.0,0.0,0.0,0.0,0.0,-2.6352,-2.6052,-2.5868,-2.5732,0.0,0.0,0.0,0.0,0.0,0.0,0.0,0.0,0.0,0.0,0.0,0.0,0.0,0.0,0.0,0.0,-3.1445,-3.1514,-3.1553,-3.1641,-3.1572,-3.1396,-3.1064,-3.0947,-3.0889,-3.0889,-3.0889,-3.0889,-3.0889,-3.0889,-3.0889,-3.0889,-3.0889,-3.0889,-3.0889,-3.0889,-3.0889,-3.0889,-3.0889,-3.0839,-3.0715,-3.0715,-3.0707,-3.0624,-3.0922,-3.1054,-3.1015,-3.124,-3.1191,-3.0918,-3.124,-3.1182,-3.0889,-3.0889,-3.0889,-3.0889,-3.0889,-3.0889,-3.0889,0.0,0.0,0.0,0.0,0.0,0.0,0.0,0.0,0.0,0.0,0.0,0.0,0.0,0.0,0.0,0.0,0.0,0.0,0.0,0.0,0.0,0.0,0.0,0.0,0.0,0.0,0.0,0.0,0.0,0.0,0.0,0.0,0.0,-2.4507,0.0,-2.4962,-2.5199,-2.5451,-2.5802,-2.6273,-2.6521,-2.675,-2.6978,-2.7216,-2.7309,-2.7262,-2.7177,0.0,0.0,0.0,0.0,0.0,0.0,0.0,-2.5868,-2.5732,-2.5693,0.0,0.0,0.0,0.0,0.0,0.0,0.0,0.0,0.0,0.0,0.0,0.0,0.0,0.0,0.0,0.0,-3.1182,-3.1387,-3.1514,-3.1514,-3.1514,-3.1435,-3.1211,-3.1016,-3.0889,-3.0889,-3.0889,-3.0889,-3.0889,-3.0889,-3.0889,-3.0889,-3.0889,-3.0889,-3.0889,-3.0674,-3.0557,-3.0557,-3.0361,-3.0317,-3.0373,-3.026,-3.0132,-3.0091,-3.0342,-3.0492,-3.0445,-3.0556,-3.0459,-3.0273,-3.0488,-3.0459,-3.0264,-3.0264,-3.0264,-3.0264,-3.0264,-3.0381,-3.0557,0.0,0.0,0.0,0.0,0.0,0.0,0.0,0.0,0.0,0.0,0.0,0.0,0.0,0.0,0.0,0.0,0.0,0.0,0.0,0.0,0.0,0.0,0.0,0.0,0.0,0.0,0.0,0.0,0.0,0.0,0.0,0.0,0.0,-2.4879,0.0,0.0,-2.5492,-2.5844,-2.6314,-2.6739,-2.6739,-2.6967,-2.7309,-2.7262,-2.7214,-2.7225,-2.6948,-2.6853,-2.6805,-2.6544,0.0,0.0,0.0,0.0,-2.5693,-2.5693,-2.5693,-2.5781,0.0,0.0,0.0,0.0,0.0,0.0,0.0,0.0,0.0,0.0,0.0,0.0,0.0,0.0,0.0,-3.0889,-3.1182,-3.1406,-3.1406,-3.1406,-3.1406,-3.1406,-3.1103,-3.0889,-3.0889,-3.0889,-3.0889,-3.0889,-3.081,-3.0771,-3.0771,-3.0703,-3.0664,-3.0664,-3.034,-3.0154,-3.0154,-2.9858,-2.981,-2.9972,-2.9662,-2.9512,-2.9512,-2.9743,-2.9887,-2.9915,-2.9682,-2.9626,-2.9626,-2.9626,-2.9626,-2.9626,-2.9626,-2.9626,-2.9626,-2.9626,-2.9795,-3.0088,0.0,0.0,0.0,0.0,0.0,0.0,0.0,0.0,0.0,0.0,0.0,0.0,0.0,0.0,0.0,0.0,0.0,0.0,-2.9792,0.0,0.0,-2.9792,-2.9792,0.0,0.0,0.0,0.0,0.0,0.0,0.0,0.0,0.0,0.0,0.0,0.0,0.0,0.0,-2.6501,-2.6791,-2.7216,-2.7216,-2.7247,-2.7262,-2.7034,-2.6948,-2.69,-2.6651,-2.6544,-2.6554,-2.6496,-2.6294,0.0,0.0,0.0,-2.5693,-2.5693,-2.5693,0.0,0.0,0.0,0.0,0.0,0.0,0.0,0.0,0.0,0.0,0.0,0.0,0.0,0.0,0.0,0.0,-3.0889,-3.0937,-3.0976,-3.0976,-3.0976,-3.0976,-3.0976,-3.0928,-3.0889,-3.0889,-3.0889,-3.0889,-3.0889,-3.0518,-3.0293,-3.0293,-2.9941,-2.9746,-2.9746,-2.9921,-3.0059,-3.0059,-3.0203,-3.0148,-2.9832,-2.9387,-2.9153,-2.9153,-2.9196,-2.9411,-2.9626,-2.9626,-2.9626,-2.9626,-2.9626,-2.9626,-2.9626,-2.9626,-2.9626,-2.9626,-2.9626,-2.96,-2.9658,0.0,0.0,0.0,0.0,0.0,0.0,0.0,0.0,0.0,0.0,0.0,0.0,0.0,0.0,0.0,-2.9792,-2.9792,-2.9792,-2.9792,-2.9792,-2.9792,-2.9792,-2.9792,-2.9792,0.0,0.0,0.0,0.0,0.0,0.0,0.0,-2.6357,-2.5999,0.0,0.0,0.0,0.0,0.0,0.0,0.0,-2.7129,-2.7081,0.0,0.0,-2.6699,-2.6651,-2.6342,-2.6294,-2.6245,-2.611,-2.5965,-2.5868,-2.5868,0.0,0.0,0.0,-2.5908,0.0,0.0,0.0,0.0,0.0,0.0,0.0,0.0,0.0,0.0,0.0,0.0,0.0,0.0,0.0,-3.0146,-3.0146,-3.0146,-3.0146,-3.0146,-3.0146,-3.0146,-3.0146,-3.0146,-3.0146,-3.0146,-3.0146,-3.0146,-3.0146,-2.9961,-2.9844,-2.9844,-2.9678,-2.9626,-2.9626,-2.9447,-2.9494,-2.9669,-2.953,-2.9409,-2.9423,-2.955,-2.9353,-2.8877,-2.9026,-2.9086,-2.9085,-2.9085,-2.9021,-2.8857,-2.8857,-2.8857,-2.8857,-2.8857,-2.8857,-2.8857,-2.8857,-2.9004,-2.9209,0.0,0.0,0.0,0.0,0.0,0.0,0.0,0.0,0.0,0.0,0.0,0.0,0.0,0.0,0.0,0.0,-2.9792,-2.9792,-2.9792,-2.9792,-2.9792,-2.9792,-2.9792,-2.9854,-2.9993,0.0,0.0,0.0,0.0,0.0,-2.735,-2.7983,-2.7282,0.0,-2.6268,0.0,0.0,0.0,0.0,0.0,0.0,0.0,0.0,0.0,-2.64,-2.6352,-2.61,-2.6004,-2.5965,-2.5781,-2.5693,-2.5693,-2.5693,-2.5693,0.0,0.0,0.0,0.0,0.0,0.0,0.0,0.0,0.0,0.0,0.0,0.0,0.0,0.0,0.0,0.0,0.0,0.0,-2.9626,-2.9626,-2.9626,-2.9626,-2.9626,-2.9626,-2.9626,-2.9626,-2.9626,-2.9626,-2.9626,-2.9682,-2.9682,-2.9682,-2.9695,-2.9626,-2.9626,-2.9528,-2.9459,-2.9459,-2.9199,-2.9203,-2.9439,-2.9163,-2.9152,-2.9343,-2.9722,-2.9574,-2.9046,-2.9089,-2.8983,-2.8781,-2.8674,-2.8461,-2.8291,-2.8291,-2.8291,-2.8291,-2.8291,-2.8291,-2.8291,-2.8291,-2.8496,-2.876,0.0,0.0,0.0,0.0,0.0,0.0,0.0,0.0,0.0,0.0,0.0,0.0,0.0,-2.9792,-2.9792,-2.9792,-2.9792,-2.9792,-2.9792,-2.9792,-2.9792,-2.9792,-2.9792,0.0,-3.0557,0.0,0.0,0.0,0.0,0.0,-2.6069,-2.918,-2.9145,-2.6542,-2.6594,-2.6864,-2.7278,0.0,0.0,0.0,0.0,0.0,0.0,0.0,0.0,0.0,0.0,-2.5732,-2.5742,-2.5693,-2.5693,-2.5693,-2.5693,-2.5693,-2.5771,0.0,0.0,0.0,0.0,0.0,0.0,0.0,0.0,0.0,0.0,0.0,0.0,0.0,0.0,0.0,0.0,0.0,-2.9626,-2.9626,-2.9626,-2.9626,-2.9626,-2.9626,-2.9626,-2.9626,-2.9626,-2.9626,-2.9626,-2.9803,-2.997,-2.997,-2.9859,-2.9782,-2.9782,-2.938,-2.9149,-2.9149,-2.9394,-2.9595,-2.9595,-2.9837,-2.9942,-2.9942,-2.9722,-2.9722,-2.9889,-2.9343,-2.9079,-2.9026,-2.8558,-2.8291,-2.8291,-2.8291,-2.8291,-2.8291,-2.8291,-2.8291,-2.8291,-2.8291,-2.8301,-2.833,0.0,0.0,0.0,0.0,0.0,0.0,0.0,0.0,0.0,0.0,0.0,0.0,0.0,-2.9792,-2.9792,-2.9792,-3.0118,-3.047,-3.0796,-3.0821,-3.0821,-3.0821,-3.0821,-3.0909,-3.111,0.0,0.0,0.0,0.0,-3.0016,-2.9061,-2.9307,-2.8909,-2.7964,-2.7964,-2.7698,-2.7309,-2.7129,0.0,0.0,0.0,0.0,0.0,0.0,0.0,0.0,0.0,0.0,-2.6162,-2.6162,-2.6338,-2.6502,-2.6502,-2.6502,-2.6641,-2.708,-2.7483,-2.7777,0.0,0.0,0.0,0.0,0.0,0.0,0.0,0.0,0.0,0.0,0.0,0.0,0.0,0.0,0.0,-2.875,-2.875,-2.875,-2.875,-2.875,-2.875,-2.875,-2.875,-2.875,-2.875,-2.8859,-2.8923,-2.8923,-2.8991,-2.9073,-2.9073,-2.9116,-2.9079,-2.9079,-2.9237,-2.9396,-2.9606,-2.9889,-2.9994,-2.9994,-2.9889,-2.9827,-2.9722,-2.9501,-2.929,-2.9079,-2.892,-2.8611,-2.8291,-2.8291,-2.8291,-2.8291,-2.8291,-2.8291,-2.8291,-2.8291,-2.8291,-2.8291,0.0,0.0,0.0,0.0,0.0,0.0,0.0,0.0,0.0,0.0,0.0,0.0,0.0,0.0,-3.0331,-3.0331,-3.067,-3.1022,-3.1361,-3.1386,-3.1386,-3.1386,-3.1386,-3.1474,-3.1662,0.0,0.0,0.0,0.0,0.0,0.0,0.0,-2.9498,-2.9176,-2.8863,-2.8175,0.0,0.0,0.0,-2.6976,0.0,0.0,-2.6776,0.0,0.0,0.0,0.0,0.0,0.0,-2.6602,-2.6787,-2.7012,-2.7012,-2.7119,-2.7295,-2.764,-2.7826,-2.7939,-2.8223,0.0,0.0,0.0,0.0,0.0,0.0,0.0,0.0,0.0,0.0,0.0,0.0,0.0,0.0,-2.8291,-2.8291,-2.8291,-2.8291,-2.8291,-2.8291,-2.8291,-2.8291,-2.8291,-2.8291,-2.8398,-2.8451,-2.8451,-2.8674,-2.8834,-2.8834,-2.9089,-2.929,-2.9396,-2.9396,-2.9511,-2.9711,-2.9931,-2.9994,-2.9994,-2.9889,-2.9827,-2.9722,-2.9459,-2.93,-2.9237,-2.9026,-2.8824,-2.8558,-2.8461,-2.8451,-2.8408,-2.8344,-2.8291,-2.8291,-2.8291,-2.8291,-2.8291,0.0,0.0,0.0,0.0,0.0,0.0,0.0,0.0,0.0,0.0,0.0,0.0,0.0,0.0,0.0,-3.1411,-3.1411,-3.1424,-3.1436,-3.1436,-3.1436,-3.1436,-3.1436,-3.1687,-3.2227,0.0,0.0,0.0,0.0,0.0,0.0,0.0,-3.108,0.0,-2.9176,-2.8186,-2.7367,0.0,-2.6986,-2.6516,0.0,-2.6632,-2.6824,0.0,0.0,0.0,-2.7114,-2.7021,0.0,-2.7031,0.0,0.0,0.0,-2.7344,-2.7738,-2.7738,-2.7969,-2.8291,0.0,0.0,0.0,0.0,0.0,0.0,0.0,0.0,0.0,0.0,0.0,0.0,0.0,0.0,0.0,-2.8291,-2.8291,-2.8291,-2.8291,-2.8291,-2.8291,-2.8291,-2.8291,-2.8291,-2.8291,-2.8514,-2.8684,-2.8684,-2.893,-2.9079,-2.9079,-2.9396,-2.9722,-2.9994,-2.9994,-2.9994,-2.9994,-2.9994,-2.9994,-2.9994,-2.9722,-2.9711,-2.9942,-2.9099,-2.9036,-2.9554,-2.8993,-2.8887,-2.9079,-2.8834,-2.8684,-2.8674,-2.8408,-2.8291,-2.8291,-2.8291,-2.8291,-2.8291,0.0,0.0,0.0,0.0,0.0,0.0,0.0,0.0,0.0,0.0,0.0,0.0,0.0,-3.1298,-3.1549,-3.1951,-3.1989,-3.2164,-3.2579,-3.2616,-3.2616,-3.2616,-3.2616,-3.2679,-3.283,0.0,0.0,0.0,0.0,0.0,0.0,0.0,0.0,0.0,-2.9441,-2.8733,-2.8715,-2.7349,0.0,0.0,-2.692,-2.7142,0.0,0.0,0.0,0.0,0.0,-2.7217,-2.749,0.0,-2.7685,-2.7939,0.0,0.0,-2.8125,-2.8125,-2.8203,-2.8291,-2.8291,0.0,0.0,0.0,0.0,0.0,0.0,0.0,0.0,0.0,0.0,0.0,0.0,0.0,0.0,-2.8291,-2.8291,-2.8291,-2.8291,-2.8291,-2.8291,-2.8291,-2.8291,-2.8291,-2.8291,-2.8354,-2.8398,0.0,-2.8674,-2.8834,-2.8834,-2.9089,-2.929,-2.9343,-2.9343,-2.9448,-2.9722,-2.9448,-2.9448,-2.9722,-2.9659,-2.9501,-2.9343,-2.9343,-2.929,-2.9237,-2.9079,-2.9026,-2.9079,-2.8834,-2.8568,-2.8408,-2.8344,-2.8291,-2.8291,-2.8291,-2.8291,-2.8291,0.0,0.0,0.0,0.0,0.0,0.0,0.0,0.0,0.0,0.0,0.0,0.0,0.0,0.0,-3.2227,-3.2541,-3.2579,-3.2717,-3.3099,-3.3124,-3.3124,-3.3124,-3.3124,-3.3124,-3.3124,0.0,0.0,0.0,0.0,0.0,0.0,0.0,0.0,0.0,0.0,0.0,0.0,0.0,0.0,0.0,-2.7422,0.0,0.0,-2.7738,-2.7693,0.0,0.0,0.0,-2.793,-2.793,-2.8086,0.0,0.0,0.0,0.0,-2.8291,-2.8291,-2.8291,-2.8291,0.0,0.0,0.0,0.0,0.0,-2.8291,-2.8408,-2.8514,0.0,0.0,0.0,0.0,0.0,0.0,-2.8291,-2.8291,-2.8291,-2.8291,-2.8291,-2.8344,-2.8451,-2.8461,-2.8504,-2.8611,-2.8601,-2.8601,-2.8601,-2.8771,-2.894,-2.9089,-2.9237,-2.9343,-2.9448,-2.9459,-2.9564,-2.9774,-2.9448,-2.9396,-2.9606,-2.9448,-2.929,-2.9079,-2.9195,-2.9195,-2.9079,-2.8983,-2.893,-2.893,-2.8781,-2.8631,-2.8461,-2.8344,-2.8291,-2.8291,-2.8291,-2.8291,-2.8291,0.0,0.0,0.0,0.0,0.0,0.0,0.0,0.0,0.0,0.0,0.0,0.0,0.0,0.0,0.0,-3.3124,-3.3124,-3.3124,-3.3124,-3.3124,-3.3124,-3.3124,-3.3124,-3.3124,-3.3124,0.0,0.0,0.0,0.0,0.0,0.0,0.0,0.0,0.0,0.0,0.0,0.0,0.0,0.0,-2.8491,-2.8188,-2.8248,0.0,0.0,-2.818,-2.8631,-2.8408,-2.8344,-2.8291,-2.8291,-2.8291,0.0,0.0,0.0,0.0,0.0,-2.8291,0.0,0.0,0.0,0.0,0.0,-2.8291,0.0,-2.8291,-2.8291,-2.8344,-2.8344,0.0,0.0,0.0,0.0,0.0,-2.8398,-2.8344,-2.8344,-2.8291,-2.8291,-2.8408,-2.8631,-2.8674,-2.8727,-2.8973,-2.9026,-2.9026,-2.9026,-2.9079,-2.9237,-2.9501,-2.9501,-2.9669,-2.9889,-2.9889,-2.9942,-2.9942,-2.9659,-2.9554,-2.9606,-2.9237,-2.9079,-2.9026,-2.8834,-2.8834,-2.8973,-2.8781,-2.8674,-2.8674,-2.8674,-2.8674,-2.8621,-2.8398,-2.8291,-2.8291,-2.8291,-2.8291,-2.8291,-3.2685,0.0,0.0,0.0,0.0,0.0,0.0,0.0,0.0,0.0,0.0,0.0,0.0,0.0,0.0,0.0,-3.3124,-3.3124,-3.3124,-3.3124,-3.3124,-3.3124,-3.3124,-3.3124,-3.3124,-3.2968,0.0,0.0,0.0,0.0,0.0,0.0,0.0,0.0,0.0,0.0,0.0,0.0,0.0,-3.0568,-2.991,0.0,-2.8948,-2.8853,-2.8638,-2.8408,-2.8568,-2.8461,-2.8291,-2.8291,-2.8291,-2.8291,0.0,0.0,0.0,-2.8291,0.0,0.0,0.0,0.0,-2.8291,-2.8291,-2.8291,0.0,-2.8291,-2.8461,-2.8621,0.0,0.0,0.0,0.0,0.0,0.0,0.0,-2.8771,-2.8568,-2.8344,-2.8291,-2.8291,-2.8344,-2.8398,-2.8408,-2.8451,-2.8451,-2.8558,-2.8781,-2.8983,-2.9026,-2.8887,-2.9089,-2.9237,-2.929,-2.929,-2.9396,-2.9659,-2.9343,-2.9343,-2.9606,-2.9237,-2.8983,-2.8781,-2.8727,-2.8621,-2.8451,-2.8398,-2.8398,-2.8398,-2.8398,-2.8398,-2.8344,-2.8291,-2.8291,-2.8291,-2.8291,-2.8291,-2.8291,-3.3548,0.0,0.0,0.0,0.0,0.0,0.0,0.0,0.0,0.0,0.0,0.0,0.0,0.0,0.0,0.0,-3.3897,-3.3897,-3.3897,-3.3897,-3.3771,-3.3495,-3.3483,-3.3357,-3.3124,-3.3124,-3.3206,0.0,0.0,0.0,0.0,0.0,0.0,0.0,0.0,0.0,0.0,0.0,-3.2788,-3.1308,-3.0252,0.0,-2.9079,-2.893,-2.8717,-2.8514,-2.8514,-2.8398,-2.8291,-2.8291,-2.8291,0.0,-2.8291,-2.8291,-2.8291,-2.8291,-2.8291,-2.8291,-2.8291,-2.8291,-2.8344,-2.8461,-2.8408,0.0,0.0,-2.8727,-2.8727,-2.8877,0.0,0.0,0.0,0.0,0.0,-2.9079,-2.8983,-2.8877,-2.8717,-2.8558,-2.8489,-2.842,-2.8505,-2.8573,-2.8446,-2.8468,-2.853,-2.8643,-2.8788,-2.8788,-2.8643,-2.9001,-2.9227,-2.9227,-2.9442,-2.9564,-2.9606,-2.9448,-2.9343,-2.9343,-2.9036,-2.8834,-2.8684,-2.8568,-2.8408,-2.8291,-2.8291,-2.8291,-2.8291,-2.8291,-2.8291,-2.8291,-2.8291,-2.8291,-2.8291,-2.8291,-2.8291,-2.8291,-3.4397,0.0,0.0,0.0,0.0,0.0,0.0,0.0,0.0,0.0,0.0,0.0,0.0,0.0,0.0,0.0,0.0,-3.468,-3.468,-3.468,-3.4525,-3.4073,-3.406,-3.3847,-3.3407,-3.3395,-3.3608,0.0,0.0,0.0,0.0,0.0,0.0,0.0,0.0,0.0,0.0,0.0,0.0,-3.1717,0.0,-2.9649,-2.9185,-2.893,-2.8834,-2.8727,-2.8461,-2.8344,-2.8291,-2.8291,-2.8291,-2.8291,-2.8291,-2.8291,-2.8291,-2.8291,-2.8291,-2.8291,-2.8291,-2.8291,-2.8344,-2.8568,-2.8461,-2.8398,0.0,0.0,0.0,0.0,0.0,0.0,0.0,0.0,0.0,0.0,0.0,0.0,0.0,-2.8753,0.0,-2.8528,-2.8695,-2.8727,-2.8459,-2.8518,-2.8518,-2.8457,-2.8568,-2.8568,-2.8518,-2.8919,-2.9177,-2.9177,-2.9622,-2.9755,-2.9536,-2.9618,-2.9511,-2.9185,-2.893,-2.8727,-2.8674,-2.8408,-2.8291,-2.8291,-2.8291,-2.8291,-2.8291,-2.8291,-2.8291,-2.8291,-2.8291,-2.8291,-2.8291,-2.8291,-2.8291,-2.8291,-3.4397,-3.4397,0.0,0.0,0.0,0.0,0.0,0.0,0.0,0.0,0.0,0.0,0.0,0.0,0.0,0.0,0.0,0.0,-3.468,-3.468,-3.4655,-3.4625,-3.4625,-3.46,-3.4537,-3.4537,-3.4562,-3.4625,0.0,0.0,0.0,0.0,0.0,0.0,-3.5972,0.0,0.0,0.0,-3.4068,0.0,-3.1717,-3.0619,0.0,-2.9501,-2.929,-2.9026,-2.8727,-2.8514,-2.8291,0.0,-2.8291,-2.8291,-2.8291,-2.8291,-2.8291,-2.8291,-2.8291,-2.8291,-2.8291,-2.8291,-2.8291,-2.8344,-2.8291,-2.8291,-2.8398,0.0,-2.8781,-2.9026,0.0,0.0,0.0,0.0,0.0,0.0,0.0,0.0,-2.7852,-2.8381,-2.8766,-2.855,-2.854,-2.8358,-2.7905,-2.8127,-2.8127,-2.7915,-2.8317,-2.8518,-2.8237,-2.8519,-2.869,-2.869,-2.9135,-2.9384,-2.9332,-2.9735,-2.9827,-2.9554,-2.9185,-2.893,-2.8674,-2.8408,-2.8291,-2.8291,-2.8291,-2.8291,-2.8291,-2.8291,-2.8291,-2.8291,-2.8291,-2.8291,-2.8291,-2.8291,-2.8291,-2.8291,-3.4397,-3.4397,0.0,0.0,0.0,0.0,0.0,0.0,0.0,0.0,0.0,0.0,0.0,0.0,0.0,0.0,0.0,-3.5667,0.0,0.0,0.0,-3.5169,-3.5157,-3.5006,-3.4726,-3.468,-3.4831,-3.5157,-3.5157,0.0,0.0,0.0,0.0,0.0,-3.6008,0.0,-3.5475,0.0,-3.5017,0.0,0.0,0.0,0.0,-2.9911,-2.93,-2.8834,-2.8568,-2.8408,-2.8291,-2.8291,-2.8291,-2.8291,-2.8291,-2.8291,-2.8291,-2.8291,-2.8291,-2.8291,-2.8291,-2.8291,-2.8344,-2.8514,-2.8408,-2.8398,-2.8708,-2.8727,-2.8834,-2.929,0.0,0.0,0.0,0.0,0.0,0.0,-2.9632,0.0,0.0,0.0,-2.8809,0.0,0.0,0.0,-2.7531,-2.7588,-2.7636,-2.7539,-2.7734,-2.7782,-2.7685,-2.803,-2.8214,-2.8214,-2.8659,-2.8806,-2.8665,-2.926,-2.9446,-2.9186,-2.9326,-2.9237,-2.893,-2.8674,-2.8461,-2.8291,-2.8291,-2.8291,-2.8291,-2.8291,-2.8291,-2.8291,-2.8291,-2.8291,-2.8291,-2.8291,-2.8291,-2.8291,-3.4397,0.0,0.0,0.0,0.0,0.0,0.0,0.0,0.0,0.0,0.0,0.0,-3.5395,-3.5495,0.0,0.0,-3.6405,-3.6405,0.0,0.0,-3.6182,-3.5793,-3.5768,-3.5579,-3.5177,-3.5177,-3.5366,-3.5768,0.0,0.0,0.0,0.0,0.0,0.0,0.0,-3.5966,-3.5271,0.0,0.0,-3.4727,-3.3944,-3.2839,-3.1472,-3.0172,-2.9406,-2.894,-2.8717,-2.8611,-2.8504,-2.8504,-2.8504,-2.8504,-2.8504,-2.8504,-2.8504,-2.8504,-2.8504,-2.8504,-2.8451,-2.8408,-2.8461,-2.8568,-2.8461,-2.8398,-2.8814,-2.8771,-2.8834,-2.9248,-2.9396,0.0,0.0,0.0,-2.9859,-2.9663,0.0,-2.9704,0.0,-2.8959,0.0,0.0,0.0,0.0,0.0,-2.7309,-2.7309,-2.7309,-2.7309,-2.7309,-2.7309,-2.7572,-2.7738,-2.7738,-2.8183,-2.8332,-2.8143,-2.8786,-2.9034,-2.8921,-2.9227,-2.9232,-2.8983,-2.8781,-2.8568,-2.8291,-2.8291,-2.8291,-2.8291,-2.8291,-2.8291,-2.8291,-2.8291,-2.8291,-2.8291,-2.8291,-2.8291,-2.8291,-3.4397,-3.4397,0.0,0.0,0.0,0.0,0.0,0.0,0.0,0.0,0.0,0.0,0.0,0.0,0.0,0.0,0.0,-3.6405,-3.6405,0.0,-3.6405,-3.638,-3.638,-3.6367,-3.6355,-3.6355,-3.6367,-3.638,0.0,0.0,0.0,0.0,0.0,0.0,0.0,-3.6358,-3.6358,-3.6405,-3.5763,-3.4775,-3.4775,-3.3476,-3.1483,0.0,-2.9827,-2.9554,-2.9554,-2.9343,-2.9079,-2.9079,-2.9079,-2.9079,-2.9079,-2.9079,-2.9079,-2.9079,-2.9079,-2.9026,-2.8781,-2.8684,-2.8631,-2.8398,-2.8291,-2.8291,-2.8291,-2.8514,-2.8737,-2.8727,-2.893,-2.9237,-2.9554,-2.9606,-2.9424,-2.8754,-2.9415,0.0,0.0,0.0,0.0,0.0,0.0,0.0,0.0,-2.7309,-2.7309,-2.7309,-2.7309,-2.7309,-2.7309,-2.732,-2.733,-2.733,-2.7717,-2.7896,-2.7896,-2.84,-2.8715,-2.8921,-2.8931,-2.8854,-2.8727,-2.8684,-2.8568,-2.8291,-2.8291,-2.8291,-2.8291,-2.8291,-2.8291,-2.8291,-2.8291,-2.8291,-2.8291,-2.8291,-2.8291,-2.8291,0.0,0.0,0.0,0.0,0.0,0.0,0.0,-3.4394,0.0,0.0,-3.5107,0.0,0.0,-3.6408,-3.6709,0.0,0.0,-3.6958,-3.6958,-3.6619,-3.6405,-3.6405,-3.6405,-3.6405,-3.6405,-3.6405,-3.6405,-3.6405,0.0,0.0,0.0,0.0,0.0,0.0,0.0,-3.6405,0.0,0.0,0.0,0.0,0.0,-3.3932,-3.2538,0.0,-3.0276,-2.9554,-2.9343,-2.9185,-2.9079,-2.9079,-2.9079,-2.9079,-2.9079,-2.9079,-2.9079,-2.9079,-2.9079,-2.9079,-2.8983,-2.8983,-2.893,-2.8867,-2.8717,-2.8568,-2.8568,-2.8514,-2.8514,-2.8674,-2.8781,-2.8983,-2.9501,-2.9606,-2.9556,-2.9529,-2.9787,-2.9559,0.0,0.0,0.0,0.0,0.0,0.0,0.0,0.0,-2.7225,-2.7034,-2.7034,-2.6938,-2.6784,-2.6784,-2.6784,-2.6784,-2.6878,-2.7056,-2.7259,-2.769,-2.8191,-2.8704,-2.9013,-2.9239,-2.93,-2.9089,-2.8824,-2.8568,-2.8398,-2.8291,-2.8291,-2.8291,-2.8291,-2.8291,-2.8291,-2.8291,-2.8291,-2.8291,-2.8291,-2.8291,-3.4999,0.0,0.0,0.0,0.0,0.0,0.0,0.0,0.0,0.0,-3.5834,0.0,-3.6656,0.0,-3.7475,0.0,-3.7475,-3.7475,-3.7475,-3.696,-3.6707,-3.6707,-3.6518,-3.6405,-3.6405,-3.6405,-3.6405,-3.6405,0.0,-3.6405,0.0,0.0,0.0,0.0,0.0,0.0,-3.6405,0.0,-3.6405,0.0,0.0,-3.4847,0.0,0.0,-3.1486,-3.058,-3.0536,-3.029,-2.9937,-2.9937,-2.9937,-2.9906,-2.969,-2.9693,-2.9662,-2.9447,-2.9396,-2.9396,-2.929,-2.929,-2.9237,-2.9132,-2.8983,-2.8824,-2.8824,-2.8717,-2.8611,-2.8834,-2.8824,-2.8983,-2.9501,-2.9606,-2.9669,-2.9942,-2.9994,-2.9673,0.0,-2.7966,-2.7486,-2.733,0.0,0.0,0.0,-2.7309,-2.7214,-2.7081,-2.7034,-2.6986,-2.6784,-2.6688,-2.6651,-2.6651,-2.6554,-2.6602,-2.6747,-2.7069,-2.7582,-2.8231,-2.8684,-2.9034,-2.9339,-2.9167,-2.893,-2.8684,-2.8408,-2.8291,-2.8291,-2.8291,-2.8291,-2.8291,-2.8291,-2.8291,-2.8291,-2.8291,-2.8291,-2.8291,0.0,0.0,0.0,0.0,-3.543,0.0,0.0,0.0,-3.5545,0.0,-3.6533,-3.7199,-3.7224,-3.7713,-3.8052,-3.8052,-3.8052,-3.8052,-3.8052,-3.7525,0.0,-3.7224,-3.6744,-3.6455,-3.6455,-3.6417,-3.6405,-3.6405,0.0,0.0,0.0,0.0,0.0,0.0,-3.6405,0.0,-3.6405,-3.6405,-3.6405,-3.6405,-3.6443,-3.6109,-3.5581,-3.4524,-3.3474,-3.2584,-3.2917,-3.2308,-3.1381,-3.1381,-3.1381,-3.1298,-3.0864,-3.0719,-3.0636,-3.0191,-3.0046,-2.9973,-2.97,-2.9627,-2.9554,-2.9237,-2.9132,-2.9132,-2.9132,-2.9132,-2.9079,-2.9079,-2.9079,-2.9185,-2.9554,-2.9606,-2.9669,-2.9942,-2.9973,-2.9653,-2.8773,-2.8235,-2.7769,-2.7392,-2.732,-2.7309,0.0,-2.7309,-2.7309,-2.7262,-2.7262,-2.7262,0.0,-2.7034,-2.6853,-2.6853,-2.6592,-2.6496,-2.6496,-2.6496,-2.6863,-2.7592,-2.8032,-2.8452,-2.8931,-2.9046,-2.8983,-2.8674,-2.8461,-2.8291,-2.8291,-2.8291,-2.8291,-2.8291,-2.8291,-2.8291,-2.8291,-2.8291,-2.8301,-2.832,-3.6109,-3.6462,-3.6724,0.0,-3.6283,-3.6058,0.0,0.0,0.0,0.0,-3.701,-3.7337,-3.7751,-3.8304,-3.8642,-3.8642,-3.8642,0.0,0.0,0.0,-3.7789,-3.7789,-3.7262,-3.6973,-3.6973,-3.6619,-3.6405,-3.6405,0.0,0.0,-3.6405,0.0,0.0,0.0,0.0,0.0,-3.6405,-3.6405,-3.6405,-3.6443,-3.6857,-3.6903,-3.6873,-3.7392,-3.6913,-3.5509,-3.2814,-3.1634,-3.1381,-3.1381,-3.1381,-3.136,-3.1236,-3.1205,-3.1174,-3.106,-3.0781,-3.0512,-3.0448,-3.0147,-2.9879,-2.9784,-2.9617,-2.9448,-2.9448,-2.929,-2.9079,-2.9079,-2.9079,-2.9185,-2.9554,-2.9606,-2.9669,-2.9942,-2.9704,-2.9404,-2.9156,-2.8431,-2.7883,-2.7769,-2.7458,-2.7309,-2.7309,-2.7309,-2.7214,-2.7034,-2.6986,-2.6938,-2.6736,-2.664,-2.6496,-2.6294,-2.6245,-2.6197,-2.6197,-2.6197,-2.6659,-2.7592,-2.8032,-2.8543,-2.9219,-2.9402,-2.929,-2.8983,-2.8727,-2.8461,-2.8291,-2.8291,-2.8291,-2.8291,-2.8291,-2.8291,-2.8291,-2.8291,-2.8496,-2.876,-3.697,0.0,0.0,-3.7403,0.0,0.0,-3.7006,-3.6852,0.0,-3.7475,-3.7764,0.0,-3.868,-3.9245,-3.9685,-3.9936,-3.9722,0.0,-3.9584,0.0,-3.8379,-3.8379,-3.7839,-3.7425,-3.7199,-3.6872,-3.6644,-3.6405,-3.6405,0.0,-3.6405,0.0,0.0,0.0,0.0,-3.6405,0.0,-3.6405,-3.6405,-3.6455,-3.696,-3.7324,0.0,-3.7951,-3.7831,-3.7089,-3.4454,-3.3508,-3.3399,-3.2927,-3.2772,-3.263,-3.1889,-3.1671,-3.1629,-3.1433,-3.1195,-3.0946,-3.0739,-3.0501,-3.0253,-3.0046,-2.9889,-2.9774,-2.9774,-2.9617,-2.9511,-2.9511,-2.9511,-2.9564,-2.9722,-2.9774,-2.9827,-2.9994,-2.9777,-2.9539,-2.9332,-2.868,-2.8152,-2.7896,-2.7531,-2.7309,-2.7309,-2.7309,-2.7214,-2.7081,-2.7081,-2.7034,-2.688,-2.6736,-2.6602,-2.6448,-2.6352,-2.6197,-2.61,-2.61,-2.6513,-2.7249,-2.7633,-2.8239,-2.8962,-2.9245,-2.9185,-2.893,-2.8781,-2.8568,-2.8291,-2.8291,-2.8291,-2.8291,-2.8291,-2.8291,-2.831,-2.8496,-2.8711,-2.8945,0.0,0.0,0.0,0.0,0.0,0.0,0.0,-3.7676,0.0,-3.814,0.0,-3.922,-3.9835,-4.0337,-4.0761,-4.125,-4.0849,-4.0588,-4.0526,-3.9622,-3.9108,-3.9032,-3.8429,-3.7902,-3.7412,-3.7262,-3.6996,-3.6518,-3.6443,-3.6405,0.0,0.0,0.0,0.0,0.0,0.0,0.0,-3.6405,-3.6455,-3.6568,-3.7073,-3.7626,-3.8079,-3.7587,-3.771,-3.8003,-3.7007,-3.6457,-3.6034,-3.5068,-3.4747,-3.4459,-3.3003,-3.2553,-3.2424,-3.1926,-3.178,-3.1589,-3.1021,-3.0822,-3.0667,-3.0201,-3.0087,-3.0067,-3.0005,-2.9994,-2.9994,-2.9994,-2.9994,-2.9994,-2.9994,-2.9994,-2.9994,-2.9994,-2.9994,-2.986,-2.9446,-2.9001,-2.8535,-2.8069,-2.7614,0.0,-2.732,-2.7309,-2.7309,-2.7309,-2.7309,-2.7309,-2.7309,-2.7081,-2.69,-2.6853,-2.6602,-2.6352,-2.6052,-2.6052,-2.6319,-2.6814,-2.7191,-2.779,-2.8498,-2.8931,-2.893,-2.8684,-2.8684,-2.8568,-2.8291,-2.8291,-2.8291,-2.8291,-2.8291,-2.833,-2.8428,-2.8848,-2.9043,-2.9141,0.0,0.0,0.0,0.0,0.0,-3.88,-3.9212,-3.8499,-3.8228,-3.927,-3.9484,-3.9936,-4.0887,-4.1075,-4.1175,-4.1275,-4.12,0.0,-4.0551,-4.0337,-4.0023,-3.9572,-3.9019,-3.868,-3.863,-3.7663,-3.7136,-3.7036,-3.6631,-3.6405,0.0,0.0,0.0,0.0,0.0,0.0,-3.6405,-3.6405,0.0,-3.7086,-3.7638,-3.8203,-3.8781,-3.9116,-3.9287,-3.9362,-3.9141,-3.7832,-3.6185,-3.5979,-3.5925,-3.5847,-3.555,-3.5461,-3.5286,-3.425,-3.367,-3.3126,-3.2093,-3.1536,-3.1143,-3.0677,-3.0563,-3.047,-3.0087,-2.9994,-2.9994,-2.9994,-2.9994,-2.9994,-2.9994,-2.9994,-2.9994,-2.9994,-2.9994,-2.9963,-2.9891,-2.9477,-2.9011,-2.8545,-2.809,-2.7665,-2.734,-2.7309,-2.7309,-2.7309,-2.7309,-2.7309,-2.7309,-2.7262,-2.7023,-2.6602,-2.6496,-2.6255,-2.5781,-2.5781,-2.6133,-2.6814,-2.7191,-2.779,-2.8498,-2.8931,-2.893,-2.8684,-2.8684,-2.8568,-2.8291,-2.8291,-2.8291,-2.8291,-2.8291,-2.8506,-2.8867,-2.9297,-2.9678,-2.998,0.0,0.0,0.0,0.0,0.0,0.0,0.0,-3.974,-3.965,-4.0049,-4.0375,-4.0852,-4.1668,-4.1769,-4.1882,-4.217,-4.1932,-4.1656,-4.1392,-4.084,-4.04,-4.0136,-3.9597,-3.917,-3.8932,-3.8341,-3.7776,-3.7186,-3.6923,-3.6681,-3.6405,0.0,0.0,0.0,0.0,-3.6405,0.0,0.0,-3.6935,-3.7262,-3.8115,-3.8617,-3.8982,-3.9484,-3.9697,-3.9697,-3.9697,-3.8973,-3.7938,-3.7287,-3.7073,-3.6954,-3.6414,-3.6185,-3.6077,-3.5542,-3.5209,-3.4755,-3.3331,-3.2786,-3.24,-3.1316,-3.0864,-3.0626,-3.0398,-3.016,-2.9994,-2.9994,-2.9994,-2.9994,-2.9994,-2.9994,-2.9994,-2.9994,-2.9994,-2.9994,-2.9994,-2.9601,-2.9228,-2.9001,-2.8566,-2.81,-2.7645,-2.7603,-2.751,-2.733,0.0,-2.7309,-2.7309,-2.7309,-2.7119,-2.6699,-2.6699,-2.6458,-2.5917,-2.6133,-2.6468,-2.6911,-2.7334,-2.7828,-2.841,-2.8734,-2.8727,-2.8514,-2.8621,-2.8568,-2.8291,-2.8291,-2.8291,-2.8291,-2.8291,-2.8555,-2.8975,-2.9414,-2.9834,-3.0234,0.0,-3.9126,0.0,0.0,-4.019,-4.0511,-4.0875,-4.1168,-4.121,-4.0918,-4.1241,-4.1731,-4.2326,-4.2389,-4.2564,-4.2936,-4.264,-4.2338,-4.2213,-4.1241,-4.0639,-4.0526,-3.9986,-3.9484,-3.9108,-3.8982,-3.8479,-3.755,-3.7299,-3.6958,-3.6405,-3.6405,0.0,0.0,0.0,0.0,-3.6619,-3.6998,-3.7324,-3.7626,-3.8554,-3.8994,-3.9094,-3.9534,-3.9697,-3.9697,-3.9697,-3.9697,-3.953,-3.8594,-3.8267,-3.8108,-3.7233,-3.6954,-3.69,-3.663,-3.6565,-3.6213,-3.4699,-3.4109,-3.3628,-3.2268,-3.1454,-3.0926,-3.0729,-3.0398,-3.0118,-3.0015,-2.9994,-2.9994,-2.9994,-2.9994,-2.9994,-2.9994,-2.9994,-2.9994,-2.9994,-2.9684,-2.9415,-2.9321,-2.898,-2.8576,-2.8061,-2.7976,-2.7779,-2.7427,-2.7361,-2.7309,-2.7309,-2.7309,-2.7167,-2.69,-2.6853,-2.6602,-2.61,-2.6478,-2.6773,-2.7021,-2.7461,-2.7891,-2.8291,-2.8514,-2.8514,-2.8291,-2.8514,-2.8514,-2.8291,-2.8291,-2.8291,-2.8291,-2.8291,-2.8603,-2.9092,-2.9443,-2.9893,-3.04,0.0,0.0,0.0,0.0,0.0,-4.1802,-4.2333,-4.265,-4.2646,-4.2104,-4.2099,-4.2338,-4.2891,-4.2898,-4.2924,-4.2974,-4.2924,-4.274,-4.2238,-4.1593,-4.0987,-4.0538,-3.9986,-3.9672,-3.9622,-3.9132,-3.8869,-3.8756,-3.7688,-3.6958,-3.6405,-3.6405,-3.6405,0.0,-3.6405,-3.6681,-3.7111,-3.7161,-3.7776,-3.8768,-3.8881,-3.917,-3.9622,-3.9672,-3.9697,-3.9697,-3.9697,-3.9697,-3.9685,-3.9581,-3.953,-3.953,-3.9413,-3.9362,-3.9141,-3.8056,-3.7725,-3.7489,-3.6302,-3.5211,-3.4294,-3.3693,-3.274,-3.1692,-3.0874,-3.0657,-3.0501,-3.0087,-2.9994,-2.9994,-2.9994,-2.9994,-2.9994,-2.9994,-2.9994,-2.9994,-2.9994,-2.9953,-2.9777,-2.9352,-2.927,-2.9063,-2.8597,-2.8173,-2.7903,-2.7862,-2.7489,-2.7309,-2.7309,-2.7309,-2.7167,-2.69,-2.6651,-2.64,-2.61,-2.63,-2.6592,-2.7021,-2.7461,-2.7891,-2.8291,-2.8344,-2.8291,-2.8291,-2.8344,-2.8291,-2.8291,-2.8291,-2.8291,-2.8291,-2.8291,-2.8789,-2.9512,-2.9551,-3.0107,-3.083,0.0,0.0,0.0,0.0,0.0,0.0,-4.2993,-4.317,-4.3172,-4.2971,-4.2911,-4.2944,-4.3004,-4.2974,-4.2974,-4.2974,-4.2974,-4.2886,-4.266,-4.2133,-4.158,-4.0987,-4.0488,-4.0036,-3.9697,-3.9484,-3.9195,-3.8919,-3.8466,-3.7914,-3.7337,-3.701,-3.6908,-3.6908,-3.6908,-3.7161,-3.7701,-3.8052,-3.8454,-3.8957,-3.9233,-3.9496,-3.9697,-3.9697,-3.9697,-3.9697,-3.9697,-3.9697,-3.9697,-3.9697,-3.9697,-3.9697,-3.9697,-3.9697,-3.9594,-3.9141,-3.8985,-3.8712,-3.7554,-3.6911,-3.6162,-3.4615,-3.3647,-3.2795,-3.1743,-3.1081,-3.0839,-3.1305,-3.1132,-3.0733,-3.0141,-2.9994,-2.9994,-2.9994,-2.9994,-2.9994,-2.9994,-2.9994,-2.9922,-2.9746,-2.9715,-2.9539,-2.9073,-2.8607,-2.8224,-2.7945,-2.751,-2.7309,-2.7309,-2.7309,-2.7167,-2.69,-2.6651,-2.653,-2.6536,-2.6693,-2.6982,-2.7412,-2.7842,-2.8125,-2.8291,-2.8291,-2.8291,-2.8291,-2.8291,-2.8291,-2.8291,-2.8291,-2.8291,-2.831,-2.8574,-2.9043,-2.9655,-2.9853,-3.0351,-3.0889,-4.2213,0.0,-4.2121,-4.3101,-4.3271,-4.3349,-4.3749,-4.3786,-4.3767,-4.3674,-4.367,-4.3517,-4.303,-4.2974,-4.2974,-4.2974,-4.2974,-4.2974,-4.2974,-4.2514,-4.1907,-4.1313,-4.0814,-4.0262,-3.9697,-3.9697,-3.9496,-3.9158,-3.9007,-3.858,-3.8002,-3.7437,-3.7274,-3.7425,-3.7425,-3.7739,-3.8291,-3.8693,-3.9007,-3.9145,-3.9534,-3.9697,-3.9697,-3.9697,-3.9697,-3.9697,-3.9697,-3.9697,-3.9697,-3.9697,-3.9697,-3.9697,-3.9697,-3.9697,-3.9697,-3.9697,-3.9697,-3.953,-3.8659,-3.8161,-3.7512,-3.5881,-3.4758,-3.3813,-3.3188,-3.2272,-3.1838,-3.2633,-3.2171,-3.1483,-3.0991,-3.0692,-3.0495,-3.0495,-3.0495,-3.0339,-3.0047,-2.9994,-2.9994,-2.9994,-2.9994,-2.987,-2.9539,-2.9094,-2.8628,-2.8162,-2.7707,-2.7396,-2.7177,-2.7167,-2.7081,-2.6794,-2.6627,-2.6643,-2.6804,-2.7076,-2.7363,-2.7718,-2.8096,-2.8344,-2.8408,-2.8408,-2.8344,-2.8291,-2.8291,-2.8291,-2.8291,-2.8291,-2.8291,-2.833,-2.875,-2.9189,-2.9675,-3.0039,-3.0488,-3.0889,-4.4478,-4.3668,-4.318,-4.3755,-4.3912,-4.4055,-4.4576,-4.4655,-4.4613,-4.4313,-4.4313,-4.3984,-4.3085,-4.2974,-4.2974,-4.2974,-4.2974,-4.2974,-4.2974,-4.2514,-4.1907,-4.1313,-4.0814,-4.0262,-3.9697,-3.9697,-3.9697,-3.9685,-3.9132,-3.858,-3.8002,-3.7437,-3.7475,-3.8002,-3.8002,-3.8316,-3.8906,-3.8919,-3.9182,-3.9685,-3.9697,-3.9697,-3.9697,-3.9697,-3.9697,-3.9697,-3.9697,-3.9697,-3.9697,-3.9697,-3.9697,-3.9697,-3.9697,-3.9697,-3.9697,-3.9697,-3.9697,-3.9697,-3.9685,-3.8816,-3.7885,-3.7897,-3.6154,-3.4659,-3.5329,-3.4583,-3.3777,-3.3959,-3.2734,-3.1931,-3.2951,-3.2286,-3.1575,-3.1575,-3.1575,-3.1227,-3.0141,-2.9994,-2.9994,-2.9994,-2.9994,-2.9994,-2.9984,-2.957,-2.9104,-2.8638,-2.8173,-2.7582,-2.6921,-2.69,-2.6805,-2.6496,-2.6605,-2.6735,-2.6804,-2.7371,-2.7708,-2.7718,-2.8096,-2.8461,-2.8684,-2.8684,-2.8568,-2.8291,-2.8291,-2.8291,-2.8291,-2.8291,-2.8291,-2.833,-2.875,-2.9189,-2.9675,-3.0039,-3.0488,-3.0889,-4.4004,-4.3848,-4.3781,-4.4356,-4.446,-4.4513,-4.4642,-4.4668,-4.4626,-4.4367,-4.4313,-4.4094,-4.3666,-4.3419,-4.3184,-4.303,-4.2974,-4.2974,-4.2974,-4.2811,-4.2527,-4.1919,-4.1379,-4.0761,-4.0275,-3.9885,-3.9697,-3.9697,-3.9521,-3.9145,-3.8592,-3.8466,-3.8429,-3.8592,-3.8592,-3.8906,-3.9433,-3.9433,-3.9534,-3.9697,-3.9697,-3.9697,-3.9697,-3.9697,-3.9697,-3.9697,-3.9697,-3.9697,-3.9697,-3.9697,-3.9697,-3.9697,-3.9697,-3.9697,-3.9697,-3.9697,-3.9697,-3.9697,-3.9697,-3.9413,-3.8933,-3.8108,-3.7352,-3.6649,-3.6098,-3.5746,-3.523,-3.4198,-3.3897,-3.3685,-3.325,-3.2901,-3.2689,-3.2689,-3.2083,-3.1483,-3.1135,-3.0443,-2.9994,-2.9994,-2.9994,-2.9994,-2.9994,-2.958,-2.9239,-2.9094,-2.8359,-2.7689,-2.7197,-2.6996,-2.7081,-2.7465,-2.702,-2.7142,-2.7953,-2.7789,-2.7865,-2.8096,-2.8232,-2.8344,-2.8408,-2.8408,-2.8398,-2.8291,-2.8291,-2.8291,-2.8291,-2.8291,-2.8291,-2.8359,-2.9082,-2.9443,-2.9658,-3.04,-3.0762,-3.0889,-4.5373,-4.5454,-4.5418,-4.5329,-4.5342,-4.5194,-4.4776,-4.4668,-4.4626,-4.4463,-4.4463,-4.4367,-4.4052,-4.3861,-4.3572,-4.3184,-4.3129,-4.3141,-4.303,-4.2974,-4.2791,-4.2238,-4.163,-4.1025,-4.0526,-3.9973,-3.9697,-3.9697,-3.9697,-3.9521,-3.9182,-3.9182,-3.9182,-3.9182,-3.9182,-3.9371,-3.9697,-3.9697,-3.9697,-3.9697,-3.9697,-3.9697,-3.9697,-3.9697,-3.9697,-3.9697,-3.9697,-3.9697,-3.9697,-3.9697,-3.9697,-3.9697,-3.9697,-3.9697,-3.9697,-3.9697,-3.9697,-3.9697,-3.9697,-3.9697,-3.953,-3.8764,-3.8226,-3.7725,-3.7007,-3.69,-3.6682,-3.5678,-3.5132,-3.4727,-3.4434,-3.4091,-3.3796,-3.3796,-3.3239,-3.2678,-3.2286,-3.1289,-3.0588,-3.0588,-3.0245,-2.9994,-2.9994,-2.9735,-2.9497,-2.9321,-2.8773,-2.8245,-2.779,-2.7372,-2.7388,-2.7887,-2.7512,-2.761,-2.8323,-2.8075,-2.8027,-2.8291,-2.8408,-2.8408,-2.8291,-2.8408,-2.8408,-2.8291,-2.8291,-2.8291,-2.8291,-2.8291,-2.8389,-2.8594,-2.9297,-2.9668,-2.9893,-3.0625,-3.0889,-3.0889,-4.803,-4.803,-4.7675,-4.6583,-4.6374,-4.6019,-4.4884,-4.4668,-4.4668,-4.4668,-4.4668,-4.4626,-4.4367,-4.4313,-4.4081,-4.3504,-4.3449,-4.3295,-4.303,-4.2974,-4.2803,-4.2288,-4.1693,-4.1087,-4.0588,-4.0036,-3.9735,-3.9697,-3.9697,-3.9697,-3.9697,-3.9697,-3.9697,-3.9697,-3.9697,-3.9697,-3.9697,-3.9697,-3.9697,-3.9697,-3.9697,-3.9697,-3.9697,-3.9697,-3.9697,-3.9697,-3.9697,-3.9697,-3.9697,-3.9697,-3.9697,-3.9697,-3.9697,-3.9697,-3.9697,-3.9697,-3.9697,-3.9697,-3.9697,-3.9697,-3.9697,-3.9697,-3.8868,-3.8003,-3.8003,-3.8044,-3.8052,-3.8015,-3.6407,-3.5271,-3.6216,-3.5571,-3.4933,-3.4933,-3.4824,-3.4434,-3.3449,-3.2387,-3.1677,-3.1626,-3.0744,-3.0099,-2.9994,-3.0047,-2.9922,-2.9384,-2.9373,-2.9226,-2.8731,-2.8078,-2.778,-2.7976,-2.8061,-2.8167,-2.8197,-2.8298,-2.8344,-2.8344,-2.8568,-2.8568,-2.8344,-2.8568,-2.8514,-2.8291,-2.8291,-2.831,-2.834,-2.834,-2.8584,-2.9004,-2.9443,-2.9853,-3.0254,-3.0723,-3.0889,-3.0889,-4.803,-4.803,-4.7675,-4.6583,-4.6374,-4.6019,-4.4884,-4.4668,-4.4668,-4.4668,-4.4668,-4.4681,-4.4626,-4.4626,-4.4463,-4.4136,-4.3683,-4.3295,-4.303,-4.2974,-4.2924,-4.2841,-4.2258,-4.1706,-4.11,-4.0614,-4.0111,-3.9697,-3.9697,-3.9697,-3.9697,-3.9697,-3.9697,-3.9697,-3.9697,-3.9697,-3.9697,-3.9697,-3.9697,-3.9697,-3.9697,-3.9697,-3.9697,-3.9697,-3.9697,-3.9697,-3.9697,-3.9697,-3.9697,-3.9697,-3.9697,-3.9697,-3.9697,-3.9697,-3.9697,-3.9697,-3.9697,-3.9697,-3.9697,-3.9697,-3.9697,-3.9697,-3.9478,-3.9258,-3.9258,-3.8953,-3.8542,-3.8103,-3.7255,-3.6559,-3.6433,-3.6216,-3.6013,-3.6013,-3.5319,-3.4727,-3.4434,-3.3487,-3.2538,-3.1677,-3.1381,-3.0888,-3.0099,-3.0733,-3.0845,-2.9891,-3.0285,-3.028,-2.9704,-2.9177,-2.893,-2.8993,-2.8582,-2.8691,-2.9233,-2.9029,-2.892,-2.892,-2.8558,-2.8461,-2.8621,-2.8461,-2.8344,-2.8291,-2.8291,-2.8476,-2.8769,-2.8769,-2.9023,-2.9453,-2.9883,-3.0107,-3.0254,-3.0723,-3.0889,-3.0889,-4.9435,-4.9435,-4.9141,-4.8044,-4.7841,-4.7331,-4.5702,-4.5502,-4.5288,-4.4776,-4.4668,-4.4668,-4.4668,-4.4668,-4.4572,-4.4313,-4.3874,-4.353,-4.3184,-4.3085,-4.2974,-4.2974,-4.2502,-4.1907,-4.13,-4.0802,-4.0249,-3.9697,-3.9697,-3.9697,-3.9697,-3.9697,-3.9697,-3.9697,-3.9697,-3.9697,-3.9697,-3.9697,-3.9697,-3.9697,-3.9697,-3.9697,-3.9697,-3.9697,-3.9697,-3.9697,-3.9697,-3.9697,-3.9697,-3.9697,-3.9697,-3.9697,-3.9697,-3.9697,-3.9697,-3.9697,-3.9697,-3.9697,-3.9697,-3.9697,-3.9697,-3.9697,-3.9697,-3.9697,-3.9697,-3.927,-3.8705,-3.8128,-3.7563,-3.7023,-3.6505,-3.6405,-3.6405,-3.6405,-3.5918,-3.5523,-3.5523,-3.4629,-3.3735,-3.3128,-3.2174,-3.1586,-3.1443,-3.1534,-3.1586,-3.1443,-3.1789,-3.1605,-3.0774,-3.0489,-3.0105,-2.9622,-2.9197,-2.9215,-2.9606,-2.9142,-2.8877,-2.8708,-2.8558,-2.8514,-2.8514,-2.8721,-2.8692,-2.8594,-2.8789,-2.9004,-2.9219,-2.9219,-2.9473,-2.9883,-3.0107,-3.0322,-3.0547,-3.0801,-3.0889,-3.0889,-5.1214,-5.1214,-5.087,-4.9771,-4.9625,-4.8859,-4.6725,-4.6374,-4.6019,-4.483,-4.4668,-4.4668,-4.4668,-4.4668,-4.4626,-4.4367,-4.4107,-4.3819,-4.3517,-4.3184,-4.3085,-4.3085,-4.2577,-4.1982,-4.13,-4.0714,-4.0162,-3.9697,-3.9697,-3.9697,-3.9697,-3.9697,-3.9697,-3.9697,-3.9697,-3.9697,-3.9697,-3.9697,-3.9697,-3.9697,-3.9697,-3.9697,-3.9697,-3.9697,-3.9697,-3.9697,-3.9697,-3.9697,-3.9697,-3.9697,-3.9697,-3.9697,-3.9697,-3.9697,-3.9697,-3.9697,-3.9697,-3.9697,-3.9697,-3.9697,-3.9697,-3.9697,-3.9697,-3.9697,-3.9697,-3.9333,-3.8806,-3.814,-3.7638,-3.7111,-3.6518,-3.6405,-3.6405,-3.6405,-3.6405,-3.6405,-3.6405,-3.5619,-3.4969,-3.4836,-3.3178,-3.2387,-3.3151,-3.2538,-3.2387,-3.3151,-3.335,-3.2989,-3.188,-3.1677,-3.1176,-3.0297,-2.9879,-2.9659,-2.9659,-2.9036,-2.8674,-2.8558,-2.8621,-2.8597,-2.8559,-2.9105,-2.9193,-2.9033,-2.9414,-2.96,-2.9668,-2.9668,-2.9912,-3.0303,-3.0303,-3.0547,-3.0889,-3.0889,-3.0889,-3.0889,-5.1214,-5.1214,-5.087,-4.9771,-4.9625,-4.8859,-4.6725,-4.6374,-4.6019,-4.483,-4.4668,-4.4668,-4.4668,-4.4668,-4.4681,-4.4626,-4.4367,-4.4107,-4.3832,-4.353,-4.3338,-4.3338,-4.3053,-4.2371,-4.1313,-4.0337,-3.9772,-3.9697,-3.9697,-3.9697,-3.9697,-3.9697,-3.9697,-3.9697,-3.9697,-3.9697,-3.9697,-3.9697,-3.9697,-3.9697,-3.9697,-3.9697,-3.9697,-3.9697,-3.9697,-3.9697,-3.9697,-3.9697,-3.9697,-3.9697,-3.9697,-3.9697,-3.9697,-3.9697,-3.9697,-3.9697,-3.9697,-3.9697,-3.9697,-3.9697,-3.9697,-3.9697,-3.9697,-3.9697,-3.9697,-3.9634,-3.927,-3.8228,-3.7939,-3.7563,-3.6593,-3.6405,-3.6405,-3.6405,-3.6405,-3.6405,-3.6405,-3.6263,-3.5823,-3.4933,-3.4532,-3.403,-3.325,-3.3883,-3.3981,-3.325,-3.4042,-3.408,-3.3001,-3.2083,-3.1524,-3.1381,-3.0443,-2.9942,-2.9942,-2.9353,-2.929,-2.9732,-2.8824,-2.8809,-2.9543,-2.9169,-2.9176,-2.9473,-2.9597,-2.9766,-3.0098,-3.0098,-3.0371,-3.0781,-3.0781,-3.083,-3.0889,-3.0889,-3.0889,-3.0889,-5.1214,-5.1214,-5.1026,-5.057,-5.046,-4.9917,-4.8346,-4.8094,-4.774,-4.6608,-4.5953,-4.5609,-4.5609,-4.5087,-4.4668,-4.4668,-4.4572,-4.4463,-4.4367,-4.3929,-4.3585,-4.3394,-4.3295,-4.2612,-4.1313,-4.0262,-3.9697,-3.9697,-3.9697,-3.9697,-3.9697,-3.9697,-3.9697,-3.9697,-3.9697,-3.9697,-3.9697,-3.9697,-3.9697,-3.9697,-3.9697,-3.9697,-3.9697,-3.9697,-3.9697,-3.9697,-3.9697,-3.9697,-3.9697,-3.9697,-3.9697,-3.9697,-3.9697,-3.9697,-3.9697,-3.9697,-3.9697,-3.9697,-3.9697,-3.9697,-3.9697,-3.9697,-3.9697,-3.9697,-3.9697,-3.9697,-3.9371,-3.8241,-3.8002,-3.7663,-3.6619,-3.6405,-3.6405,-3.6405,-3.6405,-3.6405,-3.6405,-3.6405,-3.6216,-3.5715,-3.5126,-3.4836,-3.4933,-3.4824,-3.4824,-3.4933,-3.5367,-3.5174,-3.4141,-3.3039,-3.2185,-3.1626,-3.0536,-2.9942,-2.9774,-2.9501,-2.9353,-2.9321,-2.917,-2.9164,-2.9327,-2.9682,-2.9839,-2.9922,-3.0176,-3.0391,-3.0576,-3.0576,-3.0703,-3.0889,-3.0889,-3.0889,-3.0889,-3.0889,-3.0889,-3.0889,-5.1214,-5.1214,-5.1214,-5.1214,-5.1214,-5.0822,-4.9771,-4.9625,-4.9205,-4.8131,-4.7266,-4.6673,-4.6426,-4.5609,-4.4979,-4.4722,-4.4668,-4.4668,-4.4668,-4.4313,-4.3929,-4.3628,-4.3318,-4.262,-4.1515,-4.0354,-3.9788,-3.9788,-3.9749,-3.9697,-3.9697,-3.9697,-3.9697,-3.9697,-3.9697,-3.9697,-3.9697,-3.9697,-3.9697,-3.9697,-3.9697,-3.9697,-3.9697,-3.9697,-3.9697,-3.9697,-3.9697,-3.9697,-3.9697,-3.9697,-3.9697,-3.9697,-3.9697,-3.9697,-3.9697,-3.9697,-3.9697,-3.9697,-3.9697,-3.9697,-3.9697,-3.9697,-3.9697,-3.9697,-3.9697,-3.9697,-3.9371,-3.8241,-3.8002,-3.7663,-3.6619,-3.6405,-3.6405,-3.6405,-3.6405,-3.6405,-3.6405,-3.6405,-3.6405,-3.6405,-3.5667,-3.5523,-3.631,-3.5667,-3.5511,-3.6358,-3.6405,-3.6061,-3.5223,-3.3944,-3.2588,-3.1278,-3.0443,-2.9889,-2.9722,-2.9606,-2.9404,-2.9046,-2.9537,-2.9689,-2.9459,-3.025,-3.0549,-3.0486,-3.079,-3.0889,-3.0889,-3.0889,-3.0889,-3.0889,-3.0889,-3.0889,-3.0889,-3.0889,-3.0889,-3.0889,-5.1214,-5.1214,-5.1214,-5.1214,-5.1214,-5.0822,-4.9771,-4.9625,-4.9205,-4.8131,-4.7915,-4.7522,-4.6531,-4.6321,-4.5861,-4.4776,-4.4668,-4.4668,-4.4668,-4.4681,-4.4518,-4.4258,-4.2969,-4.2259,-4.2129,-4.0758,-4.0083,-4.0083,-3.9839,-3.9697,-3.9697,-3.9697,-3.9697,-3.9697,-3.9697,-3.9697,-3.9697,-3.9697,-3.9697,-3.9697,-3.9697,-3.9697,-3.9697,-3.9697,-3.9697,-3.9697,-3.9697,-3.9697,-3.9697,-3.9697,-3.9697,-3.9697,-3.9697,-3.9697,-3.9697,-3.9697,-3.9697,-3.9697,-3.9697,-3.9697,-3.9697,-3.9697,-3.9697,-3.9697,-3.9697,-3.9697,-3.9371,-3.8241,-3.8002,-3.7663,-3.6619,-3.6405,-3.6405,-3.6405,-3.6405,-3.6405,-3.6405,-3.6405,-3.6405,-3.6405,-3.631,-3.631,-3.6405,-3.631,-3.631,-3.6405,-3.6405,-3.6358,-3.631,-3.4337,-3.2246,-3.0193,-3.0047,-2.9994,-2.9994,-2.9722,-2.9768,-3.0099,-2.9894,-3.0173,-3.091,-3.0764,-3.0908,-3.1227,-3.0986,-3.0889,-3.0889,-3.0889,-3.0889,-3.0889,-3.0889,-3.0889,-3.0889,-3.0889,-3.0889,-3.0889,-5.1214,-5.1214,-5.1214,-5.1214,-5.1214,-5.1073,-5.0665,-5.057,-5.046,-5.0047,-4.9401,-4.8859,-4.841,-4.7191,-4.6216,-4.5808,-4.5087,-4.4668,-4.4668,-4.4668,-4.4572,-4.4313,-4.2946,-4.2182,-4.2182,-4.0964,-4.0338,-4.0338,-4.0083,-3.9929,-3.9929,-3.9788,-3.9697,-3.9697,-3.9697,-3.9697,-3.9697,-3.9697,-3.9697,-3.9697,-3.9697,-3.9697,-3.9697,-3.9697,-3.9697,-3.9697,-3.9697,-3.9697,-3.9697,-3.9697,-3.9697,-3.9697,-3.9697,-3.9697,-3.9697,-3.9697,-3.9697,-3.9697,-3.9697,-3.9697,-3.9697,-3.9697,-3.9697,-3.9697,-3.9697,-3.9697,-3.9371,-3.8241,-3.8002,-3.7663,-3.6619,-3.6405,-3.6405,-3.6405,-3.6405,-3.6405,-3.6405,-3.6405,-3.6405,-3.6405,-3.6405,-3.6405,-3.6405,-3.6405,-3.6405,-3.6405,-3.6405,-3.6405,-3.6405,-3.4385,-3.2207,-3.0047,-2.9994,-2.9994,-2.9994,-3.0168,-3.0224,-3.0237,-3.0689,-3.0959,-3.1134,-3.1301,-3.1349,-3.1267,-3.1218,-3.1054,-3.0889,-3.0889,-3.0889,-3.0889,-3.0889,-3.0889,-3.0889,-3.0889,-3.0889,-3.0889,-5.1214,-5.1214,-5.1214,-5.1214,-5.1214,-5.1214,-5.1214,-5.1214,-5.1214,-5.1214,-5.057,-4.9965,-4.9625,-4.8296,-4.7139,-4.6478,-4.5702,-4.5087,-4.4722,-4.4668,-4.4626,-4.4422,-4.3159,-4.2446,-4.2446,-4.1222,-4.0643,-4.0643,-4.0338,-4.0236,-4.0236,-3.9942,-3.9839,-3.9839,-3.9736,-3.9697,-3.9697,-3.9697,-3.9697,-3.9697,-3.9697,-3.9697,-3.9697,-3.9697,-3.9697,-3.9697,-3.9697,-3.9697,-3.9697,-3.9697,-3.9697,-3.9697,-3.9697,-3.9697,-3.9697,-3.9697,-3.9697,-3.9697,-3.9697,-3.9697,-3.9697,-3.9697,-3.9697,-3.9697,-3.9697,-3.9559,-3.917,-3.8203,-3.7864,-3.7462,-3.6581,-3.6405,-3.6405,-3.6405,-3.6405,-3.6405,-3.6405,-3.6405,-3.6405,-3.6405,-3.6405,-3.6405,-3.6405,-3.6405,-3.6405,-3.6405,-3.6405,-3.6263,-3.5918,-3.4483,-3.2768,-3.081,-3.0716,-3.0632,-3.0429,-3.0594,-3.065,-3.0646,-3.139,-3.1646,-3.1515,-3.1819,-3.1787,-3.1441,-3.1325,-3.116,-3.0889,-3.0889,-3.0889,-3.0889,-3.0889,-3.0889,-3.0889,-3.0889,-3.0889,-3.0889,-5.1214,-5.1214,-5.1214,-5.1214,-5.1214,-5.1214,-5.1214,-5.1214,-5.1214,-5.1214,-5.1214,-5.0775,-4.9722,-4.9625,-4.8759,-4.6635,-4.6426,-4.5914,-4.4776,-4.4722,-4.4722,-4.4668,-4.3637,-4.3023,-4.301,-4.1619,-4.0883,-4.0883,-4.0643,-4.0504,-4.0504,-4.0236,-4.007,-4.007,-3.9839,-3.9697,-3.9697,-3.9697,-3.9697,-3.9697,-3.9697,-3.9697,-3.9697,-3.9697,-3.9697,-3.9697,-3.9697,-3.9697,-3.9697,-3.9697,-3.9697,-3.9697,-3.9697,-3.9697,-3.9697,-3.9697,-3.9697,-3.9697,-3.9697,-3.9697,-3.9697,-3.9697,-3.9697,-3.9697,-3.9697,-3.927,-3.8705,-3.8128,-3.7563,-3.7023,-3.6505,-3.6405,-3.6405,-3.6405,-3.6405,-3.6405,-3.6405,-3.6405,-3.6405,-3.6405,-3.6405,-3.6405,-3.6405,-3.6405,-3.6405,-3.6405,-3.6405,-3.5918,-3.4884,-3.4787,-3.4018,-3.2348,-3.2317,-3.204,-3.1425,-3.0926,-3.1034,-3.1631,-3.1865,-3.2112,-3.2305,-3.2305,-3.2133,-3.1787,-3.1441,-3.117,-3.0898,-3.0889,-3.0889,-3.0889,-3.0889,-3.0889,-3.0889,-3.0889,-3.0889,-3.0889,-5.1214,-5.1214,-5.1214,-5.1214,-5.1214,-5.1214,-5.1214,-5.1214,-5.1214,-5.1214,-5.1214,-5.1073,-5.0775,-5.0061,-4.9317,-4.871,-4.7943,-4.7074,-4.5953,-4.5914,-4.5369,-4.42,-4.3415,-4.2827,-4.2435,-4.1589,-4.1161,-4.1161,-4.0896,-4.0795,-4.0782,-4.0491,-4.0287,-4.007,-4.0032,-3.989,-3.9697,-3.9697,-3.9697,-3.9697,-3.9697,-3.9697,-3.9697,-3.9697,-3.9697,-3.9697,-3.9697,-3.9697,-3.9697,-3.9697,-3.9697,-3.9697,-3.9697,-3.9697,-3.9697,-3.9697,-3.9697,-3.9697,-3.9697,-3.9697,-3.9697,-3.9697,-3.9697,-3.9697,-3.9697,-3.927,-3.8705,-3.8128,-3.7563,-3.7023,-3.6505,-3.6405,-3.6405,-3.6405,-3.6405,-3.6405,-3.6405,-3.6405,-3.6405,-3.6405,-3.6405,-3.6405,-3.6405,-3.6405,-3.6405,-3.6405,-3.6405,-3.6079,-3.5415,-3.5378,-3.4958,-3.4066,-3.4025,-3.376,-3.3116,-3.2133,-3.1709,-3.1875,-3.2308,-3.2535,-3.2555,-3.2555,-3.243,-3.2133,-3.2076,-3.1845,-3.1508,-3.1276,-3.116,-3.116,-3.0937,-3.0889,-3.0889,-3.0889,-3.0889,-3.0889,-5.1214,-5.1214,-5.1214,-5.1214,-5.1214,-5.1214,-5.1214,-5.1214,-5.1214,-5.1214,-5.1214,-5.1214,-5.1214,-5.0618,-5.0076,-4.9625,-4.8646,-4.7726,-4.7074,-4.6403,-4.5504,-4.4239,-4.323,-4.2513,-4.2224,-4.1611,-4.1311,-4.1311,-4.1147,-4.1047,-4.1047,-4.0795,-4.0593,-4.0427,-4.0338,-4.0083,-3.9839,-3.9839,-3.9788,-3.9697,-3.9697,-3.9697,-3.9697,-3.9697,-3.9697,-3.9697,-3.9697,-3.9697,-3.9697,-3.9697,-3.9697,-3.9697,-3.9697,-3.9697,-3.9697,-3.9697,-3.9697,-3.9697,-3.9697,-3.9697,-3.9697,-3.9697,-3.9697,-3.9697,-3.9697,-3.9094,-3.8429,-3.8078,-3.74,-3.6807,-3.6468,-3.6405,-3.6405,-3.6405,-3.6405,-3.6405,-3.6405,-3.6405,-3.6405,-3.6405,-3.6405,-3.6405,-3.6405,-3.6405,-3.6505,-3.6719,-3.6885,-3.6907,-3.6579,-3.6541,-3.6273,-3.574,-3.5711,-3.5168,-3.4087,-3.3335,-3.2742,-3.2256,-3.2545,-3.2669,-3.2669,-3.2669,-3.2545,-3.2305,-3.2305,-3.2133,-3.1787,-3.1556,-3.1441,-3.1267,-3.1102,-3.0995,-3.0889,-3.0889,-3.0889,-3.0889,-5.1214,-5.1214,-5.1214,-5.1214,-5.1214,-5.1214,-5.1214,-5.1214,-5.1214,-5.1214,-5.1214,-5.1214,-5.1214,-5.1214,-5.0822,-4.982,-4.8844,-4.8231,-4.8131,-4.6662,-4.5397,-4.4633,-4.3136,-4.2287,-4.2146,-4.1585,-4.1311,-4.1311,-4.1311,-4.1311,-4.1311,-4.1047,-4.0933,-4.0883,-4.0643,-4.0389,-4.0134,-4.0134,-3.9981,-3.9736,-3.9736,-3.9749,-3.9697,-3.9697,-3.9697,-3.9697,-3.9697,-3.9697,-3.9697,-3.9697,-3.9697,-3.9697,-3.9697,-3.9697,-3.9697,-3.9697,-3.9697,-3.9697,-3.9697,-3.9697,-3.9697,-3.9697,-3.9697,-3.9697,-3.9697,-3.8856,-3.809,-3.809,-3.7199,-3.648,-3.648,-3.6443,-3.6405,-3.6405,-3.6405,-3.6405,-3.6405,-3.6405,-3.643,-3.648,-3.648,-3.6505,-3.6556,-3.6556,-3.6769,-3.7211,-3.7713,-3.8027,-3.809,-3.809,-3.7866,-3.7372,-3.7332,-3.6496,-3.4792,-3.4803,-3.4099,-3.2669,-3.2669,-3.2669,-3.2669,-3.2669,-3.2555,-3.2373,-3.2373,-3.2143,-3.1913,-3.1845,-3.1672,-3.1383,-3.1392,-3.117,-3.0947,-3.0947,-3.0947,-3.0889,-5.1124,-5.1214,-5.1214,-5.1214,-5.1214,-5.1214,-5.1214,-5.1214,-5.1214,-5.1214,-5.1214,-5.1214,-5.1214,-5.1214,-5.112,-5.087,-5.0665,-5.0158,-4.9317,-4.8439,-4.6919,-4.4683,-4.3827,-4.2781,-4.1507,-4.1376,-4.1311,-4.1311,-4.1311,-4.1311,-4.1311,-4.1261,-4.1097,-4.0883,-4.0833,-4.0643,-4.0402,-4.0402,-4.0236,-4.0032,-4.0032,-3.989,-3.9697,-3.9697,-3.9697,-3.9697,-3.9697,-3.9697,-3.9697,-3.9697,-3.9697,-3.9697,-3.9697,-3.9697,-3.9697,-3.9697,-3.9697,-3.9697,-3.9697,-3.9697,-3.9697,-3.9697,-3.9697,-3.9697,-3.9697,-3.917,-3.868,-3.868,-3.7789,-3.7059,-3.7059,-3.6694,-3.6405,-3.6405,-3.6405,-3.6405,-3.6405,-3.6405,-3.6568,-3.7008,-3.7059,-3.7174,-3.7613,-3.7651,-3.7701,-3.7814,-3.7939,-3.8203,-3.8668,-3.868,-3.883,-3.9123,-3.9136,-3.8484,-3.7192,-3.718,-3.5663,-3.2669,-3.2669,-3.2669,-3.2669,-3.2669,-3.2669,-3.2612,-3.2612,-3.2555,-3.2498,-3.2258,-3.2133,-3.2076,-3.1787,-3.1508,-3.1218,-3.1218,-3.1112,-3.0889,-5.0212,-5.0541,-5.0704,-5.0704,-5.1005,-5.1214,-5.1214,-5.1214,-5.1214,-5.1214,-5.1214,-5.1214,-5.1214,-5.1214,-5.1214,-5.1214,-5.1214,-5.083,-4.9937,-4.8851,-4.7219,-4.5038,-4.3873,-4.2655,-4.1324,-4.1311,-4.1311,-4.1311,-4.1311,-4.1311,-4.1311,-4.1311,-4.1211,-4.1097,-4.1097,-4.0946,-4.0694,-4.0694,-4.0542,-4.0287,-4.0121,-4.0032,-3.989,-3.9736,-3.9697,-3.9697,-3.9697,-3.9697,-3.9697,-3.9697,-3.9697,-3.9697,-3.9697,-3.9697,-3.9697,-3.9697,-3.9697,-3.9697,-3.9697,-3.9697,-3.9697,-3.9697,-3.9697,-3.9697,-3.9697,-3.927,-3.8919,-3.8919,-3.8178,-3.7575,-3.7575,-3.7337,-3.7149,-3.7149,-3.7149,-3.7149,-3.7149,-3.7149,-3.7249,-3.755,-3.7575,-3.7688,-3.7977,-3.8253,-3.8417,-3.8417,-3.8668,-3.8944,-3.9245,-3.927,-3.9396,-3.9685,-3.9697,-3.9141,-3.7885,-3.7897,-3.6696,-3.4357,-3.4357,-3.4089,-3.3547,-3.3547,-3.3218,-3.2669,-3.2669,-3.2669,-3.268,-3.2555,-3.243,-3.2248,-3.1903,-3.1614,-3.1267,-3.117,-3.0995,-3.0889,-4.9374,-4.9733,-5.0077,-5.0077,-5.0569,-5.105,-5.105,-5.1154,-5.1214,-5.1214,-5.1214,-5.1214,-5.1214,-5.1214,-5.1214,-5.1214,-5.1124,-5.0764,-5.0226,-4.8746,-4.7178,-4.5633,-4.4115,-4.284,-4.1832,-4.1634,-4.1448,-4.1311,-4.1311,-4.1311,-4.1311,-4.1311,-4.1311,-4.1311,-4.1311,-4.1161,-4.0997,-4.0997,-4.0795,-4.0555,-4.0338,-4.0236,-4.0134,-3.9942,-3.9788,-3.9788,-3.9788,-3.9736,-3.9697,-3.9697,-3.9697,-3.9697,-3.9697,-3.9697,-3.9697,-3.9697,-3.9697,-3.9697,-3.9697,-3.9697,-3.9697,-3.9697,-3.9697,-3.9697,-3.9697,-3.9346,-3.9057,-3.9057,-3.8555,-3.8153,-3.8153,-3.8078,-3.8002,-3.8002,-3.8002,-3.8002,-3.8002,-3.8002,-3.804,-3.814,-3.8228,-3.8291,-3.8291,-3.873,-3.9057,-3.9057,-3.9433,-3.9697,-3.9697,-3.9697,-3.9697,-3.9697,-3.9697,-3.9206,-3.8214,-3.8214,-3.7725,-3.6792,-3.6792,-3.6088,-3.4803,-3.458,-3.3931,-3.3001,-3.2784,-3.2669,-3.2669,-3.2669,-3.2555,-3.2373,-3.2018,-3.1672,-3.1334,-3.0995,-3.0889,-3.0889,-4.9507,-4.9644,-4.9614,-4.9434,-4.9942,-5.033,-5.033,-5.0808,-5.1214,-5.1214,-5.1214,-5.1214,-5.1214,-5.1214,-5.1214,-5.1214,-5.0659,-5.0285,-5.0196,-4.8955,-4.7761,-4.6628,-4.5809,-4.49,-4.3937,-4.3033,-4.2186,-4.1311,-4.1311,-4.1311,-4.1311,-4.1311,-4.1311,-4.1311,-4.1311,-4.1261,-4.1261,-4.1261,-4.1097,-4.0833,-4.0782,-4.0643,-4.0453,-4.0402,-4.0236,-4.0032,-4.0032,-3.989,-3.9697,-3.9697,-3.9697,-3.9697,-3.9697,-3.9697,-3.9697,-3.9697,-3.9697,-3.9697,-3.9697,-3.9697,-3.9697,-3.9697,-3.9697,-3.9697,-3.9697,-3.9634,-3.9584,-3.9584,-3.9145,-3.8806,-3.8806,-3.8341,-3.8002,-3.8002,-3.8002,-3.8002,-3.8002,-3.8002,-3.8191,-3.8693,-3.9182,-3.9471,-3.9471,-3.9534,-3.9584,-3.9584,-3.9647,-3.9697,-3.9697,-3.9697,-3.9697,-3.9697,-3.9697,-3.9633,-3.9478,-3.9478,-3.9362,-3.9258,-3.9258,-3.8108,-3.5925,-3.4958,-3.4424,-3.4211,-3.3161,-3.2669,-3.2669,-3.2669,-3.2669,-3.2612,-3.2373,-3.2018,-3.1672,-3.1112,-3.0889,-3.0889,-4.8698,-4.8989,-4.9202,-4.8923,-4.9434,-4.9824,-4.9688,-5.0242,-5.0629,-5.0629,-5.099,-5.1214,-5.1214,-5.0885,-5.0629,-5.0629,-5.0077,-4.9538,-4.9164,-4.8611,-4.7689,-4.6289,-4.5938,-4.5326,-4.4312,-4.3876,-4.3416,-4.295,-4.1832,-4.1311,-4.1311,-4.1311,-4.1311,-4.1311,-4.1311,-4.1311,-4.1311,-4.1311,-4.1211,-4.1097,-4.0933,-4.0846,-4.0694,-4.0555,-4.0453,-4.0338,-4.0338,-4.0249,-4.0147,-4.0147,-4.0044,-3.9929,-3.9929,-3.9839,-3.9697,-3.9697,-3.9697,-3.9697,-3.9697,-3.9697,-3.9697,-3.9697,-3.9697,-3.9697,-3.9697,-3.9697,-3.9697,-3.9697,-3.9496,-3.9333,-3.9333,-3.912,-3.8956,-3.8956,-3.8956,-3.8956,-3.8956,-3.8956,-3.9044,-3.9295,-3.9546,-3.9697,-3.9697,-3.9697,-3.9697,-3.9697,-3.9697,-3.9697,-3.9697,-3.9697,-3.9697,-3.9697,-3.9697,-3.9697,-3.9697,-3.9697,-3.9697,-3.9697,-3.9697,-3.8816,-3.7126,-3.5979,-3.5124,-3.4424,-3.3218,-3.2669,-3.2669,-3.2669,-3.2669,-3.2669,-3.2201,-3.174,-3.1286,-3.1005,-3.0889,-3.0889]},{"header":{"parameterUnit":"m.s-1","parameterCategory":1,"la1":30.6,"la2":28.766,"lo1":-90.7593,"lo2":-88.6598,"dy":0.0162,"dx":0.0183,"nx":116,"ny":114,"refTime":"2023-06-24T12:00:00:Z","depth":0,"parameterNumber":3,"parameterNumberName":"V-component_of_WINDS"},"data":[0.0,0.0,0.0,0.0,0.0,0.0,0.0,0.0,0.0,0.0,0.0,0.0,0.0,0.0,0.0,0.0,0.0,0.0,0.0,0.0,0.0,0.0,0.0,0.0,0.0,0.0,0.0,0.0,0.0,0.0,0.0,0.0,0.0,0.0,0.0,0.0,0.0,0.0,0.0,0.0,0.0,0.0,0.0,0.0,0.0,0.0,0.0,0.0,0.0,0.0,0.0,0.0,0.0,0.0,0.0,0.0,0.0,0.0,0.0,0.0,0.0,0.0,0.0,0.0,0.0,0.0,0.0,0.0,0.0,0.0,0.0,0.0,0.0,0.0,0.0,0.0,0.0,0.0,0.0,0.0,0.0,0.0,0.0,0.0,0.0,0.0,0.0,0.0,0.0,0.0,0.0,0.0,0.0,0.0,0.0,0.0,0.0,0.0,0.0,0.0,0.0,0.0,0.0,0.0,0.0,0.0,0.0,0.0,0.0,0.0,0.0,0.0,0.0,0.0,0.0,0.0,0.0,0.0,0.0,0.0,0.0,0.0,0.0,0.0,0.0,0.0,0.0,0.0,0.0,0.0,0.0,0.0,0.0,0.0,0.0,0.0,0.0,0.0,0.0,0.0,0.0,0.0,0.0,0.0,0.0,0.0,0.0,0.0,0.0,0.0,0.0,0.0,0.0,0.0,0.0,0.0,0.0,0.0,0.0,0.0,0.0,0.0,0.0,0.0,0.0,0.0,0.0,0.0,0.0,0.0,0.0,0.0,0.0,0.0,0.0,0.0,0.0,0.0,0.0,0.0,0.0,0.0,0.0,0.0,0.0,0.0,0.0,0.0,0.0,0.0,0.0,0.0,0.0,0.0,0.0,0.0,0.0,0.0,0.0,0.0,0.0,0.0,0.0,0.0,0.0,0.0,0.0,0.0,0.0,0.0,0.0,0.0,0.0,0.0,0.0,0.0,0.0,0.0,0.0,0.0,0.0,0.0,0.0,0.0,0.0,0.0,0.0,0.0,0.0,0.0,0.0,0.0,0.0,0.0,0.0,0.0,0.0,0.0,0.0,0.0,0.0,0.0,0.0,0.0,0.0,0.0,0.0,0.0,0.0,0.0,0.0,0.0,0.0,0.0,0.0,0.0,0.0,0.0,0.0,0.0,0.0,0.0,0.0,0.0,0.0,0.0,0.0,0.0,0.0,0.0,0.0,0.0,0.0,0.0,0.0,0.0,0.0,0.0,0.0,0.0,0.0,0.0,0.0,0.0,0.0,0.0,0.0,0.0,0.0,0.0,0.0,0.0,0.0,0.0,0.0,0.0,0.0,0.0,0.0,0.0,0.0,0.0,0.0,0.0,0.0,0.0,0.0,0.0,0.0,0.0,0.0,0.0,0.0,0.0,0.0,0.0,0.0,0.0,0.0,0.0,0.0,0.0,0.0,0.0,0.0,0.0,0.0,0.0,0.0,0.0,0.0,0.0,0.0,0.0,0.0,0.0,0.0,0.0,0.0,0.0,0.0,0.0,0.0,0.0,0.0,0.0,0.0,0.0,0.0,0.0,0.0,0.0,0.0,0.0,0.0,0.0,0.0,0.0,0.0,0.0,0.0,0.0,0.0,0.0,0.0,0.0,0.0,0.0,0.0,0.0,0.0,0.0,0.0,0.0,0.0,0.0,0.0,0.0,0.0,0.0,0.0,0.0,0.0,0.0,0.0,0.0,0.0,0.0,0.0,0.0,0.0,0.0,0.0,0.0,0.0,0.0,0.0,0.0,0.0,0.0,0.0,0.0,0.0,0.0,0.0,0.0,0.0,0.0,0.0,0.0,0.0,0.0,0.0,0.0,0.0,0.0,0.0,0.0,0.0,0.0,0.0,0.0,0.0,0.0,0.0,0.0,0.0,0.0,0.0,0.0,0.0,0.0,0.0,0.0,0.0,0.0,0.0,0.0,0.0,0.0,0.0,0.0,0.0,0.0,0.0,0.0,0.0,0.0,0.0,0.0,0.0,0.0,0.0,0.0,0.0,0.0,0.0,0.0,0.0,0.0,0.0,0.0,0.0,0.0,0.0,0.0,0.0,0.0,0.0,0.0,0.0,0.0,0.0,0.0,0.0,0.0,0.0,0.0,0.0,0.0,0.0,0.0,0.0,0.0,0.0,0.0,0.0,0.0,0.0,0.0,0.0,0.0,0.0,0.0,0.0,0.0,0.0,0.0,0.0,0.0,0.0,0.0,0.0,0.0,0.0,0.0,0.0,0.0,0.0,0.0,0.0,0.0,0.0,0.0,0.0,0.0,0.0,0.0,0.0,0.0,0.0,0.0,0.0,0.0,0.0,0.0,0.0,0.0,0.0,0.0,0.0,0.0,0.0,0.0,0.0,0.0,0.0,0.0,0.0,0.0,0.0,0.0,0.0,0.0,0.0,0.0,0.0,0.0,0.0,0.0,0.0,0.0,0.0,0.0,0.0,0.0,0.0,0.0,0.0,0.0,0.0,0.0,0.0,0.0,0.0,0.0,0.0,0.0,0.0,0.0,0.0,0.0,0.0,0.0,0.0,0.0,0.0,0.0,0.0,0.0,0.0,0.0,0.0,0.0,0.0,0.0,0.0,0.0,0.0,0.0,0.0,0.0,0.0,0.0,0.0,0.0,0.0,0.0,0.0,0.0,0.0,0.0,0.0,0.0,0.0,0.0,0.0,0.0,0.0,0.0,0.0,0.0,0.0,0.0,0.0,0.0,0.0,0.0,0.0,0.0,0.0,0.0,0.0,0.0,0.0,0.0,0.0,0.0,0.0,0.0,0.0,0.0,0.0,0.0,0.0,0.0,0.0,0.0,0.0,0.0,0.0,0.0,0.0,0.0,0.0,0.0,0.0,0.0,0.0,0.0,0.0,0.0,0.0,0.0,0.0,0.0,0.0,0.0,0.0,0.0,0.0,0.0,0.0,0.0,0.0,0.0,0.0,0.0,0.0,0.0,0.0,0.0,0.0,0.0,0.0,0.0,0.0,0.0,0.0,0.0,0.0,0.0,0.0,0.0,0.0,0.0,0.0,0.0,0.0,0.0,0.0,0.0,0.0,0.0,0.0,0.0,0.0,0.0,0.0,0.0,0.0,0.0,0.0,0.0,0.0,0.0,0.0,0.0,0.0,0.0,0.0,0.0,0.0,0.0,0.0,0.0,0.0,0.0,0.0,0.0,0.0,0.0,0.0,0.0,0.0,0.0,0.0,0.0,0.0,0.0,0.0,0.0,0.0,0.0,0.0,0.0,0.0,0.0,0.0,0.0,0.0,0.0,0.0,0.0,0.0,0.0,0.0,0.0,0.0,0.0,0.0,0.0,0.0,0.0,0.0,0.0,0.0,0.0,0.0,0.0,0.0,0.0,0.0,0.0,0.0,0.0,0.0,0.0,0.0,0.0,0.0,0.0,0.0,0.0,0.0,0.0,0.0,0.0,0.0,0.0,0.0,0.0,0.0,0.0,0.0,0.0,0.0,0.0,0.0,0.0,0.0,0.0,0.0,0.0,0.0,0.0,0.0,0.0,0.0,0.0,0.0,0.0,0.0,0.0,0.0,0.0,0.0,0.0,0.0,0.0,0.0,0.0,0.0,0.0,0.0,0.0,0.0,0.0,0.0,0.0,0.0,0.0,0.0,0.0,0.0,0.0,0.0,0.0,0.0,0.0,0.0,0.0,0.0,0.0,0.0,0.0,0.0,0.0,0.0,0.0,0.0,0.0,0.0,0.0,0.0,0.0,0.0,0.0,0.0,0.0,0.0,0.0,0.0,0.0,0.0,0.0,0.0,0.0,0.0,0.0,0.0,0.0,0.0,0.0,0.0,0.0,0.0,0.0,0.0,0.0,0.0,0.0,0.0,0.0,0.0,0.0,0.0,0.0,0.0,0.0,0.0,0.0,0.0,0.0,0.0,0.0,0.0,0.0,0.0,0.0,0.0,0.0,0.0,0.0,0.0,0.0,0.0,0.0,0.0,0.0,0.0,0.0,0.0,0.0,0.0,0.0,0.0,0.0,0.0,0.0,0.0,0.0,0.0,0.0,0.0,0.0,0.0,0.0,0.0,0.0,0.0,0.0,0.0,0.0,0.0,0.0,0.0,0.0,0.0,0.0,0.0,0.0,0.0,0.0,0.0,0.0,0.0,0.0,0.0,0.0,0.0,0.0,0.0,0.0,0.0,0.0,0.0,0.0,0.0,0.0,0.0,0.0,0.0,0.0,0.0,0.0,0.0,0.0,0.0,0.0,0.0,0.0,0.0,0.0,0.0,0.0,0.0,0.0,0.0,0.0,0.0,0.0,0.0,0.0,0.0,0.0,0.0,0.0,0.0,0.0,0.0,0.0,0.0,0.0,0.0,0.0,0.0,0.0,0.0,0.0,0.0,0.0,0.0,0.0,0.0,0.0,0.0,0.0,0.0,0.0,0.0,0.0,0.0,0.0,0.0,0.0,0.0,0.0,0.0,0.0,0.0,0.0,0.0,0.0,0.0,0.0,0.0,0.0,0.0,0.0,0.0,0.0,0.0,0.0,0.0,0.0,0.0,0.0,0.0,0.0,0.0,0.0,0.0,0.0,0.0,0.0,0.0,0.0,0.0,0.0,0.0,0.0,0.0,0.0,0.0,0.0,0.0,0.0,0.0,0.0,0.0,0.0,0.0,0.0,0.0,0.0,0.0,0.0,0.0,0.0,0.0,0.0,0.0,0.0,0.0,0.0,0.0,0.0,0.0,0.0,0.0,0.0,0.0,0.0,0.0,0.0,0.0,0.0,0.0,0.0,0.0,0.0,0.0,0.0,0.0,0.0,0.0,0.0,0.0,0.0,0.0,0.0,0.0,0.0,0.0,0.0,0.0,0.0,0.0,0.0,0.0,0.0,0.0,0.0,0.0,0.0,0.0,0.0,0.0,0.0,0.0,0.0,0.0,0.0,0.0,0.0,0.0,0.0,0.0,0.0,0.0,0.0,0.0,0.0,0.0,0.0,0.0,0.0,0.0,0.0,0.0,0.0,0.0,0.0,0.0,0.0,0.0,0.0,0.0,0.0,0.0,0.0,0.0,0.0,0.0,0.0,0.0,0.0,0.0,0.0,0.0,0.0,0.0,0.0,0.0,0.0,0.0,0.0,0.0,0.0,0.0,0.0,0.0,0.0,0.0,0.0,0.0,0.0,0.0,0.0,0.0,0.0,0.0,0.0,0.0,0.0,0.0,0.0,0.0,0.0,0.0,0.0,0.0,0.0,0.0,0.0,0.0,0.0,0.0,0.0,0.0,0.0,0.0,0.0,0.0,0.0,0.0,0.0,0.0,0.0,0.0,0.0,0.0,0.0,0.0,0.0,0.0,0.0,0.0,0.0,0.0,0.0,0.0,0.0,0.0,0.0,0.0,0.0,0.0,0.0,0.0,0.0,0.0,0.0,0.0,0.0,0.0,0.0,0.0,0.0,0.0,0.0,0.0,0.0,0.0,0.0,0.0,0.0,0.0,0.0,0.0,0.0,0.0,0.0,0.0,0.0,0.0,0.0,0.0,0.0,0.0,0.0,0.0,0.0,0.0,0.0,0.0,0.0,0.0,0.0,0.0,0.0,0.0,0.0,0.0,0.0,0.0,0.0,0.0,0.0,0.0,0.0,0.0,0.0,0.0,0.0,0.0,0.0,0.0,0.0,0.0,0.0,0.0,0.0,0.0,0.0,0.0,0.0,0.0,0.0,0.0,0.0,0.0,0.0,0.0,0.0,0.0,0.0,0.0,0.0,0.0,0.0,0.0,0.0,0.0,0.0,0.0,0.0,0.0,0.0,0.0,0.0,0.0,0.0,0.0,0.0,0.0,0.0,0.0,0.0,0.0,0.0,0.0,0.0,0.0,0.0,0.0,0.0,0.0,0.0,0.0,0.0,0.0,0.0,0.0,0.0,0.0,0.0,0.0,0.0,0.0,0.0,0.0,0.0,0.0,0.0,0.0,0.0,0.0,0.0,0.0,0.0,0.0,0.0,0.0,0.0,0.0,0.0,0.0,0.0,0.0,0.0,0.0,0.0,0.0,0.0,0.0,0.0,0.0,0.0,0.0,0.0,0.0,0.0,0.0,0.0,0.0,0.0,0.0,0.0,-4.2065,0.0,0.0,0.0,0.0,0.0,0.0,0.0,0.0,0.0,0.0,0.0,0.0,0.0,0.0,0.0,0.0,0.0,0.0,0.0,0.0,0.0,0.0,0.0,0.0,0.0,0.0,0.0,0.0,0.0,0.0,0.0,0.0,0.0,0.0,0.0,0.0,0.0,0.0,0.0,0.0,0.0,0.0,0.0,0.0,0.0,0.0,0.0,0.0,0.0,0.0,0.0,0.0,0.0,0.0,0.0,0.0,0.0,0.0,0.0,0.0,0.0,0.0,0.0,0.0,0.0,0.0,0.0,0.0,0.0,0.0,0.0,0.0,0.0,0.0,0.0,0.0,0.0,0.0,0.0,0.0,0.0,0.0,0.0,0.0,0.0,0.0,0.0,0.0,0.0,0.0,0.0,0.0,0.0,0.0,0.0,0.0,0.0,0.0,0.0,0.0,0.0,0.0,0.0,0.0,0.0,0.0,0.0,0.0,0.0,0.0,0.0,0.0,0.0,0.0,0.0,0.0,-4.2546,0.0,0.0,0.0,0.0,0.0,0.0,0.0,0.0,0.0,0.0,0.0,0.0,0.0,0.0,0.0,0.0,0.0,0.0,0.0,0.0,0.0,0.0,0.0,0.0,0.0,0.0,0.0,0.0,0.0,0.0,0.0,0.0,0.0,0.0,0.0,0.0,0.0,0.0,0.0,0.0,0.0,0.0,0.0,0.0,0.0,0.0,0.0,0.0,0.0,0.0,0.0,0.0,0.0,0.0,0.0,0.0,0.0,0.0,0.0,0.0,0.0,0.0,0.0,0.0,0.0,0.0,0.0,0.0,0.0,0.0,0.0,0.0,0.0,0.0,0.0,0.0,0.0,0.0,0.0,0.0,0.0,0.0,0.0,0.0,0.0,0.0,0.0,0.0,0.0,0.0,0.0,0.0,0.0,0.0,0.0,0.0,0.0,0.0,0.0,0.0,0.0,0.0,0.0,0.0,0.0,0.0,0.0,0.0,-4.2866,-4.2938,-4.3082,-4.3082,-4.3122,-4.3237,-4.3122,-4.2901,-4.2629,-4.2566,0.0,0.0,0.0,0.0,0.0,0.0,0.0,0.0,0.0,0.0,0.0,0.0,0.0,0.0,0.0,0.0,0.0,0.0,0.0,0.0,0.0,0.0,0.0,0.0,0.0,0.0,0.0,0.0,0.0,0.0,0.0,0.0,0.0,0.0,0.0,0.0,0.0,0.0,0.0,0.0,0.0,0.0,0.0,0.0,0.0,0.0,0.0,0.0,0.0,0.0,0.0,0.0,0.0,0.0,0.0,0.0,0.0,0.0,0.0,0.0,0.0,0.0,0.0,0.0,0.0,0.0,0.0,0.0,0.0,0.0,0.0,0.0,0.0,0.0,0.0,0.0,0.0,0.0,0.0,0.0,0.0,0.0,0.0,0.0,0.0,0.0,-4.1801,-4.237,0.0,0.0,0.0,0.0,0.0,0.0,0.0,0.0,0.0,0.0,0.0,0.0,0.0,-4.2804,-4.2862,-4.2862,-4.3206,-4.3894,-4.3894,-4.4274,-4.4943,-4.4943,-4.4943,-4.4963,-4.4943,0.0,-4.2764,-4.2764,0.0,0.0,0.0,0.0,0.0,0.0,0.0,0.0,0.0,0.0,0.0,0.0,0.0,0.0,0.0,0.0,0.0,0.0,0.0,0.0,0.0,0.0,0.0,0.0,0.0,0.0,0.0,0.0,0.0,0.0,0.0,0.0,0.0,0.0,0.0,0.0,0.0,0.0,0.0,0.0,0.0,0.0,0.0,0.0,0.0,0.0,0.0,0.0,0.0,0.0,0.0,0.0,0.0,0.0,0.0,0.0,0.0,0.0,0.0,0.0,0.0,0.0,0.0,0.0,0.0,0.0,0.0,0.0,0.0,0.0,0.0,0.0,0.0,0.0,0.0,0.0,0.0,0.0,0.0,0.0,0.0,0.0,0.0,0.0,0.0,-4.2297,-4.2536,-4.2747,-4.2746,-4.2746,0.0,0.0,0.0,0.0,0.0,0.0,0.0,0.0,0.0,-4.3512,-4.3531,-4.3767,-4.424,-4.424,-4.4421,-4.4784,-4.5236,-4.5635,-4.5997,-4.645,-4.6649,-4.6631,-4.6178,-4.556,-4.4831,-4.4357,-4.3804,-4.3212,0.0,0.0,0.0,0.0,-4.2346,-4.2308,0.0,0.0,0.0,0.0,0.0,0.0,0.0,0.0,0.0,0.0,0.0,0.0,0.0,0.0,0.0,0.0,0.0,0.0,0.0,0.0,0.0,0.0,0.0,0.0,0.0,0.0,0.0,0.0,0.0,0.0,0.0,0.0,0.0,0.0,0.0,0.0,0.0,0.0,0.0,0.0,0.0,0.0,0.0,0.0,0.0,0.0,0.0,0.0,0.0,0.0,0.0,0.0,0.0,0.0,0.0,0.0,0.0,0.0,0.0,0.0,0.0,0.0,0.0,0.0,0.0,0.0,0.0,0.0,0.0,0.0,0.0,0.0,0.0,0.0,0.0,0.0,0.0,-4.2862,-4.2901,-4.2901,-4.2861,-4.2842,0.0,0.0,0.0,0.0,0.0,0.0,-4.3498,-4.3498,-4.3878,-4.4693,-4.4711,-4.5091,-4.5906,-4.5906,-4.6015,-4.6232,-4.683,-4.7228,-4.7446,-4.8043,-4.8315,-4.8279,-4.7681,-4.7428,-4.7319,-4.5825,-4.4802,-4.416,-4.4043,-4.366,-4.3135,-4.3077,-4.3018,-4.2997,0.0,0.0,0.0,0.0,0.0,0.0,0.0,0.0,0.0,0.0,0.0,0.0,0.0,0.0,0.0,0.0,0.0,0.0,0.0,0.0,0.0,0.0,0.0,0.0,0.0,0.0,0.0,0.0,0.0,0.0,0.0,0.0,0.0,0.0,0.0,0.0,0.0,0.0,0.0,0.0,0.0,0.0,0.0,0.0,0.0,0.0,0.0,0.0,0.0,0.0,0.0,0.0,0.0,0.0,0.0,0.0,0.0,0.0,0.0,0.0,0.0,0.0,0.0,0.0,0.0,0.0,0.0,0.0,0.0,0.0,0.0,0.0,0.0,0.0,0.0,0.0,0.0,0.0,0.0,-4.2901,-4.29,0.0,0.0,0.0,0.0,-4.3969,-4.4023,-4.4367,-4.5146,-4.5182,-4.5544,-4.6359,-4.6377,-4.6776,-4.7551,-4.7591,-4.795,-4.871,-4.8746,-4.9184,-4.993,-4.9967,-4.9985,-4.9985,-4.9949,-4.993,-4.9695,-4.6576,-4.5231,-4.5129,-4.5129,-4.5011,-4.4892,-4.4996,-4.4975,-4.4875,0.0,0.0,0.0,0.0,0.0,0.0,0.0,0.0,0.0,0.0,0.0,0.0,0.0,0.0,0.0,0.0,0.0,0.0,0.0,0.0,0.0,0.0,0.0,0.0,0.0,0.0,0.0,0.0,0.0,0.0,0.0,0.0,0.0,0.0,0.0,0.0,0.0,0.0,0.0,0.0,0.0,0.0,0.0,0.0,0.0,0.0,0.0,0.0,0.0,0.0,0.0,0.0,0.0,0.0,0.0,0.0,0.0,0.0,0.0,0.0,0.0,0.0,0.0,0.0,0.0,0.0,0.0,0.0,0.0,0.0,0.0,0.0,0.0,0.0,0.0,0.0,0.0,0.0,0.0,-4.2901,-4.3372,0.0,-4.3661,-4.4132,-4.4548,-4.4838,-4.5345,-4.578,-4.6069,-4.6558,-4.721,-4.8025,-4.8022,-4.8442,-4.9238,-4.9764,-5.0162,-5.0452,-5.1502,-5.2136,-5.2426,-5.2951,-5.2915,-5.2389,-5.1864,-5.1339,-5.0723,-4.9075,-4.8016,-4.7457,-4.7353,-4.6938,-4.6416,-4.6376,-4.6314,-4.6292,0.0,0.0,0.0,0.0,0.0,0.0,0.0,0.0,0.0,0.0,0.0,0.0,0.0,0.0,0.0,0.0,0.0,0.0,0.0,0.0,0.0,0.0,0.0,0.0,0.0,0.0,0.0,0.0,0.0,0.0,0.0,0.0,0.0,0.0,0.0,0.0,0.0,0.0,0.0,0.0,0.0,0.0,-3.9977,0.0,0.0,0.0,0.0,0.0,0.0,0.0,0.0,0.0,0.0,0.0,0.0,0.0,0.0,0.0,0.0,0.0,0.0,0.0,0.0,0.0,0.0,0.0,0.0,0.0,0.0,0.0,0.0,0.0,0.0,0.0,0.0,0.0,0.0,0.0,-4.3426,-4.3698,-4.4421,-4.491,-4.491,-4.5635,-4.6214,-4.6504,-4.7011,-4.7554,-4.8098,-4.8623,-4.9528,-5.0864,-5.0669,-5.1031,-5.2063,-5.2371,-5.2516,-5.2516,-5.3603,-5.411,-5.4128,-5.4671,-5.4617,-5.4092,-5.3548,-5.3005,-5.2462,-5.1937,-5.1325,-5.0615,-4.9469,-4.8681,-4.816,-4.8079,-4.8057,-4.8057,0.0,0.0,0.0,0.0,0.0,0.0,0.0,0.0,0.0,0.0,0.0,0.0,0.0,0.0,0.0,0.0,0.0,0.0,0.0,0.0,0.0,0.0,0.0,0.0,0.0,0.0,0.0,0.0,0.0,0.0,0.0,0.0,0.0,0.0,0.0,0.0,0.0,0.0,0.0,0.0,0.0,0.0,-4.0146,0.0,0.0,0.0,0.0,0.0,0.0,0.0,0.0,0.0,0.0,0.0,0.0,0.0,0.0,0.0,0.0,0.0,0.0,0.0,0.0,0.0,0.0,0.0,0.0,0.0,0.0,0.0,0.0,0.0,0.0,0.0,0.0,0.0,-4.4095,-4.4132,-4.4458,-4.5236,-4.6069,-4.6576,-4.6576,-4.7355,-4.8188,-4.8945,-4.9072,-4.98,-5.1321,-5.1411,-5.2498,-5.4834,-5.4146,-5.4454,-5.5939,-5.5287,-5.4943,-5.4943,-5.4961,-5.4979,-5.4979,-5.4979,-5.4961,-5.4943,-5.4943,-5.4925,-5.4907,-5.4907,-5.4816,-5.4417,-5.1384,-5.0198,-5.0198,-5.0162,-5.0162,-5.0162,0.0,0.0,0.0,0.0,0.0,0.0,0.0,0.0,0.0,0.0,0.0,0.0,0.0,0.0,0.0,0.0,0.0,0.0,0.0,0.0,0.0,0.0,0.0,0.0,0.0,0.0,0.0,0.0,0.0,0.0,0.0,0.0,0.0,0.0,0.0,0.0,0.0,0.0,0.0,0.0,0.0,0.0,-4.0686,0.0,0.0,0.0,0.0,0.0,0.0,0.0,0.0,0.0,0.0,0.0,0.0,0.0,0.0,0.0,0.0,0.0,0.0,0.0,0.0,0.0,0.0,0.0,0.0,0.0,0.0,0.0,0.0,0.0,0.0,0.0,0.0,-4.5436,-4.4258,-4.5091,-4.5924,-4.6142,-4.7409,-4.8239,-4.8239,-5.0017,-5.1267,-5.1484,-5.3096,-5.4001,-5.3929,-5.4418,-5.4762,-5.4907,-5.4689,-5.478,-5.5196,-5.5522,-5.5703,-5.5703,-5.6283,-5.6573,-5.6573,-5.6573,-5.6247,-5.5703,-5.5703,-5.5395,-5.4907,-5.4907,-5.4882,-5.4671,-5.3063,-5.2348,-5.2186,-5.1514,-5.1268,-5.1293,0.0,0.0,0.0,0.0,0.0,0.0,0.0,0.0,0.0,0.0,0.0,0.0,0.0,0.0,0.0,0.0,0.0,0.0,0.0,0.0,0.0,0.0,0.0,0.0,0.0,0.0,0.0,0.0,0.0,0.0,0.0,0.0,0.0,0.0,0.0,0.0,0.0,0.0,0.0,0.0,0.0,0.0,-4.1391,-4.078,-4.0493,-4.0382,-4.0164,-4.0045,-4.0037,-4.0087,0.0,0.0,0.0,0.0,0.0,0.0,0.0,0.0,0.0,0.0,0.0,0.0,0.0,0.0,0.0,0.0,0.0,0.0,0.0,0.0,0.0,0.0,0.0,0.0,-4.7011,-4.817,-4.7246,-4.7627,-4.8261,-4.8931,-5.0434,-5.1538,-5.1846,-5.344,-5.4327,-5.3983,-5.5214,-5.5812,-5.5377,-5.5758,-5.6102,-5.6355,-5.6047,-5.6029,-5.6373,-5.6464,-5.65,-5.65,-5.6971,-5.7188,-5.7188,-5.7188,-5.6935,-5.65,-5.65,-5.6265,-5.5866,-5.5866,-5.5842,-5.5659,0.0,0.0,0.0,0.0,-5.2844,-5.2563,0.0,0.0,0.0,0.0,0.0,0.0,0.0,0.0,0.0,0.0,0.0,0.0,0.0,0.0,0.0,0.0,0.0,0.0,0.0,0.0,0.0,0.0,0.0,0.0,0.0,0.0,0.0,0.0,0.0,0.0,0.0,0.0,0.0,0.0,0.0,0.0,0.0,0.0,0.0,0.0,0.0,0.0,-4.2284,-4.1591,-4.1182,-4.0869,-4.0374,-4.0121,-4.0019,-4.0028,0.0,0.0,0.0,0.0,0.0,0.0,0.0,0.0,0.0,0.0,0.0,0.0,0.0,0.0,0.0,0.0,0.0,0.0,0.0,0.0,0.0,0.0,0.0,0.0,-4.9582,-5.1629,-5.1792,-5.138,-5.1484,-5.2752,-5.4237,-5.5377,-5.5939,-5.6808,-5.6989,-5.6192,-5.6301,-5.6355,-5.6265,0.0,0.0,0.0,0.0,-5.7532,-5.8257,-5.755,-5.7188,-5.7188,-5.7188,-5.7188,-5.7188,-5.7188,-5.7188,-5.7188,-5.7188,-5.7188,-5.7188,-5.7188,-5.713,-5.6866,-5.5496,-5.4906,-5.4791,-5.4791,-5.4339,-5.3743,0.0,0.0,0.0,0.0,0.0,0.0,0.0,0.0,0.0,0.0,0.0,0.0,0.0,0.0,0.0,0.0,0.0,0.0,0.0,0.0,0.0,0.0,0.0,0.0,0.0,0.0,0.0,0.0,0.0,0.0,0.0,0.0,0.0,0.0,0.0,0.0,0.0,0.0,0.0,0.0,0.0,0.0,-4.3967,-4.2608,-4.1977,-4.1759,-4.1055,-4.075,-4.0534,-3.9956,-3.9858,-3.9952,-3.9952,0.0,0.0,0.0,0.0,0.0,0.0,0.0,0.0,0.0,0.0,0.0,0.0,0.0,0.0,0.0,0.0,0.0,0.0,0.0,0.0,-5.018,-5.1973,-5.3675,-5.4907,-5.6066,-5.6428,-5.5432,-5.6156,-5.6554,-5.6047,-5.7315,-5.7822,-5.7025,-5.8166,-5.8619,-5.7967,-5.7949,-5.7786,-5.7442,-5.7279,-5.7261,-5.7424,-5.7279,-5.7188,-5.7188,-5.7188,0.0,-5.7188,-5.7188,-5.7188,-5.7188,-5.7188,-5.7188,-5.7188,-5.7188,-5.7163,-5.7022,-5.5777,-5.4842,-5.4158,-5.4158,-5.4094,-5.3951,0.0,0.0,0.0,0.0,0.0,0.0,0.0,0.0,0.0,0.0,0.0,0.0,0.0,0.0,0.0,0.0,0.0,0.0,0.0,0.0,0.0,0.0,0.0,0.0,0.0,0.0,0.0,0.0,0.0,0.0,0.0,0.0,0.0,0.0,0.0,0.0,0.0,0.0,0.0,0.0,0.0,0.0,-4.5857,-4.368,-4.2671,-4.2333,-4.1355,-4.0899,-4.0682,-3.9955,-3.9755,-3.9781,-3.9781,-3.9884,-3.9986,0.0,0.0,0.0,0.0,0.0,0.0,0.0,0.0,0.0,0.0,0.0,0.0,0.0,0.0,-4.7355,0.0,0.0,-5.2172,-5.2969,-5.5106,-5.6917,-5.7695,-5.8492,-5.8546,-5.7333,-5.7913,-5.8239,-5.784,-5.8528,-5.8673,-5.7858,-5.8546,-5.8655,-5.784,-5.7804,-5.7623,-5.7206,-5.7188,-5.7188,-5.7188,-5.7188,-5.7188,-5.7188,-5.7188,-5.7188,-5.7188,-5.7188,-5.7188,-5.7188,-5.7188,-5.7188,-5.7188,-5.713,-5.7105,-5.7025,-5.6345,-5.5897,-5.5582,-5.5452,-5.5227,-5.4996,0.0,0.0,0.0,0.0,0.0,0.0,0.0,0.0,0.0,0.0,0.0,0.0,0.0,0.0,0.0,0.0,0.0,0.0,0.0,0.0,0.0,0.0,0.0,0.0,0.0,0.0,0.0,0.0,0.0,0.0,0.0,0.0,0.0,0.0,0.0,0.0,0.0,0.0,0.0,0.0,0.0,0.0,-4.7261,-4.4552,-4.3334,-4.2884,-4.16,-4.1037,-4.0785,-3.9926,-3.9625,-3.9651,-3.9651,-3.9755,-3.9892,-4.0069,-4.0205,0.0,0.0,0.0,0.0,0.0,0.0,0.0,0.0,0.0,-4.6178,-4.683,-4.7989,-4.9257,-5.0542,-5.3295,-5.545,-5.5776,-5.7949,-5.9651,-5.9814,-5.9832,-5.9488,-5.851,-5.9108,-5.9542,-5.9379,-5.9379,-5.9035,-5.8239,-5.8166,-5.7876,-5.7224,-5.7188,-5.7188,-5.7188,-5.7188,-5.7188,-5.7188,-5.7188,-5.7188,-5.7188,-5.7188,-5.7188,-5.7188,-5.7188,-5.7188,-5.7188,-5.7188,-5.7188,-5.7188,-5.7061,-5.7054,-5.7028,-5.6899,-5.7003,-5.7181,-5.6899,-5.6536,-5.6129,0.0,0.0,0.0,0.0,0.0,0.0,0.0,0.0,0.0,0.0,0.0,0.0,0.0,0.0,0.0,0.0,0.0,0.0,0.0,0.0,0.0,0.0,0.0,0.0,0.0,0.0,0.0,0.0,0.0,0.0,0.0,0.0,0.0,0.0,0.0,0.0,0.0,0.0,0.0,0.0,0.0,0.0,-4.7175,-4.488,-4.3992,-4.375,-4.2194,-4.1505,-4.1122,-3.9773,-3.9432,-3.9528,-3.9528,-3.9616,-3.9873,-4.0632,0.0,-4.1073,-4.1837,-4.2752,-4.3691,-4.47,-4.5574,-4.6171,0.0,0.0,-4.8511,-4.8601,-5.0995,-5.3078,-5.3259,-5.5287,-5.7406,-5.8854,-5.9379,-5.985,-6.0575,-6.0683,-6.0104,-5.8583,-5.9108,-5.9325,-5.8601,-5.8528,-5.8202,-5.7387,-5.7333,-5.7279,-5.7188,-5.7188,-5.7188,-5.7188,-5.7188,-5.7188,-5.7188,-5.7188,-5.7188,-5.7188,-5.7188,-5.7188,-5.7188,-5.7188,-5.7188,-5.7188,-5.7188,-5.7188,-5.7188,-5.7163,-5.7181,-5.7163,-5.7028,-5.7079,-5.7181,-5.6899,-5.6767,-5.6721,0.0,0.0,0.0,0.0,0.0,0.0,0.0,0.0,0.0,0.0,0.0,0.0,0.0,0.0,0.0,0.0,0.0,0.0,0.0,0.0,0.0,0.0,0.0,0.0,0.0,0.0,0.0,0.0,0.0,0.0,0.0,0.0,0.0,0.0,0.0,0.0,0.0,0.0,0.0,0.0,0.0,0.0,-4.6338,-4.4047,-4.326,-4.328,-4.2674,-4.2088,0.0,0.0,-4.0037,-3.996,-3.9528,-3.9821,-4.0407,-4.0778,-4.1298,0.0,-4.2907,-4.3816,0.0,0.0,-4.6975,-4.8025,-4.8478,-4.9474,-5.0705,-5.2118,-5.3476,-5.4816,-5.6192,-5.7623,-5.8981,0.0,-6.0701,-6.0955,-6.0828,-6.0412,-5.9687,-5.8546,-5.8275,-5.8076,-5.7732,-5.7695,-5.755,-5.7224,-5.7188,-5.7406,-5.7876,-5.7895,-5.8112,-5.8583,-5.8601,-5.8601,-5.8601,-5.8601,-5.8601,-5.8601,-5.8601,-5.8347,-5.7895,-5.7895,-5.7641,-5.7188,-5.7188,-5.7188,-5.7188,-5.7188,-5.7188,-5.7188,-5.7138,-5.7138,-5.7163,-5.6821,-5.6768,-5.6899,0.0,0.0,0.0,0.0,0.0,0.0,0.0,0.0,0.0,0.0,0.0,0.0,0.0,0.0,0.0,0.0,0.0,0.0,0.0,0.0,0.0,0.0,0.0,0.0,0.0,0.0,0.0,0.0,0.0,0.0,0.0,0.0,0.0,0.0,0.0,0.0,0.0,0.0,0.0,0.0,0.0,0.0,-4.5166,-4.3024,-4.2306,-4.251,-4.2607,-4.22,0.0,0.0,-4.0785,-4.0591,-4.0115,-4.045,-4.1107,-4.1389,-4.2301,-4.352,-4.4761,0.0,0.0,-4.7771,-4.9039,-5.0108,-5.0904,-5.1719,-5.2842,-5.4798,-5.5558,-5.6446,-5.8383,-5.9579,-6.0466,-6.1045,-6.1616,-6.1634,-6.0629,-5.9977,-5.9216,-5.8184,-5.755,-5.7188,-5.7188,-5.7188,-5.7279,-5.7514,-5.7532,-5.7876,-5.8691,-5.8728,-5.8999,-5.9579,-5.9615,-5.9615,-5.9615,-5.9615,-5.9615,-5.9615,-5.9615,-5.9289,-5.8728,-5.851,-5.7967,-5.7188,-5.7188,-5.7188,-5.7188,-5.7188,-5.7188,-5.7188,-5.7188,-5.7188,-5.7163,-5.6821,-5.6847,-5.7028,0.0,0.0,0.0,0.0,0.0,0.0,0.0,0.0,0.0,0.0,0.0,0.0,0.0,0.0,0.0,0.0,0.0,0.0,0.0,0.0,0.0,0.0,0.0,0.0,0.0,0.0,0.0,0.0,0.0,0.0,0.0,0.0,0.0,0.0,0.0,0.0,0.0,0.0,0.0,0.0,0.0,0.0,-4.3798,-4.2079,-4.1543,-4.1727,-4.1744,0.0,0.0,0.0,-4.1532,-4.1404,-4.1588,-4.1661,0.0,-4.2858,-4.4305,0.0,0.0,0.0,-4.8942,-5.1651,-5.2353,-5.2589,-5.3403,-5.4218,-5.5015,-5.5794,-5.7206,-5.8546,-5.9416,-6.0864,-6.1924,-6.1942,-6.1978,-6.1435,-5.9868,-5.9633,-5.9017,-5.7424,-5.7206,-5.7188,0.0,-5.7188,-5.7514,-5.8293,-5.8365,-5.8709,-5.9524,-5.9561,-5.9579,-5.9615,-5.9615,-5.9615,-5.9615,-5.9615,-5.9615,-5.9615,-5.9615,-5.9597,-5.9542,-5.8764,-5.7967,-5.7188,-5.7188,-5.7188,-5.7188,-5.7188,-5.7188,-5.7188,-5.7188,-5.7188,-5.7163,-5.7054,-5.7079,-5.7188,0.0,0.0,0.0,0.0,0.0,0.0,0.0,0.0,0.0,0.0,0.0,0.0,0.0,0.0,0.0,0.0,0.0,0.0,0.0,0.0,0.0,0.0,0.0,0.0,0.0,0.0,0.0,0.0,0.0,0.0,0.0,0.0,0.0,0.0,0.0,0.0,0.0,0.0,0.0,0.0,0.0,0.0,-4.2128,-4.1122,-4.0785,-4.0906,0.0,0.0,0.0,0.0,0.0,0.0,-4.1788,0.0,0.0,-4.4429,-4.5886,-4.7231,0.0,0.0,-5.1576,-5.2298,-5.3657,-5.4888,-5.516,-5.5848,-5.6645,-5.7424,-5.8021,-5.8818,-6.0158,-6.0819,-6.1362,-6.1906,-6.1996,-6.1435,-5.9832,-5.9615,-5.8999,-5.7387,-5.7188,0.0,0.0,0.0,0.0,-5.8383,-5.8891,-5.9561,-6.0357,-6.0412,-6.0647,-6.1163,-6.1208,-6.1208,-6.1208,-6.1208,-6.1208,-6.1208,-6.0665,-6.0412,-6.0375,-5.9561,-5.8764,-5.8003,-5.8003,-5.7695,-5.7188,-5.7188,-5.7188,-5.7188,-5.7188,-5.7188,-5.7188,-5.7156,-5.7087,-5.7079,0.0,0.0,0.0,0.0,0.0,0.0,0.0,0.0,0.0,0.0,0.0,0.0,0.0,0.0,0.0,0.0,0.0,0.0,0.0,0.0,0.0,0.0,0.0,0.0,0.0,0.0,0.0,0.0,0.0,0.0,0.0,0.0,0.0,0.0,0.0,0.0,0.0,0.0,0.0,0.0,0.0,0.0,-4.0961,-4.0276,-4.0177,0.0,0.0,0.0,0.0,0.0,0.0,0.0,0.0,-4.2952,-4.3804,-4.5595,-4.6851,-4.8023,-4.9643,-5.1652,-5.3501,-5.4387,-5.5522,-5.65,-5.679,-5.6808,-5.6989,-5.7804,-5.7603,-5.7672,-5.8988,-5.924,-5.9601,-6.0683,-6.1018,-6.0792,-5.976,-5.9615,-5.8999,-5.7387,-5.7442,-5.7822,0.0,0.0,0.0,-5.9271,-5.9742,-6.0394,-6.1208,-6.1218,-6.1453,-6.1978,-6.1996,-6.1996,-6.1996,-6.1996,-6.1996,-6.1978,-6.1471,-6.1073,-6.0792,-6.0267,-5.9597,-5.8836,-5.8836,-5.8546,-5.8058,-5.8058,-5.8058,-5.8058,-5.8006,-5.798,-5.798,-5.7947,-5.7869,-5.7718,0.0,0.0,0.0,0.0,0.0,0.0,0.0,0.0,0.0,0.0,0.0,0.0,0.0,0.0,0.0,0.0,0.0,0.0,0.0,0.0,0.0,0.0,0.0,0.0,0.0,0.0,0.0,0.0,0.0,0.0,0.0,0.0,0.0,0.0,0.0,0.0,0.0,0.0,0.0,0.0,0.0,0.0,-4.0276,-3.9564,0.0,0.0,0.0,0.0,0.0,0.0,0.0,0.0,0.0,0.0,-4.4726,-4.6333,-4.725,-4.8567,-5.2124,-5.3601,-5.48,-5.7676,-5.7822,-5.7442,-5.8166,-5.7134,-5.6192,-5.6892,-5.6021,-5.5366,0.0,0.0,-5.6858,-5.8468,-5.9204,-5.9579,-5.9488,-5.9561,-5.8999,0.0,0.0,0.0,0.0,0.0,0.0,-6.0864,0.0,-6.1208,-6.1942,-6.1996,-6.1996,-6.1996,-6.1996,-6.1996,-6.1996,-6.1996,-6.1996,-6.1996,-6.1996,-6.158,-6.0856,-6.0856,-6.043,-5.9669,-5.9669,-5.9651,-5.9615,-5.9615,-5.9615,-5.9589,-5.9456,-5.9429,-5.9402,-5.9276,-5.9221,-5.9033,0.0,0.0,0.0,0.0,0.0,0.0,0.0,0.0,0.0,0.0,0.0,0.0,0.0,0.0,0.0,0.0,0.0,0.0,0.0,0.0,0.0,0.0,0.0,0.0,0.0,0.0,0.0,0.0,0.0,0.0,0.0,0.0,0.0,0.0,0.0,0.0,0.0,0.0,0.0,0.0,0.0,0.0,-3.9564,0.0,0.0,0.0,0.0,0.0,0.0,0.0,0.0,0.0,0.0,0.0,-4.6266,-4.6667,-4.8424,-5.0628,-5.2562,-5.4426,-5.6197,-5.7965,-5.8257,-5.7985,-5.7605,-5.6717,-5.5767,-5.4974,-5.4542,-5.4544,0.0,0.0,0.0,-5.7366,-5.874,0.0,-5.7985,-5.8854,0.0,-5.7387,0.0,-5.8637,-5.9253,-6.0212,0.0,0.0,-6.167,-6.1761,-6.1978,-6.1996,-6.1996,-6.1996,-6.1996,-6.1996,-6.1996,-6.1996,-6.1996,-6.1996,-6.1996,-6.1887,-6.167,-6.167,-6.1254,-6.0502,-6.0502,-6.0158,-5.9615,-5.9615,-5.9615,-5.9615,-5.9544,-5.9562,-5.9544,-5.9509,-5.9429,-5.9321,0.0,0.0,0.0,0.0,0.0,0.0,0.0,0.0,0.0,0.0,0.0,0.0,0.0,0.0,0.0,0.0,0.0,0.0,0.0,0.0,0.0,0.0,0.0,0.0,0.0,0.0,0.0,0.0,0.0,0.0,0.0,0.0,0.0,0.0,0.0,0.0,0.0,0.0,0.0,0.0,0.0,0.0,0.0,0.0,0.0,0.0,0.0,0.0,0.0,0.0,0.0,-4.3554,-4.368,-4.5096,-4.6748,-4.7145,0.0,-5.1931,-5.3648,-5.5709,-5.7564,-5.834,-5.8295,-5.7756,-5.6671,-5.5249,-5.3883,-5.2812,-5.2121,0.0,0.0,0.0,0.0,0.0,0.0,0.0,-5.7279,-5.8275,-5.8746,0.0,-5.8438,0.0,-6.0068,-6.0864,-6.1507,0.0,-6.1996,-6.1996,-6.1996,-6.1996,-6.1996,-6.1996,-6.1996,-6.1996,-6.1996,-6.1996,-6.1996,-6.1996,-6.1996,-6.1996,-6.1996,-6.1996,-6.1743,-6.1308,-6.1308,-6.1082,-6.0665,-6.0665,-6.0665,-6.0638,-6.0585,-6.0531,-6.0476,-6.0476,-6.0339,-6.0118,0.0,0.0,0.0,0.0,0.0,0.0,0.0,0.0,0.0,0.0,0.0,0.0,0.0,0.0,0.0,0.0,0.0,0.0,0.0,0.0,0.0,0.0,0.0,0.0,0.0,0.0,0.0,0.0,0.0,0.0,0.0,0.0,0.0,0.0,0.0,0.0,0.0,0.0,0.0,0.0,0.0,0.0,0.0,0.0,0.0,0.0,0.0,0.0,0.0,0.0,-4.1466,-4.281,-4.2992,-4.4778,-4.6932,-4.7571,-4.9841,-5.2597,-5.471,-5.6699,-5.8221,-5.8492,-5.7917,-5.6916,-5.5424,-5.3264,-5.1392,-5.0688,0.0,-4.8792,-4.9257,0.0,-5.0374,-5.3084,0.0,-5.6009,-5.679,-5.7677,-5.8239,-5.8239,-5.9054,-5.9868,-6.0575,-6.1453,-6.1996,-6.1996,-6.1996,-6.1996,-6.1996,-6.1996,-6.1996,-6.1996,-6.1996,-6.1996,-6.1996,-6.1996,-6.1996,-6.1996,-6.1996,-6.1996,-6.1996,-6.1996,-6.1996,-6.1996,-6.1996,-6.1996,-6.1996,-6.1996,-6.1996,-6.1996,-6.1886,-6.1746,-6.1662,-6.1633,-6.1433,-6.1122,0.0,0.0,0.0,0.0,0.0,0.0,0.0,0.0,0.0,0.0,0.0,0.0,0.0,0.0,0.0,0.0,0.0,0.0,0.0,0.0,0.0,0.0,0.0,0.0,0.0,0.0,0.0,0.0,0.0,0.0,0.0,0.0,0.0,0.0,0.0,0.0,0.0,0.0,0.0,0.0,0.0,0.0,0.0,0.0,0.0,0.0,0.0,0.0,0.0,0.0,-4.0984,-4.2839,-4.3088,-4.5572,-4.8211,-4.728,-4.9517,-5.2609,-5.4229,-5.5304,-5.627,-5.7527,-5.6752,-5.5231,-5.382,-5.1683,0.0,0.0,0.0,-4.7852,-4.7944,-4.8498,0.0,-5.0859,0.0,0.0,0.0,0.0,-5.7406,0.0,0.0,0.0,0.0,0.0,0.0,0.0,0.0,-6.1996,-6.1996,-6.1996,-6.1996,-6.1996,-6.1996,-6.1996,-6.1996,-6.1996,-6.1996,-6.1996,-6.1996,-6.1996,-6.1996,-6.1996,-6.1996,-6.1996,-6.1996,-6.1996,-6.1996,-6.1996,-6.1996,-6.1996,-6.195,-6.1969,-6.1913,-6.1802,-6.1718,-6.1672,0.0,0.0,0.0,0.0,0.0,0.0,0.0,0.0,0.0,0.0,0.0,0.0,0.0,0.0,0.0,0.0,0.0,0.0,0.0,0.0,0.0,0.0,0.0,0.0,0.0,0.0,0.0,0.0,0.0,0.0,0.0,0.0,0.0,0.0,0.0,0.0,0.0,0.0,0.0,0.0,0.0,0.0,0.0,0.0,0.0,0.0,0.0,0.0,0.0,0.0,-4.0519,-4.2097,-4.2351,-4.5366,-4.8514,-4.7059,-4.9632,-5.3074,-5.3745,-5.4439,-5.5105,-5.5854,-5.4857,-5.3228,-5.1378,0.0,0.0,0.0,0.0,-4.6696,-4.6993,0.0,0.0,0.0,0.0,0.0,0.0,0.0,0.0,0.0,0.0,0.0,0.0,0.0,0.0,0.0,0.0,-6.1996,-6.1996,-6.1996,-6.1996,-6.1996,-6.1996,-6.1996,-6.1996,-6.1996,-6.1996,-6.1996,-6.1996,-6.1996,-6.1996,-6.1996,-6.1996,-6.1996,-6.1996,-6.1996,-6.1996,-6.1996,-6.1996,-6.1996,-6.1996,-6.1969,-6.1886,-6.183,-6.1672,-6.1559,0.0,0.0,0.0,0.0,0.0,0.0,0.0,0.0,0.0,0.0,0.0,0.0,0.0,0.0,0.0,0.0,0.0,0.0,0.0,0.0,0.0,0.0,0.0,0.0,0.0,0.0,0.0,0.0,0.0,0.0,0.0,0.0,0.0,0.0,0.0,0.0,0.0,0.0,0.0,0.0,0.0,0.0,0.0,0.0,0.0,0.0,0.0,0.0,0.0,0.0,-4.0133,-4.1254,-4.1532,-4.4675,-4.8034,-4.7053,-4.9588,-5.2805,-5.3061,-5.3584,-5.3974,-5.3785,-5.2774,-5.1279,-4.9253,-4.8088,0.0,0.0,-4.5568,-4.5575,-4.6035,0.0,0.0,0.0,0.0,0.0,0.0,0.0,0.0,0.0,0.0,0.0,0.0,0.0,0.0,0.0,0.0,-6.1996,-6.1996,-6.1996,-6.1996,-6.1996,-6.1996,-6.1996,-6.1996,-6.1996,-6.1996,-6.1996,-6.1996,-6.1996,-6.1996,-6.1996,-6.1996,-6.1996,-6.1996,-6.1996,-6.1996,-6.1996,-6.1996,-6.1996,-6.1996,-6.1941,-6.183,-6.1774,-6.1615,-6.1426,0.0,0.0,0.0,0.0,0.0,0.0,0.0,0.0,0.0,0.0,0.0,0.0,0.0,0.0,0.0,0.0,0.0,0.0,0.0,0.0,0.0,0.0,0.0,0.0,0.0,0.0,0.0,0.0,0.0,0.0,0.0,0.0,0.0,0.0,0.0,0.0,0.0,0.0,0.0,0.0,0.0,0.0,0.0,0.0,0.0,0.0,0.0,0.0,0.0,0.0,0.0,-4.0608,-4.1226,-4.3693,-4.6502,-4.7328,0.0,0.0,-5.188,-5.2309,-5.2234,-5.15,-5.0755,-4.982,-4.834,0.0,0.0,0.0,-4.5162,-4.4716,-4.4783,-4.5315,0.0,0.0,0.0,0.0,0.0,0.0,0.0,0.0,0.0,0.0,0.0,0.0,0.0,0.0,0.0,-6.1996,-6.1996,-6.1996,-6.1996,-6.1996,-6.1996,-6.1996,-6.1996,-6.1996,-6.1996,-6.1996,-6.1996,-6.1996,-6.1996,-6.1996,-6.1996,-6.1996,-6.1996,-6.1996,-6.1996,-6.1996,-6.1996,-6.1996,-6.1996,-6.1996,-6.1969,-6.1718,-6.169,-6.17,0.0,0.0,0.0,0.0,0.0,0.0,0.0,0.0,0.0,0.0,0.0,0.0,0.0,0.0,0.0,0.0,0.0,0.0,0.0,0.0,0.0,0.0,0.0,0.0,0.0,0.0,0.0,0.0,0.0,0.0,0.0,0.0,0.0,0.0,0.0,0.0,0.0,0.0,0.0,0.0,0.0,0.0,0.0,0.0,0.0,0.0,0.0,0.0,0.0,0.0,0.0,0.0,-4.1193,-4.2564,0.0,0.0,-4.725,-4.8784,-4.9683,-4.9345,-4.8927,-4.9504,-4.8734,-4.7535,-4.66,0.0,0.0,-4.4951,-4.4614,-4.4468,-4.457,-4.475,-4.5201,0.0,0.0,0.0,0.0,0.0,0.0,0.0,0.0,0.0,0.0,0.0,0.0,0.0,0.0,-6.1996,-6.1996,-6.1996,-6.1996,-6.1996,-6.1996,-6.1996,-6.1996,-6.1996,-6.1996,-6.1996,-6.1996,-6.1996,-6.1996,-6.1996,-6.1996,-6.1996,-6.1996,-6.1996,-6.1996,-6.1996,-6.1996,-6.1996,-6.1996,-6.1996,-6.1969,-6.169,-6.1384,-6.1053,0.0,0.0,0.0,0.0,0.0,0.0,0.0,0.0,0.0,0.0,0.0,0.0,0.0,0.0,0.0,0.0,0.0,0.0,0.0,0.0,0.0,0.0,0.0,0.0,0.0,0.0,0.0,0.0,0.0,0.0,0.0,0.0,0.0,0.0,0.0,0.0,0.0,0.0,0.0,0.0,0.0,0.0,0.0,0.0,0.0,0.0,0.0,0.0,0.0,0.0,0.0,0.0,0.0,0.0,0.0,0.0,-4.6106,-4.7144,-4.7914,-4.732,-4.6767,-4.7813,-4.7063,-4.5941,0.0,0.0,0.0,-4.4411,-4.4338,-4.444,-4.457,-4.4468,-4.4693,0.0,0.0,0.0,0.0,0.0,0.0,0.0,0.0,0.0,0.0,0.0,0.0,0.0,0.0,-6.1996,-6.1996,-6.1996,-6.1996,-6.1996,-6.1996,-6.1996,-6.1996,-6.1996,-6.1996,-6.1996,-6.1794,-6.1822,-6.1978,-6.1794,-6.1822,-6.1996,-6.1996,-6.1996,-6.1996,-6.1996,-6.1851,-6.1634,-6.1634,-6.1489,-6.1245,-6.1043,-6.0683,-6.0305,0.0,0.0,0.0,0.0,0.0,0.0,0.0,0.0,0.0,0.0,0.0,0.0,0.0,0.0,0.0,0.0,0.0,0.0,0.0,0.0,0.0,0.0,0.0,0.0,0.0,0.0,0.0,0.0,0.0,0.0,0.0,0.0,0.0,0.0,0.0,0.0,0.0,0.0,0.0,0.0,0.0,0.0,0.0,0.0,0.0,0.0,0.0,0.0,0.0,0.0,0.0,0.0,0.0,0.0,0.0,0.0,-4.5698,-4.552,-4.6839,-4.6873,-4.6484,-4.6368,-4.5857,-4.5416,0.0,0.0,0.0,-4.4338,-4.4468,-4.4615,-4.4615,-4.4615,-4.4823,-4.5585,0.0,0.0,0.0,0.0,0.0,0.0,0.0,0.0,0.0,0.0,0.0,0.0,0.0,0.0,-6.1996,-6.1996,-6.1996,-6.1996,-6.1996,-6.1996,-6.1996,-6.1996,-6.1996,-6.1996,-6.1343,-6.1372,-6.1978,-6.1297,-6.1372,-6.1996,-6.1996,-6.1996,-6.1996,-6.1996,-6.1525,-6.0801,-6.0801,-6.0339,-5.9607,-5.9474,-5.9501,-5.9589,0.0,0.0,0.0,0.0,0.0,0.0,0.0,0.0,0.0,0.0,0.0,0.0,0.0,0.0,0.0,0.0,0.0,0.0,0.0,0.0,0.0,0.0,0.0,0.0,0.0,0.0,0.0,0.0,0.0,0.0,0.0,0.0,0.0,0.0,0.0,0.0,0.0,0.0,0.0,0.0,0.0,0.0,0.0,0.0,0.0,0.0,0.0,0.0,0.0,0.0,0.0,0.0,0.0,0.0,0.0,0.0,0.0,0.0,-4.5288,-4.5113,-4.4829,-4.5223,-4.4866,-4.4361,-4.4361,0.0,0.0,0.0,0.0,-4.444,-4.457,-4.4468,-4.4525,-4.4891,0.0,0.0,0.0,0.0,0.0,0.0,0.0,0.0,0.0,0.0,0.0,0.0,-6.1996,-6.1996,-6.1996,-6.1996,-6.1996,-6.1996,-6.1996,-6.1996,-6.1996,-6.1533,-6.1315,-6.1297,-6.0638,-6.0424,-6.0626,-6.0406,-6.0136,-5.9852,-6.0317,-6.0203,-5.9729,-5.9729,-5.977,-5.9763,-5.8977,-5.8748,-5.8854,-5.8816,-5.8514,-5.8141,0.0,0.0,0.0,0.0,0.0,0.0,0.0,0.0,0.0,0.0,0.0,0.0,0.0,0.0,0.0,0.0,0.0,0.0,0.0,0.0,0.0,0.0,0.0,0.0,0.0,0.0,0.0,0.0,0.0,0.0,0.0,0.0,0.0,0.0,0.0,0.0,0.0,0.0,0.0,0.0,0.0,0.0,-3.9299,0.0,0.0,0.0,0.0,0.0,0.0,0.0,0.0,0.0,0.0,0.0,0.0,0.0,0.0,0.0,0.0,-4.4095,-4.3997,-4.4401,-4.4231,0.0,0.0,0.0,0.0,0.0,0.0,0.0,0.0,0.0,0.0,0.0,0.0,0.0,0.0,0.0,0.0,0.0,0.0,0.0,0.0,0.0,0.0,0.0,-6.1868,-6.1794,-6.1286,-6.1217,-6.1083,-6.0791,-6.1576,-6.1996,-6.1996,-6.1343,-6.1016,-6.0968,-5.9763,-5.9304,-5.9541,-5.9007,-5.8604,-5.8351,-5.8797,-5.8728,0.0,-5.8237,-5.8252,-5.8157,-5.7374,-5.7078,-5.7117,-5.7105,-5.6829,-5.6491,0.0,0.0,0.0,0.0,0.0,0.0,0.0,0.0,0.0,0.0,0.0,0.0,0.0,0.0,0.0,0.0,0.0,0.0,0.0,0.0,0.0,0.0,0.0,0.0,0.0,0.0,0.0,-3.5504,-3.6053,-3.6368,-3.643,0.0,0.0,0.0,0.0,0.0,0.0,0.0,0.0,0.0,0.0,0.0,0.0,0.0,0.0,0.0,0.0,0.0,0.0,0.0,0.0,0.0,0.0,0.0,0.0,0.0,0.0,0.0,0.0,0.0,0.0,0.0,0.0,0.0,0.0,0.0,0.0,0.0,0.0,0.0,0.0,0.0,0.0,0.0,0.0,0.0,0.0,0.0,0.0,0.0,0.0,0.0,0.0,0.0,0.0,-6.1045,-6.1479,-6.1225,-5.9991,-5.9792,-5.9426,-5.8747,-6.0655,-6.1687,-6.1687,-6.1031,-6.0671,-6.0671,-5.8624,-5.7983,-5.8542,-5.7207,-5.6861,-5.7283,-5.7438,-5.7403,-5.7227,-5.7227,-5.6838,-5.6143,-5.5879,-5.5334,-5.4709,-5.4739,-5.4739,-5.477,0.0,0.0,0.0,0.0,0.0,0.0,0.0,0.0,0.0,0.0,0.0,0.0,0.0,0.0,0.0,0.0,0.0,0.0,0.0,0.0,0.0,0.0,0.0,0.0,0.0,0.0,0.0,-3.5504,-3.5651,-3.5941,-3.643,-3.7221,0.0,0.0,0.0,0.0,0.0,0.0,0.0,0.0,0.0,0.0,0.0,0.0,0.0,0.0,-3.9299,-3.9299,0.0,0.0,0.0,0.0,0.0,0.0,0.0,0.0,-4.3598,-4.3628,-4.3793,0.0,-4.3704,-4.3868,0.0,0.0,0.0,0.0,0.0,0.0,0.0,0.0,0.0,0.0,0.0,0.0,0.0,0.0,0.0,0.0,0.0,0.0,0.0,0.0,0.0,0.0,0.0,-6.1016,-6.0083,-5.9395,-5.9085,-5.8519,-5.8144,-5.7974,-5.8441,-5.871,-5.871,-5.8055,-5.7706,-5.7706,-5.6662,-5.6268,-5.6423,-5.5926,-5.5466,-5.5077,-5.5461,-5.5298,-5.4733,-5.4733,-5.4836,-5.4929,-5.3987,-5.3752,-5.3893,-5.4055,-5.4104,-5.4136,0.0,0.0,0.0,0.0,0.0,0.0,0.0,0.0,0.0,0.0,0.0,0.0,0.0,0.0,0.0,0.0,0.0,0.0,0.0,0.0,0.0,0.0,0.0,0.0,0.0,0.0,0.0,0.0,0.0,-3.6227,0.0,0.0,0.0,0.0,0.0,0.0,0.0,0.0,0.0,0.0,-3.9299,0.0,0.0,0.0,0.0,0.0,-3.9299,-3.9299,0.0,-4.016,-4.0845,-4.1541,0.0,0.0,0.0,0.0,-4.3658,-4.3763,-4.3939,-4.3805,-4.3658,-4.3868,-4.3898,-4.3927,0.0,0.0,0.0,0.0,0.0,0.0,0.0,0.0,0.0,0.0,0.0,0.0,0.0,0.0,0.0,0.0,0.0,0.0,0.0,0.0,-6.0719,-6.0045,-5.9267,-5.8363,-5.742,-5.695,-5.6613,-5.628,-5.5951,-5.6391,-5.7693,-5.7057,-5.6717,-5.6684,-5.5673,-5.5209,-5.5192,-5.4733,-5.4241,-5.3819,-5.4161,-5.4024,-5.3583,-5.3583,-5.3682,-5.3747,-5.3042,-5.2886,-5.3076,-5.3179,-5.3247,-5.3298,0.0,0.0,0.0,0.0,0.0,0.0,0.0,0.0,0.0,0.0,0.0,0.0,0.0,0.0,0.0,0.0,0.0,0.0,0.0,0.0,0.0,0.0,0.0,0.0,0.0,0.0,0.0,0.0,0.0,0.0,0.0,0.0,-3.808,0.0,0.0,0.0,0.0,0.0,0.0,0.0,-3.9299,0.0,0.0,0.0,0.0,0.0,0.0,0.0,0.0,-4.0326,-4.0994,-4.1678,-4.2423,0.0,0.0,0.0,0.0,0.0,-4.4097,-4.3923,-4.3717,-4.3898,-4.3927,-4.3956,0.0,0.0,0.0,0.0,0.0,0.0,0.0,0.0,0.0,0.0,0.0,0.0,0.0,0.0,0.0,0.0,0.0,0.0,0.0,-6.0059,-6.0007,-5.8731,-5.8342,-5.738,-5.5634,-5.5362,-5.5018,-5.4448,-5.3822,-5.4644,-5.7052,-5.6485,-5.6225,-5.6208,-5.4992,-5.4431,-5.4397,-5.3737,-5.3348,-5.3213,-5.3348,-5.3314,-5.3144,-5.3144,-5.3041,-5.2868,-5.2694,-5.257,-5.248,-5.248,-5.2535,-5.2659,0.0,0.0,0.0,0.0,0.0,0.0,0.0,0.0,0.0,0.0,0.0,0.0,0.0,0.0,0.0,0.0,0.0,0.0,0.0,0.0,0.0,0.0,0.0,0.0,0.0,0.0,0.0,0.0,0.0,0.0,-3.629,-3.7648,-3.8562,0.0,0.0,0.0,-3.9299,-3.9299,-3.9299,-3.9299,-3.9299,0.0,0.0,0.0,0.0,0.0,0.0,0.0,0.0,-4.1011,-4.174,-4.2456,-4.3184,0.0,0.0,0.0,0.0,0.0,-4.4196,-4.4155,-4.4039,-4.4068,-4.4068,-4.4068,0.0,0.0,0.0,0.0,0.0,0.0,0.0,0.0,0.0,0.0,0.0,0.0,0.0,0.0,0.0,0.0,0.0,0.0,0.0,-5.7842,-5.8191,-5.7988,-5.6267,-5.5094,-5.4804,-5.4161,-5.3788,-5.367,-5.3568,-5.3703,-5.4141,-5.4041,-5.3991,-5.3991,-5.3788,-5.367,-5.367,-5.3399,-5.323,-5.3179,-5.3041,-5.2972,-5.2938,-5.2938,-5.2938,-5.2903,-5.2868,-5.2834,-5.2799,-5.2799,-5.2834,-5.2868,0.0,0.0,0.0,0.0,0.0,0.0,0.0,0.0,0.0,0.0,0.0,0.0,0.0,0.0,0.0,0.0,0.0,0.0,0.0,0.0,0.0,0.0,0.0,0.0,0.0,0.0,0.0,0.0,0.0,-3.6399,-3.643,-3.7706,-3.8463,-3.8772,0.0,0.0,-3.9299,-3.9299,-3.9299,-3.9299,0.0,0.0,0.0,0.0,0.0,0.0,0.0,0.0,0.0,0.0,-4.1877,-4.2622,-4.3367,0.0,0.0,0.0,0.0,0.0,-4.4253,-4.431,-4.4327,-4.4241,-4.4196,-4.4196,0.0,0.0,0.0,0.0,0.0,0.0,0.0,0.0,0.0,0.0,0.0,0.0,0.0,0.0,0.0,0.0,0.0,0.0,-5.6665,-5.7028,-5.7045,-5.6631,-5.5366,-5.4431,-5.4025,-5.3687,-5.3501,-5.3501,-5.3501,-5.3501,-5.3501,-5.3501,-5.3501,-5.3501,-5.3501,-5.3501,-5.3501,-5.3382,-5.3348,-5.3348,-5.328,-5.3195,-5.3195,-5.3195,-5.3161,-5.3041,-5.3041,-5.3007,-5.2903,-5.3007,-5.3041,-5.3076,0.0,0.0,0.0,0.0,0.0,0.0,0.0,0.0,0.0,0.0,0.0,0.0,0.0,0.0,0.0,0.0,0.0,0.0,0.0,0.0,0.0,0.0,0.0,0.0,0.0,0.0,-3.5504,-3.5504,-3.6116,-3.6538,-3.686,-3.7851,-3.8379,0.0,0.0,0.0,-3.9299,-3.9299,-3.9299,-3.9299,0.0,0.0,0.0,0.0,0.0,0.0,0.0,0.0,0.0,0.0,0.0,0.0,0.0,0.0,0.0,-4.3881,-4.4056,-4.4184,-4.431,-4.4468,-4.4621,0.0,0.0,0.0,0.0,0.0,0.0,0.0,0.0,0.0,0.0,0.0,0.0,0.0,0.0,0.0,0.0,0.0,0.0,0.0,0.0,-5.5592,-5.6143,-5.6212,-5.5955,-5.5403,-5.4719,-5.4093,-5.3534,-5.3501,-5.3501,-5.3501,-5.3501,-5.3501,-5.3501,-5.3501,-5.3501,-5.3501,-5.3501,-5.3501,-5.3501,-5.3501,-5.3501,-5.3501,-5.3501,-5.3501,-5.3501,-5.3501,-5.3416,-5.3264,-5.3264,-5.3195,-5.3058,-5.323,-5.3264,-5.3298,0.0,0.0,0.0,0.0,0.0,0.0,0.0,0.0,0.0,0.0,0.0,0.0,0.0,0.0,0.0,0.0,0.0,0.0,0.0,0.0,0.0,0.0,0.0,0.0,0.0,-3.5504,-3.5504,-3.5504,-3.6116,-3.7011,-3.8165,-3.825,-3.8618,-3.9245,0.0,0.0,-3.9299,-3.9299,-3.9299,-3.9299,-3.9299,0.0,0.0,0.0,0.0,0.0,0.0,0.0,0.0,0.0,0.0,0.0,0.0,0.0,-4.3898,-4.4039,-4.4184,-4.4338,-4.4542,-4.4598,-4.4739,-4.5449,0.0,0.0,0.0,0.0,0.0,0.0,0.0,0.0,0.0,0.0,0.0,0.0,0.0,0.0,0.0,0.0,0.0,0.0,-5.4245,-5.4703,-5.4754,-5.4754,-5.4737,-5.4686,-5.3991,-5.3568,-5.3501,-5.3501,-5.3501,-5.3501,-5.3501,-5.3501,-5.3501,-5.3501,-5.3501,-5.3501,-5.3501,-5.3501,-5.3501,-5.3501,-5.3501,-5.3501,-5.3501,-5.3501,-5.3501,-5.3501,-5.3501,-5.3467,-5.3467,-5.3467,-5.3467,-5.3467,-5.3467,-5.3467,0.0,0.0,0.0,0.0,0.0,0.0,0.0,0.0,0.0,0.0,0.0,0.0,0.0,0.0,0.0,0.0,0.0,0.0,0.0,0.0,0.0,0.0,0.0,-3.5504,-3.5504,-3.5504,-3.5668,-3.6053,-3.6692,-3.7041,-3.7131,-3.7531,0.0,0.0,0.0,0.0,-3.9299,-3.9299,-3.9299,-3.9299,-3.9299,-3.9299,0.0,0.0,0.0,0.0,0.0,0.0,0.0,0.0,-4.2986,0.0,0.0,0.0,-4.3927,-4.4056,-4.4196,-4.4338,-4.4542,-4.4615,-4.4784,0.0,0.0,0.0,0.0,0.0,0.0,0.0,0.0,0.0,0.0,0.0,0.0,0.0,0.0,0.0,0.0,0.0,0.0,-5.3501,-5.3754,-5.3923,-5.3923,-5.3923,-5.3923,-5.3923,-5.367,-5.3501,-5.3501,-5.3501,-5.3501,-5.3501,-5.3501,-5.3501,-5.3501,-5.3501,-5.3501,-5.3501,-5.3501,-5.3501,-5.3501,-5.3501,-5.3501,-5.3501,-5.3501,-5.3501,-5.3501,-5.3501,-5.3501,-5.3501,-5.3501,-5.3501,-5.3501,-5.3501,-5.3501,-5.3501,0.0,0.0,0.0,0.0,0.0,0.0,0.0,0.0,0.0,0.0,0.0,0.0,0.0,0.0,0.0,0.0,0.0,0.0,0.0,0.0,0.0,0.0,0.0,-3.5504,-3.5504,-3.5504,-3.5701,-3.6116,-3.6784,-3.6951,-3.6723,0.0,0.0,0.0,0.0,0.0,0.0,-3.9299,-3.9299,-3.9299,-3.9299,-3.9299,0.0,0.0,0.0,0.0,0.0,0.0,0.0,0.0,0.0,0.0,0.0,0.0,0.0,0.0,-4.4241,-4.4423,-4.457,-4.4784,-4.506,0.0,0.0,0.0,0.0,0.0,0.0,0.0,0.0,0.0,0.0,0.0,0.0,0.0,0.0,0.0,0.0,0.0,-5.3501,-5.3501,-5.3501,-5.3501,-5.3501,-5.3501,-5.3501,-5.3501,-5.3501,-5.3501,-5.3501,-5.3501,-5.3501,-5.3501,-5.3501,-5.3501,-5.3501,-5.3501,-5.3501,-5.3501,-5.3501,-5.3501,-5.3501,-5.3501,-5.3501,-5.3501,-5.3501,-5.3501,-5.3501,-5.3501,-5.3501,-5.3501,-5.3501,-5.3501,-5.3501,-5.3501,-5.3501,-5.3501,0.0,0.0,0.0,0.0,0.0,0.0,0.0,0.0,0.0,0.0,0.0,0.0,0.0,0.0,0.0,0.0,0.0,0.0,0.0,0.0,0.0,0.0,0.0,-3.5504,-3.5504,-3.5504,-3.5504,-3.5504,-3.6116,-3.6753,-3.7383,-3.7994,0.0,0.0,0.0,0.0,0.0,0.0,-3.9299,-3.9299,-3.9315,-3.9315,-3.9398,0.0,0.0,0.0,0.0,0.0,0.0,0.0,0.0,0.0,0.0,0.0,0.0,0.0,-4.4344,-4.4615,-4.4615,-4.5128,0.0,0.0,0.0,0.0,0.0,0.0,0.0,0.0,0.0,0.0,0.0,0.0,0.0,0.0,0.0,0.0,0.0,0.0,-5.3518,-5.3501,-5.3501,-5.3501,-5.3501,-5.3501,-5.3501,-5.3501,-5.3501,-5.3501,-5.3501,-5.3501,-5.3501,-5.3501,-5.3501,-5.3501,-5.3501,-5.3501,-5.3501,-5.3501,-5.3501,-5.3501,-5.3501,-5.3501,-5.3501,-5.3501,-5.3501,-5.3501,-5.3518,-5.3518,-5.3518,-5.3501,-5.3501,-5.3501,-5.3501,-5.3501,-5.3501,-5.3501,0.0,0.0,0.0,0.0,0.0,0.0,0.0,0.0,0.0,0.0,0.0,0.0,0.0,0.0,0.0,0.0,0.0,0.0,0.0,0.0,0.0,0.0,0.0,0.0,0.0,0.0,-3.5504,-3.5504,-3.6585,-3.6951,0.0,0.0,0.0,-3.859,0.0,0.0,0.0,0.0,-3.9299,-3.9348,-3.9862,-4.0078,-4.016,0.0,0.0,0.0,0.0,0.0,0.0,0.0,0.0,0.0,0.0,0.0,0.0,0.0,-4.4412,-4.4615,-4.4615,0.0,0.0,0.0,0.0,0.0,0.0,0.0,0.0,0.0,0.0,0.0,0.0,0.0,0.0,0.0,-5.4617,-5.4532,0.0,-5.4735,-5.4076,-5.3568,-5.3501,-5.3501,-5.3501,-5.3501,-5.3501,-5.3501,-5.3501,-5.3501,-5.3501,-5.3501,-5.3501,-5.3501,-5.3501,-5.3501,-5.3501,-5.3501,-5.3416,-5.3298,-5.3298,-5.3348,-5.3501,-5.3501,-5.3501,-5.3501,-5.3501,-5.3788,-5.4262,-5.4262,-5.3974,-5.3501,-5.3501,-5.3501,-5.3501,-5.3501,-5.3501,-5.3501,0.0,0.0,0.0,0.0,0.0,0.0,0.0,0.0,0.0,0.0,0.0,0.0,0.0,0.0,0.0,0.0,0.0,0.0,0.0,0.0,0.0,0.0,0.0,0.0,0.0,-3.5504,-3.5504,0.0,0.0,0.0,0.0,0.0,0.0,-3.8717,0.0,-3.8925,0.0,0.0,-3.9481,-3.9779,-4.0227,-4.0575,-4.0862,0.0,0.0,0.0,0.0,0.0,0.0,0.0,0.0,0.0,0.0,0.0,0.0,0.0,-4.444,-4.4615,0.0,0.0,0.0,0.0,0.0,0.0,0.0,0.0,0.0,0.0,0.0,0.0,0.0,0.0,0.0,0.0,-5.4888,-5.4854,-5.5615,-5.5074,-5.4431,-5.3991,-5.3687,-5.3501,-5.3501,-5.3501,-5.3501,-5.3501,-5.3501,-5.3501,-5.3501,-5.3501,-5.3501,-5.3501,-5.3501,-5.3501,-5.3501,-5.3501,-5.3433,-5.3298,-5.3298,-5.3382,-5.3501,-5.3314,-5.3314,-5.3382,-5.3467,-5.3754,-5.416,-5.416,-5.3907,-5.3501,-5.3501,-5.3501,-5.3501,-5.3501,-5.3501,-5.3501,0.0,0.0,0.0,0.0,0.0,0.0,0.0,0.0,0.0,0.0,0.0,0.0,0.0,0.0,0.0,0.0,0.0,0.0,0.0,0.0,0.0,0.0,0.0,0.0,0.0,0.0,0.0,0.0,0.0,0.0,0.0,0.0,-3.8197,-3.9299,0.0,-3.9332,0.0,-3.9398,-3.9829,-4.0509,-4.0575,-4.0961,-4.1591,-4.2307,0.0,0.0,0.0,0.0,0.0,0.0,0.0,0.0,0.0,0.0,0.0,-4.4338,-4.4468,0.0,0.0,0.0,0.0,0.0,0.0,0.0,0.0,0.0,0.0,0.0,0.0,0.0,0.0,0.0,0.0,0.0,-5.4583,-5.482,-5.553,-5.5023,-5.4566,-5.4499,-5.3907,-5.3501,-5.3501,-5.3501,-5.3501,-5.3501,-5.3501,-5.3501,-5.3501,-5.3501,-5.3501,-5.3501,-5.3501,-5.3501,-5.3501,-5.3501,-5.3467,-5.3365,-5.3365,-5.3332,-5.323,-5.3025,-5.3041,-5.323,-5.3484,-5.3568,-5.3518,-5.3568,-5.3568,-5.3501,-5.3501,-5.3501,-5.3501,-5.3501,-5.3501,-5.3501,0.0,0.0,0.0,0.0,0.0,0.0,0.0,0.0,0.0,0.0,0.0,0.0,0.0,0.0,0.0,0.0,0.0,0.0,0.0,0.0,0.0,0.0,0.0,0.0,0.0,0.0,0.0,0.0,0.0,0.0,0.0,0.0,0.0,-3.9299,0.0,-3.9613,-4.016,-4.016,-4.0547,-4.1243,-4.1823,-4.2109,-4.2324,-4.3069,-4.335,0.0,0.0,0.0,0.0,0.0,0.0,0.0,0.0,-4.4184,-4.4338,-4.4468,-4.457,0.0,0.0,0.0,0.0,0.0,0.0,0.0,0.0,0.0,0.0,0.0,0.0,0.0,0.0,0.0,0.0,-5.4465,-5.4583,-5.4651,-5.4803,-5.4685,-5.438,-5.3805,-5.3602,-5.3501,-5.3501,-5.3501,-5.3501,-5.3501,-5.3501,-5.3501,-5.3501,-5.3501,-5.3501,-5.3501,-5.3501,-5.3501,-5.3501,-5.3501,-5.3146,-5.2404,-5.2404,-5.2001,-5.1346,-5.2758,-5.3382,-5.345,-5.411,-5.4025,-5.3551,-5.411,-5.4008,-5.3501,-5.3501,-5.3501,-5.3501,-5.3501,-5.3501,-5.3501,0.0,0.0,0.0,0.0,0.0,0.0,0.0,0.0,0.0,0.0,0.0,0.0,0.0,0.0,0.0,0.0,0.0,0.0,0.0,0.0,0.0,0.0,0.0,0.0,0.0,0.0,0.0,0.0,0.0,0.0,0.0,0.0,0.0,-3.9315,0.0,-4.0044,-4.0426,-4.0729,-4.1293,-4.1943,-4.234,-4.2704,-4.3069,-4.3449,-4.3598,-4.3628,-4.3704,0.0,0.0,0.0,0.0,0.0,0.0,0.0,-4.4468,-4.457,-4.4615,0.0,0.0,0.0,0.0,0.0,0.0,0.0,0.0,0.0,0.0,0.0,0.0,0.0,0.0,0.0,0.0,-5.4008,-5.4363,-5.4583,-5.4583,-5.4583,-5.4448,-5.4059,-5.3721,-5.3501,-5.3501,-5.3501,-5.3501,-5.3501,-5.3501,-5.3501,-5.3501,-5.3501,-5.3501,-5.3501,-5.3129,-5.2926,-5.2926,-5.2587,-5.2116,-5.1563,-5.1629,-5.141,-5.0958,-5.1898,-5.2286,-5.2336,-5.2791,-5.2756,-5.2435,-5.2807,-5.2756,-5.2418,-5.2418,-5.2418,-5.2418,-5.2418,-5.2621,-5.2926,0.0,0.0,0.0,0.0,0.0,0.0,0.0,0.0,0.0,0.0,0.0,0.0,0.0,0.0,0.0,0.0,0.0,0.0,0.0,0.0,0.0,0.0,0.0,0.0,0.0,0.0,0.0,0.0,0.0,0.0,0.0,0.0,0.0,-3.9335,0.0,0.0,-4.0796,-4.1359,-4.2009,-4.2688,-4.2688,-4.3052,-4.3598,-4.3628,-4.3658,-4.3674,-4.3868,-4.3927,-4.3956,-4.4068,0.0,0.0,0.0,0.0,-4.4615,-4.4615,-4.4615,-4.4767,0.0,0.0,0.0,0.0,0.0,0.0,0.0,0.0,0.0,0.0,0.0,0.0,0.0,0.0,0.0,-5.3501,-5.4008,-5.4397,-5.4397,-5.4397,-5.4397,-5.4397,-5.3873,-5.3501,-5.3501,-5.3501,-5.3501,-5.3501,-5.3365,-5.3298,-5.3298,-5.3179,-5.3112,-5.3112,-5.2419,-5.2098,-5.2098,-5.1457,-5.0988,-5.0756,-5.0735,-5.0732,-5.0732,-5.0619,-5.0738,-5.1039,-5.1153,-5.1185,-5.1185,-5.1185,-5.1185,-5.1185,-5.1185,-5.1185,-5.1185,-5.1185,-5.1606,-5.2114,0.0,0.0,0.0,0.0,0.0,0.0,0.0,0.0,0.0,0.0,0.0,0.0,0.0,0.0,0.0,0.0,0.0,0.0,-3.5504,0.0,0.0,-3.5504,-3.5504,0.0,0.0,0.0,0.0,0.0,0.0,0.0,0.0,0.0,0.0,0.0,0.0,0.0,0.0,-4.2307,-4.2771,-4.3449,-4.3449,-4.3499,-4.3628,-4.3793,-4.3868,-4.3898,-4.4027,-4.4068,-4.4085,-4.4097,-4.4196,0.0,0.0,0.0,-4.4615,-4.4615,-4.4615,0.0,0.0,0.0,0.0,0.0,0.0,0.0,0.0,0.0,0.0,0.0,0.0,0.0,0.0,0.0,0.0,-5.3501,-5.3585,-5.3653,-5.3653,-5.3653,-5.3653,-5.3653,-5.3568,-5.3501,-5.3501,-5.3501,-5.3501,-5.3501,-5.2858,-5.2469,-5.2469,-5.186,-5.1522,-5.1522,-5.1307,-5.1158,-5.1158,-5.0892,-5.0424,-4.9772,-4.915,-4.888,-4.888,-4.8832,-4.9681,-5.1185,-5.1185,-5.1185,-5.1185,-5.1185,-5.1185,-5.1185,-5.1185,-5.1185,-5.1185,-5.1185,-5.1268,-5.1369,0.0,0.0,0.0,0.0,0.0,0.0,0.0,0.0,0.0,0.0,0.0,0.0,0.0,0.0,0.0,-3.5504,-3.5504,-3.5504,-3.5504,-3.5504,-3.5504,-3.5504,-3.5504,-3.5504,0.0,0.0,0.0,0.0,0.0,0.0,0.0,-3.9446,-3.9939,0.0,0.0,0.0,0.0,0.0,0.0,0.0,-4.3734,-4.3763,0.0,0.0,-4.3998,-4.4027,-4.4167,-4.4196,-4.4224,-4.4327,-4.4412,-4.4468,-4.4468,0.0,0.0,0.0,-4.4874,0.0,0.0,0.0,0.0,0.0,0.0,0.0,0.0,0.0,0.0,0.0,0.0,0.0,0.0,0.0,-5.2215,-5.2215,-5.2215,-5.2215,-5.2215,-5.2215,-5.2215,-5.2215,-5.2215,-5.2215,-5.2215,-5.2215,-5.2215,-5.2215,-5.1894,-5.1691,-5.1691,-5.1403,-5.1185,-5.1185,-5.0747,-5.0448,-5.0368,-4.9883,-4.9433,-4.8969,-4.8458,-4.8373,-4.8658,-4.8547,-4.9011,-4.9873,-4.9873,-4.9888,-4.9982,-4.9982,-4.9982,-4.9982,-4.9982,-4.9982,-4.9982,-4.9982,-5.0236,-5.0591,0.0,0.0,0.0,0.0,0.0,0.0,0.0,0.0,0.0,0.0,0.0,0.0,0.0,0.0,0.0,0.0,-3.5504,-3.5504,-3.5504,-3.5504,-3.5504,-3.5504,-3.5504,-3.5579,-3.5744,0.0,0.0,0.0,0.0,0.0,-3.9241,-3.9871,-4.0448,0.0,-4.2038,0.0,0.0,0.0,0.0,0.0,0.0,0.0,0.0,0.0,-4.4155,-4.4184,-4.431,-4.4367,-4.4412,-4.4542,-4.4615,-4.4615,-4.4615,-4.4615,0.0,0.0,0.0,0.0,0.0,0.0,0.0,0.0,0.0,0.0,0.0,0.0,0.0,0.0,0.0,0.0,0.0,0.0,-5.1185,-5.1185,-5.1185,-5.1185,-5.1185,-5.1185,-5.1185,-5.1185,-5.1185,-5.1185,-5.1185,-5.1153,-5.1153,-5.1153,-5.0919,-5.0801,-5.0801,-5.0632,-5.0514,-5.0514,-4.9942,-4.9577,-4.9483,-4.8897,-4.8517,-4.8356,-4.8147,-4.8261,-4.858,-4.8532,-4.8595,-4.8738,-4.8801,-4.8925,-4.9001,-4.9001,-4.9001,-4.9001,-4.9001,-4.9001,-4.9001,-4.9001,-4.9357,-4.9813,0.0,0.0,0.0,0.0,0.0,0.0,0.0,0.0,0.0,0.0,0.0,0.0,0.0,-3.5504,-3.5504,-3.5504,-3.5504,-3.5504,-3.5504,-3.5504,-3.5504,-3.5504,-3.5504,0.0,-3.6417,0.0,0.0,0.0,0.0,0.0,-4.1217,-4.0071,-4.0579,-4.2373,-4.2456,-4.2886,-4.3549,0.0,0.0,0.0,0.0,0.0,0.0,0.0,0.0,0.0,0.0,-4.457,-4.4587,-4.4615,-4.4615,-4.4615,-4.4615,-4.4615,-4.475,0.0,0.0,0.0,0.0,0.0,0.0,0.0,0.0,0.0,0.0,0.0,0.0,0.0,0.0,0.0,0.0,0.0,-5.1185,-5.1185,-5.1185,-5.1185,-5.1185,-5.1185,-5.1185,-5.1185,-5.1185,-5.1185,-5.1185,-5.1105,-5.1007,-5.1007,-5.0188,-4.9688,-4.9688,-4.9018,-4.8632,-4.8632,-4.8439,-4.8294,-4.8294,-4.8099,-4.8033,-4.8033,-4.8147,-4.8147,-4.8066,-4.8356,-4.8515,-4.8547,-4.8846,-4.9001,-4.9001,-4.9001,-4.9001,-4.9001,-4.9001,-4.9001,-4.9001,-4.9001,-4.9018,-4.9069,0.0,0.0,0.0,0.0,0.0,0.0,0.0,0.0,0.0,0.0,0.0,0.0,0.0,-3.5504,-3.5504,-3.5504,-3.5893,-3.6312,-3.6701,-3.6731,-3.6731,-3.6731,-3.6731,-3.6836,-3.7075,0.0,0.0,0.0,0.0,-3.9474,-4.0182,-4.1087,-4.1868,-4.2551,-4.2551,-4.2958,-4.3598,-4.3734,0.0,0.0,0.0,0.0,0.0,0.0,0.0,0.0,0.0,0.0,-4.5314,-4.5314,-4.5618,-4.602,-4.602,-4.602,-4.6143,-4.6904,-4.7483,-4.799,0.0,0.0,0.0,0.0,0.0,0.0,0.0,0.0,0.0,0.0,0.0,0.0,0.0,0.0,0.0,-4.9796,-4.9796,-4.9796,-4.9796,-4.9796,-4.9796,-4.9796,-4.9796,-4.9796,-4.9796,-4.9734,-4.9719,-4.9719,-4.934,-4.911,-4.911,-4.8698,-4.8515,-4.8515,-4.842,-4.8324,-4.8195,-4.8066,-4.8001,-4.8001,-4.8066,-4.8082,-4.8147,-4.826,-4.8388,-4.8515,-4.861,-4.8815,-4.9001,-4.9001,-4.9001,-4.9001,-4.9001,-4.9001,-4.9001,-4.9001,-4.9001,-4.9001,0.0,0.0,0.0,0.0,0.0,0.0,0.0,0.0,0.0,0.0,0.0,0.0,0.0,0.0,-3.6148,-3.6148,-3.6552,-3.6971,-3.7375,-3.7404,-3.7404,-3.7404,-3.7404,-3.7509,-3.7734,0.0,0.0,0.0,0.0,0.0,0.0,0.0,-4.2029,-4.2253,-4.2491,-4.2974,0.0,0.0,0.0,-4.3805,0.0,0.0,-4.4453,0.0,0.0,0.0,0.0,0.0,0.0,-4.6075,-4.6397,-4.6786,-4.6786,-4.6972,-4.7276,-4.7753,-4.8075,-4.8392,-4.8883,0.0,0.0,0.0,0.0,0.0,0.0,0.0,0.0,0.0,0.0,0.0,0.0,0.0,0.0,-4.9001,-4.9001,-4.9001,-4.9001,-4.9001,-4.9001,-4.9001,-4.9001,-4.9001,-4.9001,-4.894,-4.8909,-4.8909,-4.8801,-4.8707,-4.8707,-4.8532,-4.8388,-4.8324,-4.8324,-4.8276,-4.813,-4.8017,-4.8001,-4.8001,-4.8066,-4.8082,-4.8147,-4.8308,-4.8405,-4.842,-4.8547,-4.869,-4.8846,-4.8925,-4.8909,-4.8956,-4.897,-4.9001,-4.9001,-4.9001,-4.9001,-4.9001,0.0,0.0,0.0,0.0,0.0,0.0,0.0,0.0,0.0,0.0,0.0,0.0,0.0,0.0,0.0,-3.7434,-3.7434,-3.7449,-3.7464,-3.7464,-3.7464,-3.7464,-3.7464,-3.7764,-3.8407,0.0,0.0,0.0,0.0,0.0,0.0,0.0,-4.0873,0.0,-4.2253,-4.299,-4.3585,0.0,-4.3822,-4.4131,0.0,-4.4653,-4.5425,0.0,0.0,0.0,-4.6727,-4.6802,0.0,-4.6819,0.0,0.0,0.0,-4.7361,-4.7922,-4.7922,-4.8443,-4.9001,0.0,0.0,0.0,0.0,0.0,0.0,0.0,0.0,0.0,0.0,0.0,0.0,0.0,0.0,0.0,-4.9001,-4.9001,-4.9001,-4.9001,-4.9001,-4.9001,-4.9001,-4.9001,-4.9001,-4.9001,-4.8894,-4.8818,-4.8818,-4.8627,-4.8515,-4.8515,-4.8324,-4.8147,-4.8001,-4.8001,-4.8001,-4.8001,-4.8001,-4.8001,-4.8001,-4.8147,-4.813,-4.8033,-4.8549,-4.8564,-4.8227,-4.8612,-4.8675,-4.8515,-4.8707,-4.8818,-4.8801,-4.8956,-4.9001,-4.9001,-4.9001,-4.9001,-4.9001,0.0,0.0,0.0,0.0,0.0,0.0,0.0,0.0,0.0,0.0,0.0,0.0,0.0,-3.73,-3.7599,-3.8078,-3.8123,-3.8332,-3.8826,-3.8871,-3.8871,-3.8871,-3.8871,-3.8945,-3.9125,0.0,0.0,0.0,0.0,0.0,0.0,0.0,0.0,0.0,-4.2045,-4.3002,-4.3694,-4.3873,0.0,0.0,-4.4913,-4.5395,0.0,0.0,0.0,0.0,0.0,-4.7141,-4.7614,0.0,-4.7953,-4.8392,0.0,0.0,-4.8714,-4.8714,-4.8849,-4.9001,-4.9001,0.0,0.0,0.0,0.0,0.0,0.0,0.0,0.0,0.0,0.0,0.0,0.0,0.0,0.0,-4.9001,-4.9001,-4.9001,-4.9001,-4.9001,-4.9001,-4.9001,-4.9001,-4.9001,-4.9001,-4.8987,-4.894,0.0,-4.8801,-4.8707,-4.8707,-4.8532,-4.8388,-4.8356,-4.8356,-4.8292,-4.8147,-4.8292,-4.8292,-4.8147,-4.8163,-4.826,-4.8356,-4.8356,-4.8388,-4.842,-4.8515,-4.8547,-4.8515,-4.8707,-4.8863,-4.8956,-4.897,-4.9001,-4.9001,-4.9001,-4.9001,-4.9001,0.0,0.0,0.0,0.0,0.0,0.0,0.0,0.0,0.0,0.0,0.0,0.0,0.0,0.0,-3.8407,-3.8781,-3.8826,-3.899,-3.9358,-3.9388,-3.9388,-3.9388,-3.9388,-3.9388,-3.9388,0.0,0.0,0.0,0.0,0.0,0.0,0.0,0.0,0.0,0.0,0.0,0.0,0.0,0.0,0.0,-4.5637,0.0,0.0,-4.6972,-4.7248,0.0,0.0,0.0,-4.8376,-4.8376,-4.8646,0.0,0.0,0.0,0.0,-4.9001,-4.9001,-4.9001,-4.9001,0.0,0.0,0.0,0.0,0.0,-4.9001,-4.8956,-4.8894,0.0,0.0,0.0,0.0,0.0,0.0,-4.9001,-4.9001,-4.9001,-4.9001,-4.9001,-4.897,-4.8909,-4.8925,-4.8877,-4.8815,-4.8798,-4.8798,-4.8798,-4.8721,-4.8644,-4.8532,-4.842,-4.8356,-4.8292,-4.8308,-4.8244,-4.8115,-4.8292,-4.8324,-4.8195,-4.8292,-4.8388,-4.8515,-4.8468,-4.8468,-4.8515,-4.8595,-4.8627,-4.8627,-4.8738,-4.8849,-4.8925,-4.897,-4.9001,-4.9001,-4.9001,-4.9001,-4.9001,0.0,0.0,0.0,0.0,0.0,0.0,0.0,0.0,0.0,0.0,0.0,0.0,0.0,0.0,0.0,-3.9388,-3.9388,-3.9388,-3.9388,-3.9388,-3.9388,-3.9388,-3.9388,-3.9388,-3.9388,0.0,0.0,0.0,0.0,0.0,0.0,0.0,0.0,0.0,0.0,0.0,0.0,0.0,0.0,-4.6153,-4.6224,-4.6781,0.0,0.0,-4.8321,-4.8849,-4.8956,-4.897,-4.9001,-4.9001,-4.9001,0.0,0.0,0.0,0.0,0.0,-4.9001,0.0,0.0,0.0,0.0,0.0,-4.9001,0.0,-4.9001,-4.9001,-4.897,-4.897,0.0,0.0,0.0,0.0,0.0,-4.894,-4.897,-4.897,-4.9001,-4.9001,-4.8956,-4.8849,-4.8801,-4.8769,-4.8578,-4.8547,-4.8547,-4.8547,-4.8515,-4.842,-4.826,-4.826,-4.8179,-4.8066,-4.8066,-4.8033,-4.8033,-4.8163,-4.8227,-4.8195,-4.842,-4.8515,-4.8547,-4.8707,-4.8707,-4.8578,-4.8738,-4.8801,-4.8801,-4.8801,-4.8801,-4.8832,-4.894,-4.9001,-4.9001,-4.9001,-4.9001,-4.9001,-3.6301,0.0,0.0,0.0,0.0,0.0,0.0,0.0,0.0,0.0,0.0,0.0,0.0,0.0,0.0,0.0,-3.9388,-3.9388,-3.9388,-3.9388,-3.9388,-3.9388,-3.9388,-3.9388,-3.9388,-3.929,0.0,0.0,0.0,0.0,0.0,0.0,0.0,0.0,0.0,0.0,0.0,0.0,0.0,-4.6846,-4.6389,0.0,-4.8297,-4.8377,-4.8618,-4.8956,-4.8863,-4.8925,-4.9001,-4.9001,-4.9001,-4.9001,0.0,0.0,0.0,-4.9001,0.0,0.0,0.0,0.0,-4.9001,-4.9001,-4.9001,0.0,-4.9001,-4.8925,-4.8832,0.0,0.0,0.0,0.0,0.0,0.0,0.0,-4.8721,-4.8863,-4.897,-4.9001,-4.9001,-4.897,-4.894,-4.8956,-4.8909,-4.8909,-4.8846,-4.8738,-4.8595,-4.8547,-4.8675,-4.8532,-4.842,-4.8388,-4.8388,-4.8324,-4.8163,-4.8356,-4.8356,-4.8195,-4.842,-4.8595,-4.8738,-4.8769,-4.8832,-4.8909,-4.894,-4.894,-4.894,-4.894,-4.894,-4.897,-4.9001,-4.9001,-4.9001,-4.9001,-4.9001,-4.9001,-3.7259,0.0,0.0,0.0,0.0,0.0,0.0,0.0,0.0,0.0,0.0,0.0,0.0,0.0,0.0,0.0,-4.0397,-4.0397,-4.0397,-4.0397,-4.0247,-3.9918,-3.9903,-3.9753,-3.9388,-3.9388,-3.9574,0.0,0.0,0.0,0.0,0.0,0.0,0.0,0.0,0.0,0.0,0.0,-4.5441,-4.6967,-4.7144,0.0,-4.8515,-4.8627,-4.8753,-4.8894,-4.8894,-4.894,-4.9001,-4.9001,-4.9001,0.0,-4.9001,-4.9001,-4.9001,-4.9001,-4.9001,-4.9001,-4.9001,-4.9001,-4.897,-4.8925,-4.8956,0.0,0.0,-4.8769,-4.8769,-4.8658,0.0,0.0,0.0,0.0,0.0,-4.8515,-4.8595,-4.8658,-4.8753,-4.8846,-4.8728,-4.8248,-4.8152,-4.7908,-4.746,-4.7378,-4.7364,-4.7318,-4.7208,-4.7208,-4.7318,-4.7558,-4.7694,-4.7694,-4.8044,-4.8244,-4.8195,-4.8292,-4.8356,-4.8356,-4.8564,-4.8707,-4.8818,-4.8863,-4.8956,-4.9001,-4.9001,-4.9001,-4.9001,-4.9001,-4.9001,-4.9001,-4.9001,-4.9001,-4.9001,-4.9001,-4.9001,-4.9001,-3.8202,0.0,0.0,0.0,0.0,0.0,0.0,0.0,0.0,0.0,0.0,0.0,0.0,0.0,0.0,0.0,0.0,-4.1422,-4.1422,-4.1422,-4.1145,-4.0606,-4.0591,-4.0337,-3.9813,-3.9798,-4.0053,0.0,0.0,0.0,0.0,0.0,0.0,0.0,0.0,0.0,0.0,0.0,0.0,-4.6692,0.0,-4.8146,-4.8452,-4.8627,-4.8707,-4.8769,-4.8925,-4.897,-4.9001,-4.9001,-4.9001,-4.9001,-4.9001,-4.9001,-4.9001,-4.9001,-4.9001,-4.9001,-4.9001,-4.9001,-4.897,-4.8863,-4.8925,-4.894,0.0,0.0,0.0,0.0,0.0,0.0,0.0,0.0,0.0,0.0,0.0,0.0,0.0,-4.8209,0.0,-4.7479,-4.7287,-4.6878,-4.5989,-4.586,-4.586,-4.5875,-4.5829,-4.5829,-4.586,-4.6393,-4.6692,-4.6692,-4.7404,-4.785,-4.7963,-4.8096,-4.8276,-4.8452,-4.8627,-4.8769,-4.8801,-4.8956,-4.9001,-4.9001,-4.9001,-4.9001,-4.9001,-4.9001,-4.9001,-4.9001,-4.9001,-4.9001,-4.9001,-4.9001,-4.9001,-4.9001,-3.8202,-3.8202,0.0,0.0,0.0,0.0,0.0,0.0,0.0,0.0,0.0,0.0,0.0,0.0,0.0,0.0,0.0,0.0,-4.1422,-4.1422,-4.1392,-4.1265,-4.1265,-4.1235,-4.116,-4.116,-4.119,-4.1265,0.0,0.0,0.0,0.0,0.0,0.0,-4.2965,0.0,0.0,0.0,-4.5005,0.0,-4.6692,-4.7489,0.0,-4.826,-4.8388,-4.8547,-4.8769,-4.8894,-4.9001,0.0,-4.9001,-4.9001,-4.9001,-4.9001,-4.9001,-4.9001,-4.9001,-4.9001,-4.9001,-4.9001,-4.9001,-4.897,-4.9001,-4.9001,-4.894,0.0,-4.8738,-4.8547,0.0,0.0,0.0,0.0,0.0,0.0,0.0,0.0,-4.5674,-4.6541,-4.7404,-4.7398,-4.7381,-4.708,-4.6327,-4.6124,-4.6124,-4.6229,-4.5984,-4.586,-4.6079,-4.5974,-4.5914,-4.5914,-4.6626,-4.7023,-4.7056,-4.7702,-4.8082,-4.8227,-4.8452,-4.8627,-4.8801,-4.8956,-4.9001,-4.9001,-4.9001,-4.9001,-4.9001,-4.9001,-4.9001,-4.9001,-4.9001,-4.9001,-4.9001,-4.9001,-4.9001,-4.9001,-3.8202,-3.8202,0.0,0.0,0.0,0.0,0.0,0.0,0.0,0.0,0.0,0.0,0.0,0.0,0.0,0.0,0.0,-4.2506,0.0,0.0,0.0,-4.2006,-4.1991,-4.1811,-4.1384,-4.1422,-4.1602,-4.1991,-4.1991,0.0,0.0,0.0,0.0,0.0,-4.3392,0.0,-4.4004,0.0,-4.432,0.0,0.0,0.0,0.0,-4.7984,-4.8405,-4.8707,-4.8863,-4.8956,-4.9001,-4.9001,-4.9001,-4.9001,-4.9001,-4.9001,-4.9001,-4.9001,-4.9001,-4.9001,-4.9001,-4.9001,-4.897,-4.8894,-4.8956,-4.894,-4.8736,-4.8769,-4.8707,-4.8388,0.0,0.0,0.0,0.0,0.0,0.0,-4.7651,0.0,0.0,0.0,-4.6782,0.0,0.0,0.0,-4.4817,-4.469,-4.466,-4.472,-4.46,-4.4569,-4.463,-4.4967,-4.5152,-4.5152,-4.5864,-4.6325,-4.6435,-4.7054,-4.7468,-4.7628,-4.8092,-4.842,-4.8627,-4.8801,-4.8925,-4.9001,-4.9001,-4.9001,-4.9001,-4.9001,-4.9001,-4.9001,-4.9001,-4.9001,-4.9001,-4.9001,-4.9001,-4.9001,-3.8202,0.0,0.0,0.0,0.0,0.0,0.0,0.0,0.0,0.0,0.0,0.0,-4.2276,-4.2396,0.0,0.0,-4.329,-4.329,0.0,0.0,-4.312,-4.2656,-4.2626,-4.2402,-4.1923,-4.1923,-4.2147,-4.2626,0.0,0.0,0.0,0.0,0.0,0.0,0.0,-4.363,-4.4143,0.0,0.0,-4.4548,-4.5147,-4.5933,-4.688,-4.782,-4.834,-4.8644,-4.8753,-4.8815,-4.8877,-4.8877,-4.8877,-4.8877,-4.8877,-4.8877,-4.8877,-4.8877,-4.8877,-4.8877,-4.8909,-4.8956,-4.8925,-4.8863,-4.8925,-4.894,-4.8673,-4.8721,-4.8707,-4.8436,-4.8324,0.0,0.0,0.0,-4.7901,-4.7471,0.0,-4.7537,0.0,-4.6344,0.0,0.0,0.0,0.0,0.0,-4.3598,-4.3598,-4.3598,-4.3598,-4.3598,-4.3598,-4.4125,-4.439,-4.439,-4.5102,-4.5562,-4.5701,-4.6291,-4.6804,-4.7195,-4.7694,-4.8172,-4.8595,-4.8738,-4.8863,-4.9001,-4.9001,-4.9001,-4.9001,-4.9001,-4.9001,-4.9001,-4.9001,-4.9001,-4.9001,-4.9001,-4.9001,-4.9001,-3.8202,-3.8202,0.0,0.0,0.0,0.0,0.0,0.0,0.0,0.0,0.0,0.0,0.0,0.0,0.0,0.0,0.0,-4.329,-4.329,0.0,-4.329,-4.326,-4.326,-4.3245,-4.323,-4.323,-4.3245,-4.326,0.0,0.0,0.0,0.0,0.0,0.0,0.0,-4.3329,-4.3329,-4.329,-4.3771,-4.451,-4.451,-4.5447,-4.6896,0.0,-4.8082,-4.8227,-4.8227,-4.8356,-4.8515,-4.8515,-4.8515,-4.8515,-4.8515,-4.8515,-4.8515,-4.8515,-4.8515,-4.8547,-4.8738,-4.8818,-4.8849,-4.894,-4.9001,-4.9001,-4.9001,-4.8894,-4.8786,-4.8769,-4.8627,-4.842,-4.8227,-4.8195,-4.7665,-4.6127,-4.7073,0.0,0.0,0.0,0.0,0.0,0.0,0.0,0.0,-4.3598,-4.3598,-4.3598,-4.3598,-4.3598,-4.3598,-4.3615,-4.3631,-4.3631,-4.4357,-4.4752,-4.4752,-4.545,-4.629,-4.7195,-4.7212,-4.7784,-4.8769,-4.8818,-4.8863,-4.9001,-4.9001,-4.9001,-4.9001,-4.9001,-4.9001,-4.9001,-4.9001,-4.9001,-4.9001,-4.9001,-4.9001,-4.9001,0.0,0.0,0.0,0.0,0.0,0.0,0.0,-4.036,0.0,0.0,-4.1931,0.0,0.0,-4.3389,-4.3748,0.0,0.0,-4.3947,-4.3947,-4.3544,-4.329,-4.329,-4.329,-4.329,-4.329,-4.329,-4.329,-4.329,0.0,0.0,0.0,0.0,0.0,0.0,0.0,-4.329,0.0,0.0,0.0,0.0,0.0,-4.5132,-4.6147,0.0,-4.7754,-4.8227,-4.8356,-4.8452,-4.8515,-4.8515,-4.8515,-4.8515,-4.8515,-4.8515,-4.8515,-4.8515,-4.8515,-4.8515,-4.8595,-4.8595,-4.8627,-4.8642,-4.8753,-4.8863,-4.8863,-4.8894,-4.8894,-4.8801,-4.8738,-4.8595,-4.826,-4.8195,-4.7996,-4.737,-4.7669,-4.7305,0.0,0.0,0.0,0.0,0.0,0.0,0.0,0.0,-4.3674,-4.3793,-4.3793,-4.3852,-4.3923,-4.3923,-4.3923,-4.3923,-4.4186,-4.426,-4.4158,-4.4856,-4.5557,-4.6273,-4.6771,-4.7481,-4.8405,-4.8532,-4.869,-4.8863,-4.894,-4.9001,-4.9001,-4.9001,-4.9001,-4.9001,-4.9001,-4.9001,-4.9001,-4.9001,-4.9001,-4.9001,-3.887,0.0,0.0,0.0,0.0,0.0,0.0,0.0,0.0,0.0,-4.28,0.0,-4.3589,0.0,-4.4661,0.0,-4.4661,-4.4661,-4.4661,-4.4047,-4.3648,-4.3648,-4.3424,-4.329,-4.329,-4.329,-4.329,-4.329,0.0,-4.329,0.0,0.0,0.0,0.0,0.0,0.0,-4.329,0.0,-4.329,0.0,0.0,-4.4702,0.0,0.0,-4.7458,-4.8116,-4.8514,-4.8829,-4.9092,-4.9092,-4.9092,-4.9042,-4.8808,-4.8692,-4.8642,-4.8407,-4.8324,-4.8324,-4.8388,-4.8388,-4.842,-4.8483,-4.8595,-4.869,-4.869,-4.8753,-4.8815,-4.8707,-4.869,-4.8595,-4.826,-4.8195,-4.8179,-4.8033,-4.8001,-4.7487,0.0,-4.4754,-4.388,-4.3631,0.0,0.0,0.0,-4.3598,-4.3658,-4.3763,-4.3793,-4.3822,-4.3923,-4.3981,-4.4027,-4.4027,-4.4085,-4.4056,-4.3969,-4.439,-4.49,-4.5509,-4.624,-4.7033,-4.7878,-4.8303,-4.8627,-4.8818,-4.8956,-4.9001,-4.9001,-4.9001,-4.9001,-4.9001,-4.9001,-4.9001,-4.9001,-4.9001,-4.9001,-4.9001,0.0,0.0,0.0,0.0,-4.0134,0.0,0.0,0.0,-4.2455,0.0,-4.3539,-4.4332,-4.4362,-4.4945,-4.5349,-4.5349,-4.5349,-4.5349,-4.5349,-4.4721,0.0,-4.4362,-4.3693,-4.3349,-4.3349,-4.3305,-4.329,-4.329,0.0,0.0,0.0,0.0,0.0,0.0,-4.329,0.0,-4.329,-4.329,-4.329,-4.329,-4.3334,-4.4195,-4.5541,-4.6445,-4.7255,-4.7968,-4.8686,-4.9513,-5.022,-5.022,-5.022,-5.0088,-4.9392,-4.916,-4.9028,-4.8315,-4.8084,-4.8083,-4.8229,-4.8228,-4.8227,-4.842,-4.8483,-4.8483,-4.8483,-4.8483,-4.8515,-4.8515,-4.8515,-4.8452,-4.8227,-4.8195,-4.8179,-4.8033,-4.7968,-4.7454,-4.6046,-4.5185,-4.444,-4.3731,-4.3615,-4.3598,0.0,-4.3598,-4.3598,-4.3628,-4.3628,-4.3628,0.0,-4.3793,-4.3927,-4.3927,-4.4039,-4.4097,-4.4097,-4.4097,-4.4378,-4.4917,-4.5632,-4.6429,-4.7212,-4.8102,-4.8595,-4.8801,-4.8925,-4.9001,-4.9001,-4.9001,-4.9001,-4.9001,-4.9001,-4.9001,-4.9001,-4.9001,-4.9018,-4.9052,-4.0104,-4.0495,-4.0786,0.0,-4.11,-4.1479,0.0,0.0,0.0,0.0,-4.4107,-4.4496,-4.499,-4.5648,-4.6052,-4.6052,-4.6052,0.0,0.0,0.0,-4.5035,-4.5035,-4.4407,-4.4062,-4.4062,-4.3544,-4.329,-4.329,0.0,0.0,-4.329,0.0,0.0,0.0,0.0,0.0,-4.329,-4.329,-4.329,-4.3334,-4.3828,-4.4273,-4.473,-4.597,-4.6929,-4.7879,-4.9343,-5.0015,-5.022,-5.022,-5.022,-5.0187,-4.9988,-4.9939,-4.9889,-4.9707,-4.926,-4.8829,-4.8846,-4.8481,-4.8049,-4.8131,-4.8212,-4.8292,-4.8292,-4.8388,-4.8515,-4.8515,-4.8515,-4.8452,-4.8227,-4.8195,-4.8179,-4.8033,-4.7537,-4.7057,-4.6659,-4.55,-4.4622,-4.444,-4.3943,-4.3598,-4.3598,-4.3598,-4.3658,-4.3793,-4.3822,-4.3852,-4.3952,-4.401,-4.4097,-4.4196,-4.4224,-4.4253,-4.4253,-4.4253,-4.4478,-4.4917,-4.5632,-4.635,-4.6988,-4.7862,-4.8388,-4.8595,-4.8769,-4.8925,-4.9001,-4.9001,-4.9001,-4.9001,-4.9001,-4.9001,-4.9001,-4.9001,-4.9357,-4.9813,-4.0879,0.0,0.0,-4.1541,0.0,0.0,-4.257,-4.3244,0.0,-4.4661,-4.5005,0.0,-4.6097,-4.677,-4.7294,-4.7593,-4.7339,0.0,-4.7174,0.0,-4.5738,-4.5738,-4.5095,-4.4601,-4.4332,-4.3943,-4.3574,-4.329,-4.329,0.0,-4.329,0.0,0.0,0.0,0.0,-4.329,0.0,-4.329,-4.329,-4.3349,-4.4047,-4.4481,0.0,-4.6346,-4.7348,-4.8227,-4.955,-5.003,-5.0103,-5.0461,-5.0585,-5.0607,-5.0663,-5.0684,-5.0618,-5.0303,-4.9922,-4.9525,-4.9193,-4.8812,-4.8415,-4.8084,-4.8066,-4.8115,-4.8115,-4.8212,-4.8276,-4.8276,-4.8276,-4.8244,-4.8147,-4.8115,-4.8082,-4.8001,-4.7653,-4.7272,-4.6941,-4.5897,-4.5052,-4.4752,-4.4059,-4.3598,-4.3598,-4.3598,-4.3658,-4.3763,-4.3763,-4.3793,-4.3864,-4.3952,-4.4056,-4.4126,-4.4184,-4.4253,-4.431,-4.431,-4.4565,-4.5126,-4.5875,-4.6536,-4.7147,-4.7958,-4.8452,-4.8627,-4.8738,-4.8863,-4.9001,-4.9001,-4.9001,-4.9001,-4.9001,-4.9001,-4.9035,-4.9357,-4.9729,-5.0135,0.0,0.0,0.0,0.0,0.0,0.0,0.0,-4.421,0.0,-4.5454,0.0,-4.6741,-4.7474,-4.8072,-4.8685,-4.9269,-4.879,-4.8371,-4.8297,-4.7219,-4.6503,-4.6414,-4.5798,-4.517,-4.4586,-4.4407,-4.3992,-4.3424,-4.3334,-4.329,0.0,0.0,0.0,0.0,0.0,0.0,0.0,-4.329,-4.3349,-4.3484,-4.4182,-4.484,-4.5582,-4.7043,-4.7942,-4.8532,-4.9222,-4.9607,-4.9939,-5.0669,-5.0914,-5.0968,-5.1064,-5.1098,-5.1018,-5.0478,-5.0246,-5.0066,-4.9524,-4.9326,-4.9077,-4.8332,-4.815,-4.8117,-4.8017,-4.8001,-4.8001,-4.8001,-4.8001,-4.8001,-4.8001,-4.8001,-4.8001,-4.8001,-4.8001,-4.7785,-4.7123,-4.6411,-4.5665,-4.492,-4.4191,0.0,-4.3615,-4.3598,-4.3598,-4.3598,-4.3598,-4.3598,-4.3598,-4.3763,-4.3898,-4.3927,-4.4056,-4.4184,-4.4338,-4.4338,-4.468,-4.5408,-4.6161,-4.6828,-4.7429,-4.8149,-4.8627,-4.8818,-4.8818,-4.8863,-4.9001,-4.9001,-4.9001,-4.9001,-4.9001,-4.9069,-4.9238,-4.9965,-5.0304,-5.0473,0.0,0.0,0.0,0.0,0.0,-4.4634,-4.5207,-4.5176,-4.5559,-4.68,-4.7055,-4.7593,-4.8835,-4.906,-4.9179,-4.9299,-4.9209,0.0,-4.8327,-4.8072,-4.7698,-4.716,-4.6501,-4.6097,-4.5935,-4.4885,-4.4257,-4.4137,-4.3559,-4.329,0.0,0.0,0.0,0.0,0.0,0.0,-4.329,-4.329,0.0,-4.4197,-4.4855,-4.5529,-4.6217,-4.7031,-4.7448,-4.7538,-4.7694,-4.8641,-4.9805,-4.9978,-5.0017,-5.0025,-5.0069,-5.006,-5.016,-5.0778,-5.0509,-5.0167,-5.0742,-5.0469,-4.9839,-4.9094,-4.8912,-4.8763,-4.815,-4.8001,-4.8001,-4.8001,-4.8001,-4.8001,-4.8001,-4.8001,-4.8001,-4.8001,-4.8001,-4.7951,-4.7835,-4.7173,-4.6427,-4.5682,-4.4953,-4.4274,-4.3648,-4.3598,-4.3598,-4.3598,-4.3598,-4.3598,-4.3598,-4.3628,-4.3776,-4.4056,-4.4097,-4.4241,-4.4542,-4.4542,-4.4811,-4.5408,-4.6161,-4.6828,-4.7429,-4.8149,-4.8627,-4.8818,-4.8818,-4.8863,-4.9001,-4.9001,-4.9001,-4.9001,-4.9001,-4.9373,-4.9999,-5.0744,-5.1403,-5.1928,0.0,0.0,0.0,0.0,0.0,0.0,0.0,-4.6427,-4.694,-4.7728,-4.8117,-4.8686,-4.9658,-4.9778,-4.9912,-5.0257,-4.9972,-4.9643,-4.9329,-4.8671,-4.8147,-4.7833,-4.7189,-4.6681,-4.6294,-4.5693,-4.502,-4.4317,-4.4003,-4.3618,-4.329,0.0,0.0,0.0,0.0,-4.329,0.0,0.0,-4.4018,-4.4407,-4.5424,-4.6022,-4.6354,-4.7055,-4.7309,-4.7309,-4.7309,-4.7807,-4.8558,-4.9035,-4.9197,-4.9262,-4.9662,-4.9805,-4.9884,-5.029,-5.0167,-4.9983,-5.0477,-5.0366,-5.0012,-4.9754,-4.9392,-4.9011,-4.8647,-4.8266,-4.8001,-4.8001,-4.8001,-4.8001,-4.8001,-4.8001,-4.8001,-4.8001,-4.8001,-4.8001,-4.8001,-4.7371,-4.6775,-4.6411,-4.5715,-4.497,-4.4241,-4.4175,-4.4026,-4.3631,0.0,-4.3598,-4.3598,-4.3598,-4.3717,-4.3998,-4.3998,-4.4143,-4.444,-4.4811,-4.5385,-4.6144,-4.687,-4.7599,-4.8231,-4.8539,-4.8769,-4.8894,-4.8832,-4.8863,-4.9001,-4.9001,-4.9001,-4.9001,-4.9001,-4.9458,-5.0185,-5.0947,-5.1674,-5.2367,0.0,-4.3169,0.0,0.0,-4.5128,-4.5991,-4.6815,-4.7673,-4.8357,-4.8656,-4.9149,-4.9733,-5.033,-5.0405,-5.0614,-5.1169,-5.0704,-5.0345,-5.0196,-4.9149,-4.8431,-4.8297,-4.7653,-4.7055,-4.6503,-4.6354,-4.5756,-4.4751,-4.4451,-4.3947,-4.329,-4.329,0.0,0.0,0.0,0.0,-4.3544,-4.4092,-4.4481,-4.484,-4.5846,-4.6369,-4.6591,-4.7115,-4.7309,-4.7309,-4.7309,-4.7309,-4.7424,-4.8088,-4.8324,-4.8449,-4.9075,-4.9262,-4.9303,-4.9503,-4.9527,-4.9615,-4.9903,-5.0096,-5.0209,-5.0167,-4.9852,-4.9491,-4.9177,-4.8647,-4.8199,-4.8034,-4.8001,-4.8001,-4.8001,-4.8001,-4.8001,-4.8001,-4.8001,-4.8001,-4.8001,-4.7504,-4.7073,-4.6924,-4.6378,-4.5732,-4.5017,-4.4771,-4.4456,-4.3893,-4.3681,-4.3598,-4.3598,-4.3598,-4.3687,-4.3898,-4.3927,-4.4056,-4.431,-4.5062,-4.5908,-4.6802,-4.7564,-4.8308,-4.9001,-4.8894,-4.8894,-4.9001,-4.8894,-4.8894,-4.9001,-4.9001,-4.9001,-4.9001,-4.9001,-4.9543,-5.0388,-5.0997,-5.1775,-5.2655,0.0,0.0,0.0,0.0,0.0,-4.7248,-4.7848,-4.874,-4.9493,-4.9955,-5.0061,-5.0345,-5.1003,-5.1124,-5.1154,-5.1214,-5.1154,-5.0823,-5.0226,-4.9568,-4.8955,-4.8312,-4.7653,-4.7279,-4.7219,-4.6636,-4.6219,-4.6085,-4.4915,-4.3947,-4.329,-4.329,-4.329,0.0,-4.329,-4.3618,-4.4227,-4.4287,-4.502,-4.61,-4.6234,-4.6681,-4.7219,-4.7279,-4.7309,-4.7309,-4.7309,-4.7309,-4.7294,-4.7381,-4.7424,-4.7424,-4.7495,-4.7538,-4.7694,-4.849,-4.8723,-4.8856,-4.9623,-5.0403,-5.0843,-5.0188,-5.0536,-5.0717,-4.9409,-4.9061,-4.8812,-4.815,-4.8001,-4.8001,-4.8001,-4.8001,-4.8001,-4.8001,-4.8001,-4.8001,-4.8001,-4.7934,-4.7653,-4.6974,-4.6841,-4.651,-4.5765,-4.5086,-4.4655,-4.4589,-4.3992,-4.3598,-4.3598,-4.3598,-4.3687,-4.3898,-4.4027,-4.4155,-4.431,-4.5211,-4.6058,-4.6802,-4.7564,-4.8308,-4.9001,-4.897,-4.9001,-4.9001,-4.897,-4.9001,-4.9001,-4.9001,-4.9001,-4.9001,-4.9001,-4.9864,-5.1116,-5.1183,-5.2147,-5.3399,0.0,0.0,0.0,0.0,0.0,0.0,-4.8594,-4.901,-4.9554,-5.0424,-5.0577,-5.0728,-5.1137,-5.1214,-5.1214,-5.1214,-5.1214,-5.1109,-5.084,-5.0212,-4.9553,-4.8955,-4.8252,-4.7713,-4.7309,-4.7055,-4.6711,-4.6279,-4.5741,-4.5185,-4.4496,-4.4107,-4.3888,-4.3888,-4.3888,-4.4287,-4.493,-4.5349,-4.5828,-4.6324,-4.6756,-4.707,-4.7309,-4.7309,-4.7309,-4.7309,-4.7309,-4.7309,-4.7309,-4.7309,-4.7309,-4.7309,-4.7309,-4.7309,-4.7396,-4.7694,-4.7822,-4.8019,-4.8831,-4.9318,-4.9773,-5.0483,-5.0595,-5.05,-5.0431,-4.974,-4.8877,-4.8091,-4.7598,-4.7438,-4.7886,-4.8001,-4.8001,-4.8001,-4.8001,-4.8001,-4.8001,-4.8001,-4.7885,-4.7603,-4.7554,-4.7272,-4.6527,-4.5781,-4.5168,-4.4721,-4.4026,-4.3598,-4.3598,-4.3598,-4.3687,-4.3898,-4.4027,-4.4373,-4.4937,-4.5887,-4.6735,-4.7479,-4.8223,-4.8714,-4.9001,-4.9001,-4.9001,-4.9001,-4.9001,-4.9001,-4.9001,-4.9001,-4.9001,-4.9035,-4.9492,-5.0304,-5.1236,-5.1708,-5.257,-5.3501,-4.5666,0.0,-4.678,-4.7869,-4.8058,-4.8355,-4.9124,-4.9274,-4.9578,-5.0463,-5.057,-5.0728,-5.1167,-5.1214,-5.1214,-5.1214,-5.1214,-5.1214,-5.1214,-5.0554,-4.9942,-4.9344,-4.8641,-4.7982,-4.7309,-4.7309,-4.707,-4.6563,-4.6384,-4.5978,-4.5289,-4.4616,-4.4421,-4.4601,-4.4601,-4.4975,-4.5633,-4.6112,-4.6384,-4.6651,-4.7115,-4.7309,-4.7309,-4.7309,-4.7309,-4.7309,-4.7309,-4.7309,-4.7309,-4.7309,-4.7309,-4.7309,-4.7309,-4.7309,-4.7309,-4.7309,-4.7309,-4.7424,-4.8061,-4.8407,-4.8887,-5.0073,-5.0338,-5.0367,-5.05,-4.9932,-4.9026,-4.7816,-4.7139,-4.6896,-4.727,-4.7488,-4.7638,-4.7638,-4.7638,-4.7737,-4.7968,-4.8001,-4.8001,-4.8001,-4.8001,-4.7802,-4.7272,-4.656,-4.5814,-4.5069,-4.434,-4.3843,-4.3704,-4.3687,-4.3763,-4.3939,-4.4315,-4.4783,-4.5391,-4.6545,-4.7394,-4.7889,-4.8663,-4.897,-4.8956,-4.8956,-4.897,-4.9001,-4.9001,-4.9001,-4.9001,-4.9001,-4.9001,-4.9069,-4.9796,-5.0557,-5.1269,-5.2029,-5.2807,-5.3501,-4.6159,-4.7033,-4.7956,-4.8595,-4.8663,-4.8928,-4.9616,-4.9703,-4.9766,-5.0086,-5.0086,-5.0375,-5.112,-5.1214,-5.1214,-5.1214,-5.1214,-5.1214,-5.1214,-5.0554,-4.9942,-4.9344,-4.8641,-4.7982,-4.7309,-4.7309,-4.7309,-4.7294,-4.6636,-4.5978,-4.5289,-4.4616,-4.4661,-4.5289,-4.5289,-4.5663,-4.6264,-4.6279,-4.6696,-4.7294,-4.7309,-4.7309,-4.7309,-4.7309,-4.7309,-4.7309,-4.7309,-4.7309,-4.7309,-4.7309,-4.7309,-4.7309,-4.7309,-4.7309,-4.7309,-4.7309,-4.7309,-4.7309,-4.7294,-4.7934,-4.8599,-4.8615,-4.9876,-5.0666,-4.9075,-4.9389,-4.9376,-4.7173,-4.6749,-4.6569,-4.5877,-4.6324,-4.6811,-4.6811,-4.6811,-4.7067,-4.7886,-4.8001,-4.8001,-4.8001,-4.8001,-4.8001,-4.7984,-4.7322,-4.6576,-4.5831,-4.5086,-4.4464,-4.3931,-4.3898,-4.3956,-4.4097,-4.4942,-4.5387,-4.5391,-4.7051,-4.7872,-4.7889,-4.8663,-4.8925,-4.8818,-4.8818,-4.8863,-4.9001,-4.9001,-4.9001,-4.9001,-4.9001,-4.9001,-4.9069,-4.9796,-5.0557,-5.1269,-5.2029,-5.2807,-5.3501,-4.7813,-4.8167,-4.8624,-4.9262,-4.9378,-4.9436,-4.9688,-4.9717,-4.9781,-5.0038,-5.0086,-5.0279,-5.0677,-5.0837,-5.1011,-5.1167,-5.1214,-5.1214,-5.1214,-5.102,-5.0569,-4.9957,-4.9314,-4.8685,-4.7997,-4.7534,-4.7309,-4.7309,-4.71,-4.6651,-4.5992,-4.5741,-4.5798,-4.5992,-4.5992,-4.6367,-4.6995,-4.6995,-4.7115,-4.7309,-4.7309,-4.7309,-4.7309,-4.7309,-4.7309,-4.7309,-4.7309,-4.7309,-4.7309,-4.7309,-4.7309,-4.7309,-4.7309,-4.7309,-4.7309,-4.7309,-4.7309,-4.7309,-4.7309,-4.7495,-4.7864,-4.8449,-4.901,-4.9416,-4.9458,-4.8529,-4.7502,-4.6855,-4.5913,-4.5316,-4.566,-4.5913,-4.604,-4.604,-4.6464,-4.6896,-4.7152,-4.7671,-4.8001,-4.8001,-4.8001,-4.8001,-4.8001,-4.7338,-4.6792,-4.656,-4.5384,-4.442,-4.3737,-4.3839,-4.4085,-4.4491,-4.5081,-4.5849,-4.6753,-4.7531,-4.8142,-4.8663,-4.89,-4.897,-4.8956,-4.8956,-4.894,-4.9001,-4.9001,-4.9001,-4.9001,-4.9001,-4.9001,-4.912,-5.0371,-5.0997,-5.1369,-5.2655,-5.3281,-5.3501,-4.7709,-4.7794,-4.807,-4.8929,-4.905,-4.9213,-4.962,-4.9717,-4.9781,-4.9926,-4.9926,-5.0038,-5.0342,-5.0456,-5.068,-5.1011,-5.1058,-5.1073,-5.1167,-5.1214,-5.0883,-5.0226,-4.9613,-4.9,-4.8297,-4.7638,-4.7309,-4.7309,-4.7309,-4.71,-4.6696,-4.6696,-4.6696,-4.6696,-4.6696,-4.692,-4.7309,-4.7309,-4.7309,-4.7309,-4.7309,-4.7309,-4.7309,-4.7309,-4.7309,-4.7309,-4.7309,-4.7309,-4.7309,-4.7309,-4.7309,-4.7309,-4.7309,-4.7309,-4.7309,-4.7309,-4.7309,-4.7309,-4.7309,-4.7309,-4.7424,-4.7976,-4.8381,-4.8723,-4.9222,-4.7657,-4.6116,-4.6183,-4.5272,-4.4548,-4.4774,-4.5036,-4.5258,-4.5258,-4.5645,-4.6024,-4.6324,-4.705,-4.7555,-4.7555,-4.782,-4.8001,-4.8001,-4.7587,-4.7206,-4.6924,-4.6046,-4.5202,-4.4473,-4.4341,-4.4584,-4.5286,-4.5902,-4.6639,-4.7488,-4.802,-4.8545,-4.9001,-4.8956,-4.8956,-4.9001,-4.8956,-4.8956,-4.9001,-4.9001,-4.9001,-4.9001,-4.9001,-4.9171,-4.9526,-5.0744,-5.1386,-5.1775,-5.3044,-5.3501,-5.3501,-4.6281,-4.6281,-4.6646,-4.7819,-4.8021,-4.8388,-4.9522,-4.9717,-4.9717,-4.9717,-4.9717,-4.9781,-5.0038,-5.0086,-5.0264,-5.0713,-5.076,-5.0917,-5.1167,-5.1214,-5.0898,-5.0285,-4.9688,-4.9075,-4.8371,-4.7713,-4.7354,-4.7309,-4.7309,-4.7309,-4.7309,-4.7309,-4.7309,-4.7309,-4.7309,-4.7309,-4.7309,-4.7309,-4.7309,-4.7309,-4.7309,-4.7309,-4.7309,-4.7309,-4.7309,-4.7309,-4.7309,-4.7309,-4.7309,-4.7309,-4.7309,-4.7309,-4.7309,-4.7309,-4.7309,-4.7309,-4.7309,-4.7309,-4.7309,-4.7309,-4.7309,-4.7309,-4.7892,-4.8532,-4.8532,-4.6876,-4.5349,-4.5304,-4.4859,-4.4243,-4.3448,-4.3927,-4.4412,-4.4412,-4.4472,-4.4774,-4.5515,-4.6253,-4.6742,-4.6777,-4.7454,-4.7935,-4.8001,-4.7968,-4.7654,-4.7023,-4.6892,-4.6546,-4.598,-4.5374,-4.5443,-4.633,-4.7167,-4.7581,-4.7631,-4.8523,-4.897,-4.897,-4.8863,-4.8863,-4.897,-4.8863,-4.8894,-4.9001,-4.9001,-4.9035,-4.9086,-4.9086,-4.9509,-5.0236,-5.0997,-5.1708,-5.2401,-5.3213,-5.3501,-5.3501,-4.6281,-4.6281,-4.6646,-4.7819,-4.8021,-4.8388,-4.9522,-4.9717,-4.9717,-4.9717,-4.9717,-4.9732,-4.9781,-4.9781,-4.9926,-5.0216,-5.0585,-5.0917,-5.1167,-5.1214,-5.1154,-5.0943,-5.0361,-4.9703,-4.909,-4.8401,-4.7803,-4.7309,-4.7309,-4.7309,-4.7309,-4.7309,-4.7309,-4.7309,-4.7309,-4.7309,-4.7309,-4.7309,-4.7309,-4.7309,-4.7309,-4.7309,-4.7309,-4.7309,-4.7309,-4.7309,-4.7309,-4.7309,-4.7309,-4.7309,-4.7309,-4.7309,-4.7309,-4.7309,-4.7309,-4.7309,-4.7309,-4.7309,-4.7309,-4.7309,-4.7309,-4.7309,-4.7467,-4.7624,-4.7624,-4.6836,-4.5933,-4.5409,-4.4794,-4.4153,-4.3419,-4.3448,-4.3591,-4.3591,-4.4105,-4.4548,-4.4774,-4.5463,-4.6147,-4.6742,-4.6965,-4.7337,-4.7935,-4.7438,-4.7272,-4.772,-4.6635,-4.6405,-4.7422,-4.6807,-4.6524,-4.6738,-4.7218,-4.7632,-4.8057,-4.8431,-4.861,-4.861,-4.8846,-4.8925,-4.8832,-4.8925,-4.897,-4.9001,-4.9001,-4.9323,-4.983,-4.983,-5.027,-5.1014,-5.1758,-5.2147,-5.2401,-5.3213,-5.3501,-5.3501,-4.4805,-4.4805,-4.5128,-4.6294,-4.6503,-4.7023,-4.8688,-4.8902,-4.91,-4.962,-4.9717,-4.9717,-4.9717,-4.9717,-4.9829,-5.0086,-5.0471,-5.0742,-5.1011,-5.112,-5.1214,-5.1214,-5.0539,-4.9942,-4.9329,-4.8626,-4.7967,-4.7309,-4.7309,-4.7309,-4.7309,-4.7309,-4.7309,-4.7309,-4.7309,-4.7309,-4.7309,-4.7309,-4.7309,-4.7309,-4.7309,-4.7309,-4.7309,-4.7309,-4.7309,-4.7309,-4.7309,-4.7309,-4.7309,-4.7309,-4.7309,-4.7309,-4.7309,-4.7309,-4.7309,-4.7309,-4.7309,-4.7309,-4.7309,-4.7309,-4.7309,-4.7309,-4.7309,-4.7309,-4.7309,-4.68,-4.6127,-4.5439,-4.4766,-4.4122,-4.3409,-4.329,-4.329,-4.329,-4.3669,-4.3966,-4.3966,-4.4624,-4.5279,-4.5701,-4.6378,-4.6828,-4.6947,-4.6862,-4.6828,-4.6947,-4.6145,-4.6201,-4.7388,-4.7061,-4.7029,-4.7404,-4.7644,-4.7908,-4.8195,-4.85,-4.8658,-4.8736,-4.8846,-4.8894,-4.8894,-4.9249,-4.9446,-4.9526,-4.9864,-5.0236,-5.0608,-5.0608,-5.1048,-5.1758,-5.2147,-5.252,-5.2909,-5.3348,-5.3501,-5.3501,-4.2974,-4.2974,-4.3351,-4.452,-4.4683,-4.5462,-4.7652,-4.8021,-4.8388,-4.9571,-4.9717,-4.9717,-4.9717,-4.9717,-4.9781,-5.0038,-5.0294,-5.0519,-5.0728,-5.1011,-5.112,-5.112,-5.0629,-5.0032,-4.9329,-4.8521,-4.7863,-4.7309,-4.7309,-4.7309,-4.7309,-4.7309,-4.7309,-4.7309,-4.7309,-4.7309,-4.7309,-4.7309,-4.7309,-4.7309,-4.7309,-4.7309,-4.7309,-4.7309,-4.7309,-4.7309,-4.7309,-4.7309,-4.7309,-4.7309,-4.7309,-4.7309,-4.7309,-4.7309,-4.7309,-4.7309,-4.7309,-4.7309,-4.7309,-4.7309,-4.7309,-4.7309,-4.7309,-4.7309,-4.7309,-4.6875,-4.6247,-4.5454,-4.4855,-4.4227,-4.3424,-4.329,-4.329,-4.329,-4.329,-4.329,-4.329,-4.3888,-4.4358,-4.4488,-4.5665,-4.6253,-4.5733,-4.6147,-4.6253,-4.5733,-4.5588,-4.5825,-4.6604,-4.6742,-4.7101,-4.7787,-4.8049,-4.8163,-4.8163,-4.8564,-4.8801,-4.8846,-4.8832,-4.8914,-4.9094,-4.9658,-5.0058,-5.0287,-5.0947,-5.1268,-5.1386,-5.1386,-5.1809,-5.2486,-5.2486,-5.2909,-5.3501,-5.3501,-5.3501,-5.3501,-4.2974,-4.2974,-4.3351,-4.452,-4.4683,-4.5462,-4.7652,-4.8021,-4.8388,-4.9571,-4.9717,-4.9717,-4.9717,-4.9717,-4.9732,-4.9781,-5.0038,-5.0294,-5.0534,-5.0742,-5.0855,-5.0855,-5.0969,-5.0496,-4.9344,-4.8072,-4.7399,-4.7309,-4.7309,-4.7309,-4.7309,-4.7309,-4.7309,-4.7309,-4.7309,-4.7309,-4.7309,-4.7309,-4.7309,-4.7309,-4.7309,-4.7309,-4.7309,-4.7309,-4.7309,-4.7309,-4.7309,-4.7309,-4.7309,-4.7309,-4.7309,-4.7309,-4.7309,-4.7309,-4.7309,-4.7309,-4.7309,-4.7309,-4.7309,-4.7309,-4.7309,-4.7309,-4.7309,-4.7309,-4.7309,-4.7234,-4.68,-4.5559,-4.5214,-4.4766,-4.3514,-4.329,-4.329,-4.329,-4.329,-4.329,-4.329,-4.3409,-4.3747,-4.4412,-4.4699,-4.5058,-4.566,-4.5169,-4.5095,-4.566,-4.5073,-4.502,-4.5841,-4.6464,-4.6846,-4.6965,-4.7671,-4.8033,-4.8033,-4.8373,-4.8388,-4.8164,-4.869,-4.9152,-4.9535,-4.9892,-5.0407,-5.1048,-5.1134,-5.1555,-5.2131,-5.2131,-5.2604,-5.3315,-5.3315,-5.3399,-5.3501,-5.3501,-5.3501,-5.3501,-4.2974,-4.2974,-4.3197,-4.367,-4.3768,-4.4357,-4.5979,-4.6242,-4.6608,-4.774,-4.8424,-4.8802,-4.8802,-4.9311,-4.9717,-4.9717,-4.9829,-4.9926,-5.0038,-5.0423,-5.0695,-5.0807,-5.0917,-5.0447,-4.9344,-4.7982,-4.7309,-4.7309,-4.7309,-4.7309,-4.7309,-4.7309,-4.7309,-4.7309,-4.7309,-4.7309,-4.7309,-4.7309,-4.7309,-4.7309,-4.7309,-4.7309,-4.7309,-4.7309,-4.7309,-4.7309,-4.7309,-4.7309,-4.7309,-4.7309,-4.7309,-4.7309,-4.7309,-4.7309,-4.7309,-4.7309,-4.7309,-4.7309,-4.7309,-4.7309,-4.7309,-4.7309,-4.7309,-4.7309,-4.7309,-4.7309,-4.692,-4.5574,-4.5289,-4.4885,-4.3544,-4.329,-4.329,-4.329,-4.329,-4.329,-4.329,-4.329,-4.3448,-4.381,-4.4259,-4.4488,-4.4412,-4.4472,-4.4472,-4.4412,-4.4066,-4.422,-4.4999,-4.5789,-4.6394,-4.6777,-4.7588,-4.8033,-4.8115,-4.826,-4.8373,-4.8438,-4.903,-4.951,-4.9912,-5.0768,-5.1423,-5.1826,-5.2266,-5.2638,-5.2959,-5.2959,-5.3179,-5.3501,-5.3501,-5.3501,-5.3501,-5.3501,-5.3501,-5.3501,-4.2974,-4.2974,-4.2974,-4.2974,-4.2974,-4.3406,-4.452,-4.4683,-4.5088,-4.6176,-4.706,-4.7703,-4.7971,-4.8802,-4.941,-4.9669,-4.9717,-4.9717,-4.9717,-5.0086,-5.0423,-5.0632,-5.0384,-4.9902,-4.9148,-4.788,-4.7207,-4.7207,-4.7266,-4.7309,-4.7309,-4.7309,-4.7309,-4.7309,-4.7309,-4.7309,-4.7309,-4.7309,-4.7309,-4.7309,-4.7309,-4.7309,-4.7309,-4.7309,-4.7309,-4.7309,-4.7309,-4.7309,-4.7309,-4.7309,-4.7309,-4.7309,-4.7309,-4.7309,-4.7309,-4.7309,-4.7309,-4.7309,-4.7309,-4.7309,-4.7309,-4.7309,-4.7309,-4.7309,-4.7309,-4.7309,-4.692,-4.5574,-4.5289,-4.4885,-4.3544,-4.329,-4.329,-4.329,-4.329,-4.329,-4.329,-4.329,-4.329,-4.329,-4.3849,-4.3966,-4.3369,-4.3849,-4.395,-4.3329,-4.329,-4.3551,-4.4182,-4.5147,-4.6111,-4.7033,-4.7671,-4.8066,-4.8147,-4.8195,-4.8456,-4.8944,-4.9402,-4.9903,-5.0514,-5.1612,-5.2252,-5.2538,-5.3196,-5.3501,-5.3501,-5.3501,-5.3501,-5.3501,-5.3501,-5.3501,-5.3501,-5.3501,-5.3501,-5.3501,-4.2974,-4.2974,-4.2974,-4.2974,-4.2974,-4.3406,-4.452,-4.4683,-4.5088,-4.6176,-4.6372,-4.6802,-4.7869,-4.8072,-4.8539,-4.962,-4.9717,-4.9717,-4.9717,-4.9732,-4.9878,-5.0135,-4.9213,-4.8614,-4.8571,-4.7511,-4.6931,-4.6931,-4.7164,-4.7309,-4.7309,-4.7309,-4.7309,-4.7309,-4.7309,-4.7309,-4.7309,-4.7309,-4.7309,-4.7309,-4.7309,-4.7309,-4.7309,-4.7309,-4.7309,-4.7309,-4.7309,-4.7309,-4.7309,-4.7309,-4.7309,-4.7309,-4.7309,-4.7309,-4.7309,-4.7309,-4.7309,-4.7309,-4.7309,-4.7309,-4.7309,-4.7309,-4.7309,-4.7309,-4.7309,-4.7309,-4.692,-4.5574,-4.5289,-4.4885,-4.3544,-4.329,-4.329,-4.329,-4.329,-4.329,-4.329,-4.329,-4.329,-4.329,-4.3369,-4.3369,-4.329,-4.3369,-4.3369,-4.329,-4.329,-4.3329,-4.3369,-4.4849,-4.6375,-4.7853,-4.7968,-4.8001,-4.8001,-4.8147,-4.8577,-4.9359,-4.9507,-5.0341,-5.1698,-5.1967,-5.2472,-5.3145,-5.3399,-5.3501,-5.3501,-5.3501,-5.3501,-5.3501,-5.3501,-5.3501,-5.3501,-5.3501,-5.3501,-5.3501,-4.2974,-4.2974,-4.2974,-4.2974,-4.2974,-4.3141,-4.356,-4.367,-4.3768,-4.418,-4.4872,-4.5462,-4.5939,-4.7191,-4.8173,-4.8589,-4.9311,-4.9717,-4.9717,-4.9717,-4.9829,-5.0086,-4.9078,-4.8525,-4.8525,-4.7332,-4.6712,-4.6712,-4.6931,-4.7062,-4.7062,-4.7207,-4.7309,-4.7309,-4.7309,-4.7309,-4.7309,-4.7309,-4.7309,-4.7309,-4.7309,-4.7309,-4.7309,-4.7309,-4.7309,-4.7309,-4.7309,-4.7309,-4.7309,-4.7309,-4.7309,-4.7309,-4.7309,-4.7309,-4.7309,-4.7309,-4.7309,-4.7309,-4.7309,-4.7309,-4.7309,-4.7309,-4.7309,-4.7309,-4.7309,-4.7309,-4.692,-4.5574,-4.5289,-4.4885,-4.3544,-4.329,-4.329,-4.329,-4.329,-4.329,-4.329,-4.329,-4.329,-4.329,-4.329,-4.329,-4.329,-4.329,-4.329,-4.329,-4.329,-4.329,-4.329,-4.4812,-4.6426,-4.7968,-4.8001,-4.8001,-4.8001,-4.8514,-4.8961,-4.9343,-5.0326,-5.1145,-5.1815,-5.2352,-5.2824,-5.3213,-5.3264,-5.3382,-5.3501,-5.3501,-5.3501,-5.3501,-5.3501,-5.3501,-5.3501,-5.3501,-5.3501,-5.3501,-4.2974,-4.2974,-4.2974,-4.2974,-4.2974,-4.2974,-4.2974,-4.2974,-4.2974,-4.2974,-4.367,-4.4302,-4.4683,-4.6032,-4.7242,-4.792,-4.8688,-4.9311,-4.9669,-4.9717,-4.9781,-4.999,-4.889,-4.8295,-4.8295,-4.7108,-4.6447,-4.6447,-4.6712,-4.68,-4.68,-4.7077,-4.7164,-4.7164,-4.7251,-4.7309,-4.7309,-4.7309,-4.7309,-4.7309,-4.7309,-4.7309,-4.7309,-4.7309,-4.7309,-4.7309,-4.7309,-4.7309,-4.7309,-4.7309,-4.7309,-4.7309,-4.7309,-4.7309,-4.7309,-4.7309,-4.7309,-4.7309,-4.7309,-4.7309,-4.7309,-4.7309,-4.7309,-4.7309,-4.7309,-4.7145,-4.6681,-4.5529,-4.5125,-4.4646,-4.3499,-4.329,-4.329,-4.329,-4.329,-4.329,-4.329,-4.329,-4.329,-4.329,-4.329,-4.329,-4.329,-4.329,-4.329,-4.329,-4.329,-4.3409,-4.3669,-4.4737,-4.6152,-4.79,-4.7983,-4.8199,-4.8696,-4.8961,-4.941,-5.0009,-5.0973,-5.1641,-5.2064,-5.2565,-5.2903,-5.311,-5.3179,-5.3298,-5.3501,-5.3501,-5.3501,-5.3501,-5.3501,-5.3501,-5.3501,-5.3501,-5.3501,-5.3501,-4.2974,-4.2974,-4.2974,-4.2974,-4.2974,-4.2974,-4.2974,-4.2974,-4.2974,-4.2974,-4.2974,-4.3462,-4.4574,-4.4683,-4.5569,-4.7768,-4.7971,-4.8489,-4.962,-4.9669,-4.9669,-4.9717,-4.8464,-4.7782,-4.7767,-4.6732,-4.621,-4.621,-4.6447,-4.6594,-4.6594,-4.68,-4.6916,-4.6916,-4.7164,-4.7309,-4.7309,-4.7309,-4.7309,-4.7309,-4.7309,-4.7309,-4.7309,-4.7309,-4.7309,-4.7309,-4.7309,-4.7309,-4.7309,-4.7309,-4.7309,-4.7309,-4.7309,-4.7309,-4.7309,-4.7309,-4.7309,-4.7309,-4.7309,-4.7309,-4.7309,-4.7309,-4.7309,-4.7309,-4.7309,-4.68,-4.6127,-4.5439,-4.4766,-4.4122,-4.3409,-4.329,-4.329,-4.329,-4.329,-4.329,-4.329,-4.329,-4.329,-4.329,-4.329,-4.329,-4.329,-4.329,-4.329,-4.329,-4.329,-4.3669,-4.445,-4.4526,-4.5556,-4.7845,-4.7912,-4.8637,-5.0169,-4.9491,-4.9907,-5.149,-5.1368,-5.1767,-5.2589,-5.2589,-5.2694,-5.2903,-5.311,-5.3314,-5.3518,-5.3501,-5.3501,-5.3501,-5.3501,-5.3501,-5.3501,-5.3501,-5.3501,-5.3501,-4.2974,-4.2974,-4.2974,-4.2974,-4.2974,-4.2974,-4.2974,-4.2974,-4.2974,-4.2974,-4.2974,-4.3141,-4.3462,-4.4193,-4.4993,-4.5622,-4.6399,-4.728,-4.8424,-4.8489,-4.8652,-4.8982,-4.8217,-4.7564,-4.7129,-4.6392,-4.6015,-4.6015,-4.6225,-4.6314,-4.6299,-4.658,-4.6756,-4.6916,-4.6975,-4.7121,-4.7309,-4.7309,-4.7309,-4.7309,-4.7309,-4.7309,-4.7309,-4.7309,-4.7309,-4.7309,-4.7309,-4.7309,-4.7309,-4.7309,-4.7309,-4.7309,-4.7309,-4.7309,-4.7309,-4.7309,-4.7309,-4.7309,-4.7309,-4.7309,-4.7309,-4.7309,-4.7309,-4.7309,-4.7309,-4.68,-4.6127,-4.5439,-4.4766,-4.4122,-4.3409,-4.329,-4.329,-4.329,-4.329,-4.329,-4.329,-4.329,-4.329,-4.329,-4.329,-4.329,-4.329,-4.329,-4.329,-4.329,-4.329,-4.3865,-4.5126,-4.518,-4.5972,-4.7649,-4.7702,-4.8439,-5.0033,-5.0439,-5.0868,-5.1385,-5.1829,-5.2194,-5.248,-5.248,-5.2535,-5.2694,-5.2729,-5.2868,-5.3093,-5.323,-5.3298,-5.3298,-5.345,-5.3501,-5.3501,-5.3501,-5.3501,-5.3501,-4.2974,-4.2974,-4.2974,-4.2974,-4.2974,-4.2974,-4.2974,-4.2974,-4.2974,-4.2974,-4.2974,-4.2974,-4.2974,-4.3615,-4.4206,-4.4683,-4.5661,-4.6594,-4.728,-4.753,-4.7638,-4.7649,-4.7489,-4.7216,-4.6792,-4.6214,-4.588,-4.588,-4.6001,-4.609,-4.609,-4.6314,-4.6491,-4.6609,-4.6712,-4.6931,-4.7164,-4.7164,-4.7207,-4.7309,-4.7309,-4.7309,-4.7309,-4.7309,-4.7309,-4.7309,-4.7309,-4.7309,-4.7309,-4.7309,-4.7309,-4.7309,-4.7309,-4.7309,-4.7309,-4.7309,-4.7309,-4.7309,-4.7309,-4.7309,-4.7309,-4.7309,-4.7309,-4.7309,-4.7309,-4.6591,-4.5798,-4.5379,-4.4571,-4.3768,-4.3364,-4.329,-4.329,-4.329,-4.329,-4.329,-4.329,-4.329,-4.329,-4.329,-4.329,-4.329,-4.329,-4.329,-4.3409,-4.3663,-4.3958,-4.4474,-4.5373,-4.5428,-4.6116,-4.7536,-4.7606,-4.8516,-5.0417,-5.0965,-5.1394,-5.1746,-5.221,-5.2409,-5.2409,-5.2409,-5.2464,-5.2589,-5.2589,-5.2694,-5.2903,-5.3041,-5.311,-5.3213,-5.3332,-5.3416,-5.3501,-5.3501,-5.3501,-5.3501,-4.2974,-4.2974,-4.2974,-4.2974,-4.2974,-4.2974,-4.2974,-4.2974,-4.2974,-4.2974,-4.2974,-4.2974,-4.2974,-4.2974,-4.3406,-4.4466,-4.5449,-4.6071,-4.6176,-4.656,-4.6601,-4.6118,-4.6461,-4.6657,-4.6705,-4.6185,-4.588,-4.588,-4.588,-4.588,-4.588,-4.609,-4.6165,-4.621,-4.6447,-4.6668,-4.6887,-4.6887,-4.7019,-4.7251,-4.7251,-4.7266,-4.7309,-4.7309,-4.7309,-4.7309,-4.7309,-4.7309,-4.7309,-4.7309,-4.7309,-4.7309,-4.7309,-4.7309,-4.7309,-4.7309,-4.7309,-4.7309,-4.7309,-4.7309,-4.7309,-4.7309,-4.7309,-4.7309,-4.7309,-4.6307,-4.5394,-4.5394,-4.4332,-4.3379,-4.3379,-4.3334,-4.329,-4.329,-4.329,-4.329,-4.329,-4.329,-4.3319,-4.3379,-4.3379,-4.3409,-4.3469,-4.3469,-4.3723,-4.4347,-4.4945,-4.5319,-4.5394,-4.5394,-4.6037,-4.7512,-4.7569,-4.8653,-5.0859,-5.0876,-5.1397,-5.2409,-5.2409,-5.2409,-5.2409,-5.2409,-5.248,-5.257,-5.257,-5.2711,-5.285,-5.2868,-5.2972,-5.3144,-5.3161,-5.3314,-5.3467,-5.3467,-5.3467,-5.3501,-4.2898,-4.2974,-4.2974,-4.2974,-4.2974,-4.2974,-4.2974,-4.2974,-4.2974,-4.2974,-4.2974,-4.2974,-4.2974,-4.2974,-4.3085,-4.3351,-4.356,-4.4084,-4.4993,-4.4679,-4.5013,-4.607,-4.5783,-4.5777,-4.6098,-4.5953,-4.588,-4.588,-4.588,-4.588,-4.588,-4.5925,-4.6046,-4.621,-4.6254,-4.6447,-4.6683,-4.6683,-4.68,-4.6975,-4.6975,-4.7121,-4.7309,-4.7309,-4.7309,-4.7309,-4.7309,-4.7309,-4.7309,-4.7309,-4.7309,-4.7309,-4.7309,-4.7309,-4.7309,-4.7309,-4.7309,-4.7309,-4.7309,-4.7309,-4.7309,-4.7309,-4.7309,-4.7309,-4.7309,-4.6681,-4.6097,-4.6097,-4.5035,-4.4067,-4.4067,-4.3633,-4.329,-4.329,-4.329,-4.329,-4.329,-4.329,-4.3484,-4.4007,-4.4067,-4.4302,-4.4825,-4.487,-4.493,-4.5065,-4.5214,-4.5529,-4.6082,-4.6097,-4.6481,-4.7355,-4.737,-4.7951,-4.9132,-4.9116,-5.0229,-5.2409,-5.2409,-5.2409,-5.2409,-5.2409,-5.2409,-5.2445,-5.2445,-5.248,-5.2516,-5.264,-5.2694,-5.2729,-5.2903,-5.3093,-5.3264,-5.3264,-5.3348,-5.3501,-4.2133,-4.2409,-4.264,-4.264,-4.2798,-4.2974,-4.2974,-4.2974,-4.2974,-4.2974,-4.2974,-4.2974,-4.2974,-4.2974,-4.2974,-4.2974,-4.2974,-4.3126,-4.3505,-4.341,-4.3841,-4.4842,-4.4841,-4.5146,-4.5895,-4.588,-4.588,-4.588,-4.588,-4.588,-4.588,-4.588,-4.597,-4.6046,-4.6046,-4.618,-4.6403,-4.6403,-4.6535,-4.6756,-4.6873,-4.6975,-4.7121,-4.7251,-4.7309,-4.7309,-4.7309,-4.7309,-4.7309,-4.7309,-4.7309,-4.7309,-4.7309,-4.7309,-4.7309,-4.7309,-4.7309,-4.7309,-4.7309,-4.7309,-4.7309,-4.7309,-4.7309,-4.7309,-4.7309,-4.68,-4.6279,-4.6279,-4.5499,-4.4781,-4.4781,-4.4496,-4.4272,-4.4272,-4.4272,-4.4272,-4.4272,-4.4272,-4.4392,-4.4751,-4.4781,-4.4915,-4.5259,-4.5589,-4.5783,-4.5783,-4.6082,-4.6411,-4.677,-4.68,-4.695,-4.7294,-4.7309,-4.7694,-4.8599,-4.8615,-4.9479,-5.1177,-5.1177,-5.138,-5.1782,-5.1782,-5.2017,-5.2409,-5.2409,-5.2409,-5.2426,-5.248,-5.2535,-5.2624,-5.2834,-5.3007,-5.3213,-5.3314,-5.3416,-5.3501,-4.1155,-4.1639,-4.202,-4.202,-4.2527,-4.2836,-4.2836,-4.2924,-4.2974,-4.2974,-4.2974,-4.2974,-4.2974,-4.2974,-4.2974,-4.2974,-4.2898,-4.269,-4.2238,-4.2375,-4.2759,-4.3304,-4.3636,-4.4266,-4.5353,-4.5535,-4.573,-4.588,-4.588,-4.588,-4.588,-4.588,-4.588,-4.588,-4.588,-4.6015,-4.6135,-4.6135,-4.6314,-4.655,-4.6712,-4.68,-4.6887,-4.7077,-4.7207,-4.7207,-4.7207,-4.7251,-4.7309,-4.7309,-4.7309,-4.7309,-4.7309,-4.7309,-4.7309,-4.7309,-4.7309,-4.7309,-4.7309,-4.7309,-4.7309,-4.7309,-4.7309,-4.7309,-4.7309,-4.689,-4.6444,-4.6444,-4.5948,-4.5469,-4.5469,-4.5379,-4.5289,-4.5289,-4.5289,-4.5289,-4.5289,-4.5289,-4.5334,-4.5454,-4.5559,-4.5633,-4.5633,-4.6157,-4.6444,-4.6444,-4.6995,-4.7309,-4.7309,-4.7309,-4.7309,-4.7309,-4.7309,-4.7666,-4.8366,-4.8366,-4.8723,-4.9383,-4.9383,-4.99,-5.0876,-5.1027,-5.1508,-5.2178,-5.2338,-5.2409,-5.2409,-5.2409,-5.248,-5.257,-5.2764,-5.2972,-5.3195,-5.3416,-5.3501,-5.3501,-4.0811,-4.1014,-4.1172,-4.1388,-4.1907,-4.2326,-4.2326,-4.2728,-4.2974,-4.2974,-4.2974,-4.2974,-4.2974,-4.2974,-4.2974,-4.2974,-4.2602,-4.2288,-4.2213,-4.1351,-4.1245,-4.2261,-4.1884,-4.2146,-4.3177,-4.4078,-4.4943,-4.588,-4.588,-4.588,-4.588,-4.588,-4.588,-4.588,-4.588,-4.5925,-4.5925,-4.5925,-4.6046,-4.6254,-4.6299,-4.6447,-4.6639,-4.6683,-4.68,-4.6975,-4.6975,-4.7121,-4.7309,-4.7309,-4.7309,-4.7309,-4.7309,-4.7309,-4.7309,-4.7309,-4.7309,-4.7309,-4.7309,-4.7309,-4.7309,-4.7309,-4.7309,-4.7309,-4.7309,-4.7234,-4.7174,-4.7174,-4.6651,-4.6145,-4.6145,-4.5693,-4.5289,-4.5289,-4.5289,-4.5289,-4.5289,-4.5289,-4.5514,-4.6112,-4.6696,-4.704,-4.704,-4.7115,-4.7174,-4.7174,-4.7249,-4.7309,-4.7309,-4.7309,-4.7309,-4.7309,-4.7309,-4.7337,-4.7467,-4.7467,-4.7538,-4.7624,-4.7624,-4.8449,-5.0017,-5.0745,-5.1156,-5.1322,-5.2053,-5.2409,-5.2409,-5.2409,-5.2409,-5.2445,-5.257,-5.2764,-5.2972,-5.3348,-5.3501,-5.3501,-3.9611,-4.0026,-4.029,-4.0598,-4.1114,-4.153,-4.1693,-4.2158,-4.2577,-4.2577,-4.2785,-4.2974,-4.2974,-4.2698,-4.2577,-4.2577,-4.202,-4.1568,-4.1254,-4.0789,-4.082,-4.1587,-4.1363,-4.1716,-4.2792,-4.3211,-4.3701,-4.4186,-4.5353,-4.588,-4.588,-4.588,-4.588,-4.588,-4.588,-4.588,-4.588,-4.588,-4.597,-4.6046,-4.6165,-4.6269,-4.6403,-4.655,-4.6639,-4.6712,-4.6712,-4.6815,-4.6902,-4.6902,-4.699,-4.7062,-4.7062,-4.7164,-4.7309,-4.7309,-4.7309,-4.7309,-4.7309,-4.7309,-4.7309,-4.7309,-4.7309,-4.7309,-4.7309,-4.7309,-4.7309,-4.7309,-4.707,-4.6875,-4.6875,-4.6621,-4.6426,-4.6426,-4.6426,-4.6426,-4.6426,-4.6426,-4.6531,-4.683,-4.713,-4.7309,-4.7309,-4.7309,-4.7309,-4.7309,-4.7309,-4.7309,-4.7309,-4.7309,-4.7309,-4.7309,-4.7309,-4.7309,-4.7309,-4.7309,-4.7309,-4.7309,-4.7309,-4.7934,-4.9157,-4.9978,-5.0631,-5.1156,-5.2017,-5.2409,-5.2409,-5.2409,-5.2409,-5.2409,-5.2676,-5.2955,-5.3246,-5.3433,-5.3501,-5.3501]}]]